GFSGBSN_500_spd_000.txt.gz
Wind_Speed
29 27 24 21 21 18 18 19 19 16 14 14 19 18 16 16 12 10 12 14 15 15 12 15 17 18 19 18 14 20 21 25 26 28 27 26 13 6 7 9 14 15 11 13 11 12 12
25 24 23 21 19 16 17 18 18 18 17 13 14 12 14 12 11 12 13 15 15 13 14 15 19 22 22 20 24 26 27 27 27 24 26 22 12 17 12 6 5 9 10 10 8 6 4
27 22 21 20 17 15 15 16 15 17 12 13 12 18 17 14 13 12 13 14 16 19 22 23 23 24 26 31 26 24 20 15 18 23 25 17 19 16 15 13 12 11 8 5 3 3 3
17 21 21 19 17 16 16 13 15 8 8 9 15 8 22 15 14 15 16 23 25 24 24 26 28 26 26 23 22 19 21 22 20 17 18 19 16 16 16 13 9 7 3 4 1 3 6
21 22 20 19 16 16 15 13 12 13 7 12 15 13 18 19 19 22 27 29 31 31 30 28 27 26 25 23 22 21 21 23 22 20 17 17 16 15 12 11 9 5 3 1 11 7 5
22 22 20 18 16 14 12 12 14 15 14 17 16 19 21 24 27 31 34 35 33 31 28 28 27 25 24 23 22 20 19 17 20 18 17 17 16 12 10 10 7 9 3 10 9 6 6
21 23 21 17 16 13 13 12 13 16 19 21 22 26 28 30 34 36 35 33 29 29 30 29 24 26 22 19 17 16 15 14 13 14 17 11 13 11 6 3 8 14 16 8 13 5 9
23 23 19 18 16 14 12 13 17 19 26 28 30 32 33 36 38 38 36 34 32 27 23 24 21 21 19 16 15 13 12 13 12 14 11 7 4 8 9 7 8 17 15 9 15 10 11
26 23 20 19 17 15 13 17 21 30 33 35 36 37 37 38 38 35 32 30 29 26 25 22 21 21 18 15 13 11 9 9 9 8 6 5 6 6 7 7 7 11 12 9 10 7 9
26 24 22 20 18 15 16 24 34 37 39 39 38 37 37 38 36 34 31 29 30 27 24 20 18 16 14 14 11 9 7 6 4 3 3 3 6 8 10 10 10 14 7 11 11 11 6
27 24 24 22 19 17 23 34 40 42 42 40 38 38 39 39 37 33 32 27 25 23 19 14 12 9 9 8 6 4 2 3 3 5 7 6 8 9 11 10 12 15 15 15 15 14 16
28 24 25 24 20 22 31 41 43 43 42 40 39 39 37 35 32 31 28 23 22 17 11 10 8 4 3 3 3 2 1 2 5 6 7 8 9 11 12 13 15 17 17 17 17 17 17
29 27 27 25 23 27 36 44 43 44 43 39 37 38 37 35 33 28 24 21 16 12 6 4 1 4 6 7 6 5 5 5 6 6 5 5 7 8 10 12 12 12 12 13 12 9 11
29 29 28 25 25 31 40 46 44 44 42 39 37 37 38 35 30 27 23 18 13 7 3 4 7 9 9 7 7 6 5 2 2 2 3 2 1 2 3 5 5 5 6 7 10 12 11
30 31 29 26 27 34 42 46 45 43 42 38 37 38 37 33 29 25 20 14 10 7 4 8 10 9 7 6 6 5 4 3 4 4 2 2 1 2 3 5 7 7 9 10 13 15 16
31 32 29 26 29 36 44 45 45 44 41 39 37 37 35 32 28 23 17 14 7 7 9 10 10 7 4 4 5 6 6 7 5 4 3 2 1 1 2 4 7 9 11 13 15 18 17
33 32 30 27 31 37 46 47 46 44 41 39 37 36 34 31 26 21 16 13 9 9 11 11 7 6 4 5 7 10 10 9 7 5 4 3 3 2 4 7 12 16 19 19 20 21 22
34 33 30 29 32 39 46 48 47 44 42 40 38 36 34 30 24 21 19 12 10 11 12 9 5 4 5 8 11 11 9 8 7 6 5 4 3 4 7 9 13 16 18 22 23 25 25
36 34 31 30 32 38 45 47 47 46 43 41 39 36 33 29 25 22 16 14 14 15 13 10 5 5 7 9 11 11 11 9 7 5 2 2 4 7 10 13 17 21 25 29 25 23 24
37 35 31 29 31 36 43 47 48 48 45 43 40 36 34 30 26 24 21 19 18 16 13 11 9 7 9 11 12 12 11 9 7 4 2 4 7 10 13 16 21 25 29 33 33 29 25
37 35 32 30 29 32 41 46 48 48 46 44 41 39 36 31 28 27 24 22 20 17 14 14 13 11 13 14 14 13 12 11 9 9 8 9 11 13 15 19 23 27 31 35 33 31 28
38 35 33 31 29 29 34 42 47 48 47 45 43 39 37 33 33 30 26 24 23 22 17 17 17 16 17 17 17 15 14 13 12 11 11 14 15 16 20 24 26 28 33 37 34 30 27
39 36 33 32 30 28 29 35 42 45 47 47 43 39 39 36 34 32 27 26 25 19 20 21 21 20 19 15 15 15 16 16 16 15 17 18 19 21 24 27 30 31 34 39 36 32 32
40 37 34 32 31 29 28 30 36 41 43 43 41 41 39 37 33 30 28 26 25 23 24 24 23 22 21 21 18 18 19 18 18 18 20 22 24 27 29 32 33 35 36 40 35 32 30
41 39 36 33 31 30 30 29 31 35 39 40 40 40 38 34 34 33 29 28 27 26 28 26 25 25 26 24 22 21 21 21 21 22 24 27 30 33 35 37 36 35 37 38 40 31 34
42 40 38 35 31 30 31 31 30 31 33 37 38 37 36 36 35 33 33 31 28 29 27 29 28 29 29 27 26 25 25 25 26 27 29 32 34 36 39 42 42 41 44 44 39 35 38
42 41 40 37 34 31 31 31 31 30 31 32 35 36 37 37 35 36 37 31 32 32 34 32 32 32 31 31 31 29 30 30 32 32 34 37 39 40 43 44 43 44 45 43 45 43 41
42 43 41 39 36 33 31 31 31 31 31 32 33 35 37 38 37 38 36 36 35 36 33 35 35 34 34 34 34 33 34 34 35 37 39 41 42 43 44 45 46 48 48 48 48 47 47
39 42 42 41 38 36 33 32 31 31 32 33 33 33 35 36 37 38 38 37 38 39 37 34 39 36 37 36 35 37 37 38 39 41 43 46 44 47 46 46 47 51 51 50 51 51 51

GFSGBSN_500_spd_003.txt.gz
Wind_Speed
31 36 30 30 25 23 21 18 18 22 22 20 18 15 16 15 16 15 12 12 14 14 13 15 14 18 19 15 15 21 21 24 27 29 30 28 24 17 25 24 14 20 17 12 20 15 8
29 38 34 27 23 21 18 17 18 21 19 22 21 16 14 13 12 11 12 13 16 17 14 13 15 16 15 14 18 22 27 32 34 36 35 30 23 12 3 10 18 20 5 9 9 9 6
31 36 28 27 21 19 16 16 17 15 18 17 14 15 12 14 11 12 13 14 14 15 14 14 16 16 15 18 28 31 31 33 34 37 40 31 21 22 17 20 11 15 14 13 11 8 3
31 34 27 19 21 18 16 16 14 17 14 8 9 11 19 16 14 11 12 13 14 15 17 18 18 17 18 21 23 26 22 19 11 16 14 14 26 22 17 17 15 11 8 9 10 5 2
29 28 23 20 20 17 16 16 17 14 14 6 10 8 19 19 15 13 14 16 20 21 21 21 23 24 24 23 22 20 21 19 19 13 15 18 18 18 18 16 16 11 7 7 10 7 1
30 26 23 20 19 16 16 13 16 16 14 6 12 10 19 16 16 17 21 23 23 22 24 22 22 22 20 22 20 18 17 19 23 21 18 16 16 15 14 15 11 15 6 3 13 8 2
30 22 21 19 18 16 15 14 14 16 13 11 13 13 19 18 20 24 25 24 25 26 24 25 26 24 20 18 17 16 15 16 17 20 21 20 19 18 11 4 5 8 14 12 10 3 2
24 23 21 19 18 17 15 16 15 14 14 15 16 19 22 23 26 29 30 29 28 25 21 20 21 21 18 19 17 15 15 16 13 17 19 14 4 8 8 5 7 14 19 17 12 5 7
24 22 23 21 18 18 17 15 13 15 17 19 22 25 27 29 30 30 28 27 28 24 21 21 21 21 19 17 17 15 14 11 14 15 12 6 10 8 6 6 8 13 15 13 8 1 6
26 23 27 22 21 20 19 14 15 20 26 28 28 30 32 34 34 32 29 28 29 26 25 24 22 21 20 17 16 13 12 9 8 6 9 9 8 8 7 6 9 6 8 9 8 7 10
26 29 27 23 23 23 19 16 20 31 33 32 32 35 37 37 35 34 30 30 31 26 25 21 18 16 15 12 10 9 9 7 5 6 5 4 5 6 5 9 10 6 11 11 11 11 13
26 32 29 25 26 24 21 20 31 36 36 36 37 39 39 37 36 33 32 29 28 23 18 17 15 12 9 7 6 5 6 7 8 6 5 6 6 8 9 10 11 12 13 13 14 15 13
31 34 30 28 30 25 24 29 38 40 39 38 38 39 38 37 34 33 30 28 24 17 14 13 10 6 4 4 4 5 5 6 7 8 8 6 7 7 7 9 10 12 12 13 15 12 12
37 35 31 32 32 28 28 37 42 43 41 39 40 40 39 37 34 31 28 25 19 15 11 8 5 5 5 6 7 8 5 5 7 8 7 8 6 4 4 3 2 2 1 4 6 10 9
38 36 32 35 33 31 34 41 45 45 43 40 41 41 40 36 33 30 26 22 18 12 6 3 5 7 5 7 7 6 7 10 9 7 5 6 5 3 1 1 2 3 5 7 8 9 9
41 36 35 36 34 35 38 45 47 47 44 41 42 42 40 36 33 29 24 20 15 7 3 5 7 5 5 7 9 9 9 9 9 7 4 3 2 2 2 4 4 5 9 11 12 12 8
43 37 37 37 36 38 41 49 49 49 45 42 42 41 40 36 33 27 21 16 11 7 6 7 6 6 4 8 9 9 11 12 9 5 5 5 5 4 4 4 5 9 12 15 18 17 16
43 39 40 37 35 40 43 50 51 50 47 43 42 40 40 37 30 26 22 16 7 8 7 8 6 6 4 8 7 11 12 9 7 7 6 6 4 3 2 4 7 10 13 16 19 20 20
43 40 41 37 35 41 45 50 51 51 48 44 42 41 40 36 31 27 21 10 9 9 8 9 5 5 5 7 10 12 11 11 10 10 7 4 2 1 0 2 5 11 16 20 23 22 22
43 42 41 36 36 42 47 50 51 51 49 47 44 42 40 34 32 27 19 15 12 9 10 11 8 9 7 10 11 14 13 13 12 10 6 3 4 5 5 8 11 16 20 24 26 27 24
43 42 43 37 37 42 46 50 50 50 50 47 44 41 38 35 31 25 21 18 15 13 11 11 10 12 11 11 12 14 15 14 13 10 8 7 8 9 9 12 16 19 21 23 25 29 31
43 42 41 36 37 41 45 47 51 50 50 47 46 42 39 36 32 29 25 22 18 18 14 14 13 15 14 15 14 15 15 14 14 12 12 12 13 13 13 15 19 21 25 27 28 29 31
44 41 39 36 35 39 43 45 49 51 50 48 46 42 40 36 33 32 26 23 24 19 18 16 17 16 14 12 13 15 18 19 18 16 17 16 16 16 17 20 23 27 29 31 32 33 36
45 42 40 36 34 35 40 43 46 49 51 48 44 43 40 38 36 32 28 29 27 21 23 18 16 16 16 19 21 21 22 21 20 19 19 19 20 20 22 25 28 31 33 34 36 36 38
45 42 40 36 34 33 35 39 42 45 46 46 47 45 41 39 38 35 33 33 30 24 23 18 16 21 23 23 24 24 25 23 22 21 21 22 24 26 28 30 32 36 38 36 39 39 38
45 42 40 38 34 33 32 32 35 40 40 43 46 43 41 40 38 36 37 36 30 26 25 22 22 24 24 25 27 28 27 25 26 24 25 27 29 30 33 35 38 42 44 43 43 40 41
44 43 40 38 36 33 31 31 31 32 36 40 42 41 40 39 38 38 38 34 31 32 30 28 27 27 27 28 30 32 32 32 31 29 30 32 33 35 37 39 40 42 46 44 43 46 46
43 42 40 38 36 33 31 31 30 30 30 33 37 39 40 40 40 40 39 35 36 35 32 31 31 30 32 33 33 34 36 37 36 35 34 36 38 38 41 43 45 47 48 47 46 49 48
41 42 41 39 37 35 33 31 30 30 31 32 33 35 37 38 39 41 40 39 39 38 34 35 37 33 37 36 35 38 39 39 38 39 39 41 41 42 44 46 48 52 51 51 52 53 50

GFSGBSN_500_spd_006.txt.gz
Wind_Speed
44 46 40 40 33 32 32 28 21 19 20 21 20 17 18 15 14 16 16 18 17 15 13 15 15 15 15 18 18 17 22 25 18 26 32 35 32 30 29 10 8 5 13 12 13 13 12
47 46 41 39 32 32 31 25 19 18 19 17 15 21 19 15 14 15 15 14 15 16 17 15 13 16 16 14 18 25 31 31 35 35 38 35 27 27 27 19 10 11 9 15 20 15 7
47 44 39 38 33 31 24 22 17 16 13 14 18 14 14 14 15 14 14 15 15 18 17 14 14 13 12 15 26 29 29 35 43 43 39 33 35 36 27 20 20 14 8 13 13 11 9
43 41 37 34 28 26 23 20 18 14 17 14 17 13 15 14 16 13 11 13 13 15 16 15 13 10 15 17 25 30 31 34 38 41 38 33 22 21 25 19 16 17 17 15 13 11 9
45 37 36 30 26 25 23 20 18 16 15 13 10 4 13 17 13 12 12 12 12 13 11 12 13 15 20 21 20 17 28 28 15 33 29 22 24 20 14 15 17 16 19 12 11 7 1
42 35 36 29 25 25 23 19 18 18 15 10 6 5 16 16 17 15 12 12 15 15 17 18 20 20 19 18 21 19 16 17 13 29 19 13 13 20 25 21 18 14 12 8 9 6 6
37 32 35 28 24 25 22 20 16 17 13 9 7 6 15 20 13 13 16 19 21 23 22 23 23 22 22 20 19 19 17 17 18 21 23 24 25 25 24 18 15 6 3 6 6 3 6
35 32 34 26 21 23 21 19 17 16 13 13 15 8 13 16 18 22 22 22 22 21 22 21 22 23 23 22 19 19 20 20 21 26 26 22 21 21 19 14 10 10 8 7 6 4 8
35 32 31 22 21 24 22 19 17 14 10 15 18 13 17 20 22 21 25 28 27 25 25 22 20 21 20 18 19 17 17 18 20 19 16 15 13 15 12 10 10 17 14 12 8 4 8
33 32 29 23 24 25 23 21 17 13 13 20 18 18 23 24 26 29 30 29 27 25 25 22 21 21 20 18 18 17 15 13 12 14 14 12 12 10 8 8 7 9 18 19 12 8 12
36 34 29 25 28 27 25 21 17 14 18 21 22 27 28 32 32 30 29 28 29 28 27 25 22 21 20 16 17 18 16 14 11 13 12 11 12 11 11 11 10 11 13 16 15 14 14
39 34 29 28 30 28 27 22 17 18 24 27 30 32 35 35 32 31 29 30 30 26 25 23 21 18 15 14 12 13 15 14 14 12 12 12 12 11 11 12 11 11 12 13 15 14 14
40 34 32 32 32 30 29 23 19 27 32 33 34 37 37 35 33 32 33 31 27 23 21 19 17 14 13 12 10 10 9 8 8 10 11 10 10 10 10 11 13 12 13 15 16 16 17
39 34 36 37 33 33 29 25 25 34 37 37 38 39 37 36 35 35 32 27 23 19 18 15 13 10 10 10 11 11 11 11 13 11 10 11 9 9 9 8 6 6 5 6 8 9 12
37 38 39 39 34 36 31 28 33 39 41 41 42 41 38 37 37 35 30 25 20 17 15 12 8 8 11 12 11 12 13 12 10 10 9 9 9 8 7 5 4 2 1 2 4 7 13
38 41 41 40 38 38 33 31 37 43 43 42 43 41 40 39 37 33 29 25 20 15 8 6 6 7 10 12 12 12 11 11 11 10 11 10 8 6 7 7 5 2 2 3 6 6 11
41 41 44 41 40 40 36 35 40 46 45 44 45 43 42 40 36 32 29 24 18 11 7 4 4 5 8 9 10 11 13 14 13 10 9 10 10 8 7 6 3 3 4 6 10 12 13
45 42 43 41 42 41 38 38 44 49 47 46 46 46 44 40 36 32 28 24 17 10 5 3 4 3 5 6 7 12 15 15 13 11 10 10 9 9 7 4 2 1 5 8 10 12 14
45 44 45 42 43 41 40 40 46 51 47 46 47 48 45 41 37 32 28 21 15 8 3 3 3 3 3 6 11 16 17 16 14 13 13 10 8 6 5 4 3 3 7 10 13 15 17
41 45 45 42 42 41 41 43 49 53 50 48 49 49 46 43 37 34 28 20 13 8 4 4 5 5 5 8 14 17 17 15 14 14 12 11 8 6 6 6 6 10 11 12 15 17 19
46 49 45 41 41 40 43 46 51 55 52 50 50 49 45 41 38 33 27 19 15 10 6 5 6 5 6 8 12 15 15 16 15 16 13 12 10 9 8 10 12 13 15 19 20 23 24
51 48 43 41 40 40 45 48 52 55 55 51 49 48 46 42 39 33 26 21 16 14 10 8 7 6 9 9 11 15 15 17 16 17 16 15 14 13 13 13 15 17 18 21 24 27 29
51 46 42 41 40 40 44 49 52 55 56 54 49 47 45 42 38 34 29 25 19 17 15 11 9 9 11 11 13 17 20 22 21 22 21 19 18 18 18 19 21 22 23 25 29 29 31
51 45 43 41 38 39 43 48 53 54 53 55 52 48 44 41 38 34 30 27 26 22 19 16 13 11 11 16 19 19 21 23 25 24 23 22 22 22 22 24 25 27 26 30 32 32 35
48 45 44 42 37 39 42 47 50 52 52 51 52 47 44 42 40 37 35 35 30 24 21 19 18 15 17 20 22 21 22 26 26 26 26 26 25 25 26 27 29 31 31 34 35 36 39
49 46 44 40 37 38 40 44 48 50 50 50 50 47 45 44 43 41 39 36 32 28 25 25 23 22 20 21 24 25 25 27 28 29 30 29 29 30 30 32 34 34 35 36 38 39 41
50 47 44 40 37 37 37 41 44 46 48 49 48 46 44 44 42 41 39 37 33 30 31 29 28 27 26 24 27 29 30 30 31 31 32 33 34 35 35 37 37 39 40 41 42 43 48
50 47 44 42 37 35 35 35 38 41 44 46 45 44 43 43 42 41 40 38 35 33 33 32 32 30 30 30 31 32 34 33 34 34 35 38 40 38 40 40 41 41 43 44 45 45 49
49 46 42 40 38 34 33 33 34 36 39 41 41 41 41 42 41 41 40 39 38 37 38 38 38 36 36 34 35 36 38 39 38 39 37 39 40 42 41 40 41 44 45 46 46 48 55

GFSGBSN_500_spd_009.txt.gz
Wind_Speed
43 45 47 40 43 43 42 40 34 31 23 21 22 24 23 20 20 18 18 17 17 19 16 12 13 13 13 14 17 19 19 22 22 18 26 35 33 34 33 26 21 15 9 5 2 1 3
46 46 50 43 44 44 42 39 31 26 21 19 23 20 20 23 21 19 17 16 17 18 16 14 16 15 15 16 17 18 24 26 24 29 36 36 32 31 21 13 12 15 7 5 10 8 8
49 47 52 47 45 41 41 35 28 22 19 19 18 19 19 18 17 18 15 15 16 16 17 15 12 8 8 12 18 23 29 27 29 35 38 36 33 31 20 14 15 16 7 7 9 13 8
52 51 52 47 45 43 41 31 27 21 19 19 21 20 19 16 13 16 16 16 16 16 15 14 13 7 11 15 19 29 33 31 37 37 31 26 23 24 15 10 11 13 7 10 11 9 10
53 52 50 49 48 43 41 31 28 22 20 17 17 19 12 16 13 14 12 12 12 12 14 13 9 11 17 18 20 30 32 34 39 38 29 24 22 17 20 13 13 14 18 12 11 10 10
52 52 49 50 47 42 39 30 26 24 19 17 18 10 8 15 16 13 12 11 11 11 10 13 15 16 18 21 23 29 25 34 41 39 34 32 31 24 13 18 18 20 16 15 13 9 7
51 50 49 48 45 40 38 30 24 22 18 15 14 9 9 17 17 17 12 11 13 16 18 20 20 19 19 18 21 26 22 29 37 32 18 11 16 18 23 22 20 21 25 12 13 9 7
53 48 49 47 44 35 34 26 23 21 17 15 13 9 11 19 15 11 13 17 19 22 24 23 20 18 17 19 20 20 26 28 25 28 21 23 24 29 24 23 20 15 19 11 5 2 7
54 49 47 46 39 31 28 23 23 20 16 14 19 12 8 11 10 13 18 21 21 21 22 22 21 20 20 19 21 21 23 25 27 30 26 24 26 29 23 20 15 11 11 8 7 6 8
54 48 46 41 35 30 25 24 23 19 15 14 20 15 9 10 15 20 22 23 24 25 25 23 23 22 22 21 21 19 20 20 18 19 21 17 20 21 16 15 15 14 15 14 14 14 14
53 49 44 38 33 28 25 25 24 20 16 18 21 15 13 19 22 26 27 26 26 25 24 22 22 21 22 20 20 19 18 16 15 13 16 12 15 18 17 14 12 11 15 16 16 19 21
50 46 41 37 34 28 27 27 25 21 17 24 23 18 24 27 30 30 27 25 25 27 23 24 23 20 19 16 16 15 15 15 14 14 16 16 15 15 15 14 13 11 13 15 17 19 23
50 48 42 40 35 29 30 29 27 22 21 28 24 30 33 33 31 28 27 26 25 25 25 23 20 18 16 16 14 14 13 13 13 17 18 16 16 16 15 14 13 14 15 17 19 20 23
56 50 46 41 36 32 33 31 28 25 28 31 31 37 37 33 31 30 29 29 27 25 22 21 18 16 13 11 11 12 13 14 15 14 15 14 13 13 13 12 13 15 16 16 16 15 16
61 54 47 41 36 37 36 33 30 27 34 36 38 42 38 35 34 32 31 29 24 21 18 15 13 12 12 13 13 13 14 13 13 13 13 13 11 10 9 9 9 8 9 8 9 10 12
61 53 47 41 41 39 37 33 33 31 39 41 44 43 39 38 36 35 33 28 20 18 15 13 11 12 14 14 14 15 15 12 11 13 14 13 12 11 11 11 10 9 5 3 4 5 5
59 52 45 42 44 40 38 35 35 38 44 46 48 45 41 39 38 37 33 28 22 17 12 8 7 8 10 12 13 15 13 12 14 15 15 14 13 13 13 11 8 7 5 3 2 4 6
58 51 45 46 42 42 37 39 37 43 47 49 50 46 43 41 41 38 33 27 22 18 12 7 5 4 8 9 11 15 16 16 16 15 15 14 13 14 10 10 7 5 3 2 5 8 10
55 49 45 45 43 42 38 40 39 46 49 51 51 48 45 43 41 38 33 27 22 16 9 5 4 5 7 10 14 16 18 19 18 15 14 15 14 13 12 10 8 8 6 7 7 8 11
53 48 45 43 46 40 40 41 41 48 51 53 53 50 47 44 41 37 33 27 21 15 9 6 3 4 6 10 14 17 19 19 16 16 17 15 14 13 11 10 11 12 11 11 11 12 13
51 46 45 42 46 40 42 41 43 49 53 54 53 50 46 45 42 38 33 27 22 15 9 5 2 4 6 8 13 17 18 17 17 18 18 16 16 13 12 14 15 16 16 17 16 18 19
48 48 42 45 42 40 42 42 44 51 54 53 53 50 47 44 42 40 35 28 23 16 10 8 6 3 8 9 12 15 18 19 19 18 20 19 18 18 18 18 18 19 21 22 21 23 24
46 46 44 44 40 41 43 41 45 53 55 53 53 51 49 46 45 41 35 29 24 18 12 11 10 7 7 10 11 15 19 22 23 23 24 24 23 23 22 23 24 23 25 27 26 26 29
47 44 43 42 40 42 41 40 45 53 55 53 51 50 49 47 45 41 36 31 26 21 18 15 13 11 11 12 16 18 19 20 23 26 26 27 28 27 27 28 31 26 28 30 31 30 32
45 44 43 40 40 41 38 39 44 53 56 53 51 50 48 47 44 43 38 33 30 26 22 18 18 16 15 15 17 19 20 21 24 27 28 29 30 32 33 32 34 30 29 34 36 34 35
48 42 45 40 40 39 35 38 44 50 54 56 54 50 48 46 45 43 39 36 35 29 26 24 24 22 21 20 19 20 23 24 25 26 29 31 33 35 36 38 39 34 35 38 40 38 40
42 48 42 41 40 36 35 37 42 47 46 52 54 52 49 47 46 44 41 39 36 31 29 28 28 26 26 25 25 25 25 27 28 27 28 34 37 39 41 43 43 39 40 41 42 43 42
48 45 43 41 37 33 33 36 40 44 51 51 52 52 51 49 47 45 42 40 37 35 35 33 32 31 31 31 31 30 32 32 32 32 32 35 39 40 42 44 47 42 45 45 44 45 45
47 46 44 39 36 30 32 35 39 43 46 47 48 48 48 46 44 43 42 42 40 39 38 38 36 35 35 35 35 35 37 37 37 37 36 37 39 41 42 42 43 44 47 45 46 48 47

GFSGBSN_500_spd_012.txt.gz
Wind_Speed
45 42 43 44 44 48 41 43 43 40 43 36 33 27 25 28 28 22 23 20 20 17 15 15 14 19 11 12 15 16 16 16 15 18 17 17 26 31 30 26 23 22 20 11 7 6 7
46 44 42 43 45 48 42 43 42 41 42 34 30 26 27 23 23 27 21 20 19 19 19 17 15 15 11 14 13 15 17 15 18 17 24 29 32 28 22 21 22 12 5 4 2 1 3
47 44 42 42 46 48 46 43 42 42 40 34 30 25 25 28 25 25 18 18 19 18 18 16 14 7 6 9 12 14 16 20 20 20 30 32 28 27 26 22 19 15 5 2 4 5 5
49 47 43 43 45 49 45 44 43 43 39 36 29 25 26 25 26 18 17 19 19 16 14 16 11 13 15 12 14 15 22 25 22 32 27 31 26 27 20 14 13 12 3 2 5 10 11
51 49 45 45 44 48 45 45 42 44 38 35 26 25 25 26 20 15 15 15 14 13 13 13 13 6 8 14 17 22 29 26 32 33 29 26 23 22 12 8 8 13 10 8 11 13 12
54 50 46 45 45 46 46 44 42 42 37 32 23 24 25 20 13 12 10 11 10 11 12 11 10 12 15 19 20 27 33 32 34 31 24 23 20 21 17 11 10 9 15 11 10 12 13
58 53 49 46 46 46 45 43 42 38 35 27 21 21 21 15 13 12 12 11 11 12 13 13 16 17 19 19 22 26 29 23 35 31 24 21 17 13 12 11 12 21 17 16 14 17 17
61 55 52 46 45 44 44 42 39 34 30 23 20 19 17 13 12 12 17 11 12 14 17 18 18 15 13 18 24 28 32 33 33 29 18 16 19 15 14 19 20 25 21 15 19 17 12
65 60 55 50 45 44 43 41 37 30 25 22 18 19 15 11 14 12 10 13 15 19 23 21 19 17 17 17 18 23 27 34 33 30 23 20 19 22 25 27 23 21 24 18 11 9 8
70 63 57 53 47 46 43 41 35 25 24 21 17 20 12 8 7 12 16 18 20 21 20 18 18 17 18 18 20 21 23 33 32 31 28 21 21 25 27 24 22 21 20 21 14 13 13
75 66 60 55 49 47 43 39 32 22 25 20 17 21 13 9 14 18 21 20 21 22 21 20 19 18 19 20 20 21 24 26 30 22 21 15 19 23 23 22 21 19 19 15 14 15 18
79 69 63 57 51 49 44 39 29 23 26 20 17 21 15 18 20 23 23 24 24 24 19 21 20 19 19 19 19 18 19 19 17 16 18 17 13 20 22 17 15 14 15 15 15 16 19
76 70 65 60 54 49 45 37 29 27 26 21 21 22 22 25 27 26 26 25 25 23 22 20 19 19 18 16 14 13 13 13 14 15 15 16 14 17 19 17 16 17 17 16 18 19 20
75 67 65 60 54 48 44 39 30 30 27 25 26 27 29 31 30 28 26 24 23 19 21 21 19 17 15 15 13 12 11 13 14 13 15 16 16 18 18 18 17 16 16 17 19 20 20
78 75 72 64 56 49 46 41 34 33 28 27 32 34 35 36 33 29 27 24 23 21 21 19 17 14 12 12 11 12 12 14 14 16 17 17 16 15 15 16 16 16 16 14 12 12 12
77 78 76 67 59 54 48 41 38 35 32 28 38 39 41 38 34 31 28 25 24 22 20 17 14 13 12 12 13 13 13 13 14 14 16 16 15 13 12 12 12 11 10 8 7 7 4
67 74 73 68 64 55 49 43 42 38 36 34 44 45 44 39 36 34 31 28 23 21 17 14 13 12 13 16 17 17 15 14 14 14 17 15 15 14 13 12 12 11 9 7 5 5 5
80 79 76 67 60 57 51 46 44 41 39 42 48 48 46 41 39 36 33 30 22 20 17 12 8 8 10 11 12 14 15 14 14 15 15 13 16 15 13 13 12 10 9 8 7 8 9
80 78 70 63 59 55 50 47 44 44 38 47 51 51 47 43 41 38 36 32 25 19 15 8 6 6 9 10 13 16 16 15 15 16 15 15 15 16 15 14 12 12 10 9 10 11 11
82 73 64 60 54 50 47 45 45 44 41 51 55 54 50 44 41 39 37 32 25 20 13 9 6 6 9 12 15 16 17 18 17 16 15 17 15 15 15 15 15 13 13 14 15 16 17
71 67 60 56 51 47 45 43 45 43 44 53 59 55 48 44 42 41 38 32 26 19 14 10 5 5 9 10 13 15 18 19 18 17 17 17 17 17 16 16 16 17 17 19 21 21 23
66 63 58 52 47 46 44 42 44 43 46 55 60 54 49 43 42 41 39 33 26 20 15 10 5 4 6 8 10 13 17 19 19 18 19 20 19 19 20 19 20 21 21 23 25 27 28
67 60 54 48 47 46 42 43 43 42 49 56 61 55 48 46 44 43 38 31 26 22 17 13 8 6 5 8 9 12 15 18 19 21 22 22 23 24 25 25 27 27 24 28 30 31 33
59 55 49 47 42 43 42 42 41 40 50 55 60 54 49 47 46 41 37 33 30 25 21 17 13 10 9 8 11 14 15 18 20 21 22 24 27 30 30 31 35 28 29 32 36 37 36
55 50 44 40 41 42 39 40 39 41 51 56 58 55 50 47 44 43 40 34 32 28 24 21 18 15 14 13 12 13 16 17 18 19 23 26 29 32 34 35 37 36 33 37 40 40 38
50 44 40 39 38 39 39 38 37 42 52 57 56 54 51 47 45 43 40 35 33 30 27 25 23 21 19 18 18 16 17 17 21 22 23 25 30 34 37 40 42 40 38 41 44 46 42
43 40 38 40 38 37 35 36 37 43 54 55 54 52 50 47 46 44 41 36 35 33 31 30 28 26 24 24 23 22 23 22 22 23 25 29 32 34 37 42 44 43 44 44 47 47 50
40 37 31 35 35 36 34 34 37 43 51 52 51 51 49 47 45 44 41 38 36 36 35 34 32 30 29 29 29 28 29 28 28 28 28 31 34 36 39 42 45 43 45 46 48 49 50
37 34 32 36 31 34 30 31 36 41 43 45 48 51 49 46 45 44 41 40 39 39 38 38 36 34 34 34 34 34 34 33 33 35 34 37 36 39 41 41 43 46 47 48 48 48 48

GFSGBSN_500_spd_015.txt.gz
Wind_Speed
48 47 44 42 40 40 39 38 42 40 38 41 39 38 39 32 26 28 28 25 29 21 17 15 13 16 15 13 11 12 13 13 12 14 15 16 16 17 25 27 23 21 18 14 9 4 14
50 48 44 43 41 42 39 39 42 42 40 41 38 37 38 28 26 28 27 28 26 20 18 17 16 13 12 11 10 11 14 13 7 12 19 19 27 32 29 20 15 15 12 10 6 10 7
53 50 48 45 42 42 40 38 41 44 41 41 36 39 36 25 25 25 27 31 22 18 17 16 15 12 11 8 10 12 12 11 15 16 17 32 34 27 24 21 18 13 7 4 2 6 4
52 48 46 44 43 43 38 40 39 44 40 41 38 39 33 23 25 26 32 23 17 16 17 16 14 12 13 12 13 13 13 17 18 24 27 30 27 20 19 20 16 9 4 7 7 10 9
53 49 46 44 44 43 40 43 40 43 40 39 39 38 30 22 23 27 26 16 16 15 13 11 12 16 15 15 17 17 20 20 22 28 27 20 22 20 16 14 13 12 4 2 6 12 9
59 55 50 47 45 43 43 40 41 43 39 37 36 36 26 23 22 26 15 12 11 11 11 12 13 14 10 23 19 17 22 22 25 31 28 27 22 22 15 16 10 9 6 5 6 11 11
64 60 54 50 48 44 42 40 42 42 39 35 34 32 22 21 21 19 12 11 10 10 11 12 13 13 16 19 19 21 25 24 24 29 23 16 20 24 15 10 8 7 14 12 11 12 12
71 63 54 51 49 46 43 41 42 40 38 35 32 28 19 18 17 14 12 14 13 13 16 14 13 16 16 20 24 22 25 25 25 24 18 16 19 16 16 13 11 17 18 15 16 13 13
74 63 54 50 50 47 44 40 41 37 36 32 28 23 17 16 16 15 14 17 15 14 14 15 16 16 16 16 21 24 29 22 33 29 23 13 9 9 8 15 15 24 21 14 10 9 9
71 63 57 53 51 49 45 41 39 36 35 29 23 20 17 14 16 15 17 11 11 14 16 17 17 15 16 16 17 17 28 23 26 27 19 13 12 17 18 18 20 22 23 20 14 14 13
74 67 60 57 54 51 49 43 40 37 34 27 22 20 16 13 13 14 13 14 17 19 19 18 16 15 16 18 17 21 24 28 27 23 25 19 19 17 20 21 24 19 17 19 22 24 17
74 70 63 61 59 54 52 46 43 39 35 26 23 20 16 15 16 17 18 20 21 21 16 18 17 16 16 17 18 19 21 21 31 28 29 24 20 15 21 22 18 18 19 19 19 20 18
78 72 67 65 63 59 54 50 46 40 37 27 24 21 18 20 21 22 23 23 22 22 21 19 17 17 17 16 17 17 19 19 21 23 18 18 15 14 18 21 17 18 17 16 17 17 14
82 75 73 68 68 64 58 53 48 42 38 29 27 22 23 24 27 27 25 25 25 20 20 19 17 15 15 14 14 14 14 14 16 16 16 18 18 16 16 19 20 19 19 19 18 17 16
82 72 73 72 71 68 63 56 51 44 39 31 29 26 28 30 32 32 29 28 26 20 19 18 17 15 12 12 12 12 13 12 13 13 15 15 15 14 15 17 19 19 19 19 18 14 10
82 73 73 72 74 73 67 61 55 47 41 34 31 29 31 36 38 35 32 28 25 20 19 19 16 13 12 11 11 10 11 12 13 15 16 15 16 17 16 18 18 18 15 13 10 8 6
81 70 69 67 75 77 73 66 57 51 44 39 36 35 36 43 42 37 32 27 25 21 20 17 16 14 14 14 15 16 15 15 16 17 17 18 18 18 17 15 14 12 11 11 9 7 6
74 70 68 73 81 83 77 70 62 55 49 44 41 38 41 48 45 38 34 30 26 22 21 17 15 13 15 16 17 19 19 18 16 17 18 17 16 17 17 16 14 12 11 11 10 9 9
81 78 73 75 82 81 75 70 64 57 50 47 43 44 47 51 45 39 36 32 28 23 21 16 11 11 11 12 15 15 16 16 15 15 15 14 13 16 16 15 14 13 13 13 13 13 12
89 80 82 82 82 80 73 68 61 57 53 51 45 49 53 54 46 41 38 35 29 25 21 14 9 6 8 10 13 15 17 16 16 15 15 15 14 14 16 17 17 15 16 17 16 15 16
89 80 89 76 80 73 70 64 59 57 55 53 48 52 56 53 47 43 41 37 32 24 18 13 6 4 7 8 11 14 16 17 17 17 16 15 15 17 19 18 18 18 19 19 19 21 23
69 82 82 83 77 73 67 60 57 54 56 54 52 56 59 53 47 44 43 39 34 26 19 12 6 3 4 9 10 12 13 15 16 17 17 16 17 19 20 20 21 22 21 21 24 26 27
82 86 83 76 70 64 61 56 53 54 54 52 54 57 59 54 49 46 43 38 33 27 20 14 9 4 4 5 8 8 9 11 14 17 17 18 18 21 23 24 26 27 20 26 29 31 34
81 80 76 67 60 59 54 51 51 50 50 49 55 58 59 54 50 45 42 39 34 27 22 17 12 8 7 5 5 8 8 11 13 16 17 18 21 24 26 28 32 27 28 31 35 37 39
77 71 63 58 57 53 53 49 46 46 46 48 54 57 59 54 49 46 44 39 34 29 25 20 16 14 11 9 8 7 6 9 12 14 16 19 22 25 28 30 32 33 33 35 39 41 43
66 62 59 55 52 50 47 45 42 42 43 45 51 57 58 53 49 46 42 39 35 30 27 23 19 18 16 13 13 12 11 10 11 12 16 20 23 25 27 31 32 33 36 38 42 44 44
64 58 53 50 49 46 43 40 40 40 41 45 46 55 57 52 49 46 43 38 33 31 29 26 23 22 20 19 18 17 17 17 17 18 19 21 24 26 28 32 35 35 37 39 41 45 46
58 53 48 45 42 43 40 40 38 38 40 46 49 55 54 52 48 45 43 39 34 32 30 29 27 25 25 24 23 23 24 24 23 23 24 26 29 29 32 35 38 39 40 43 45 47 48
51 45 41 38 42 39 39 36 37 36 39 42 47 50 53 50 47 44 41 39 36 36 34 32 31 29 28 27 29 30 30 29 30 32 31 32 33 36 36 36 39 42 44 46 46 47 47

GFSGBSN_500_spd_018.txt.gz
Wind_Speed
48 46 45 46 46 45 40 37 34 35 35 41 40 34 37 39 39 38 30 27 22 25 26 15 14 15 13 14 13 8 9 11 12 14 16 17 16 21 19 19 20 17 15 13 6 6 14
49 48 47 47 47 45 40 37 35 35 36 38 41 36 36 40 38 36 28 25 25 29 22 13 14 15 14 13 11 9 10 12 13 11 15 19 22 25 29 23 21 18 14 9 5 16 11
51 50 50 48 48 47 41 38 36 35 35 37 39 37 37 38 37 32 26 24 29 20 14 11 13 15 15 13 8 9 12 10 9 12 16 22 26 28 23 24 20 18 13 8 10 10 7
55 54 53 50 48 46 43 39 38 35 35 35 39 38 36 36 36 27 24 24 23 13 10 11 12 13 13 10 9 10 11 12 12 16 16 18 21 21 23 22 18 14 11 6 6 15 11
58 56 53 51 48 42 39 38 37 35 36 35 37 39 34 36 34 25 23 23 15 12 11 10 11 12 13 12 13 13 13 13 17 17 17 29 27 29 26 23 16 8 5 7 11 16 14
59 57 55 51 50 46 39 38 36 35 38 35 37 37 30 35 28 24 19 16 12 11 8 10 11 12 15 15 14 17 18 19 21 23 20 26 21 13 13 8 10 10 8 3 7 14 14
65 63 55 54 52 49 45 41 38 34 38 35 37 35 30 31 23 19 14 12 10 10 8 11 12 13 13 12 22 19 24 23 23 22 17 29 19 14 16 21 16 11 11 9 8 10 12
69 65 62 58 57 55 50 45 41 37 37 34 36 35 27 27 21 16 9 10 9 10 12 13 15 15 13 15 21 21 25 21 21 18 24 23 22 21 18 13 10 10 15 11 9 12 9
76 73 68 65 60 57 49 46 43 39 38 35 34 33 26 23 18 14 12 13 13 17 18 17 17 14 17 22 24 23 27 21 27 27 20 11 21 16 20 15 10 8 18 11 8 5 4
81 79 74 69 65 61 51 47 44 41 39 35 33 31 22 20 16 14 13 14 16 14 13 12 13 14 18 20 25 25 29 24 23 24 22 22 10 6 5 13 13 13 21 16 8 8 8
86 82 79 74 69 62 52 46 45 42 40 37 33 30 19 17 16 13 14 13 13 13 14 14 15 14 17 21 19 21 25 25 21 18 14 12 7 10 13 13 14 15 16 21 14 14 16
86 84 82 77 71 60 53 48 47 45 41 39 36 30 18 18 16 13 14 12 14 17 18 17 16 15 15 18 19 20 23 26 21 19 19 17 12 11 15 15 15 17 12 15 15 19 20
88 83 81 78 72 62 54 52 49 49 44 40 39 30 20 21 18 15 16 16 18 20 17 17 15 14 14 16 18 21 22 21 22 20 17 18 21 20 15 12 16 14 14 17 18 19 18
94 87 80 77 73 66 59 55 53 51 48 44 40 33 22 22 20 18 21 19 21 21 20 19 17 16 14 14 16 18 17 18 19 20 19 18 17 18 13 14 18 20 17 18 19 18 18
100 95 84 78 74 69 64 61 58 55 51 49 43 34 25 25 24 23 24 23 23 23 22 19 17 16 15 14 14 14 14 15 15 16 18 18 19 17 15 16 18 18 19 18 19 19 17
100 99 95 83 77 71 68 66 63 59 55 52 44 35 29 30 28 29 28 27 29 24 22 19 17 15 13 12 11 12 14 14 14 15 16 17 18 17 17 19 20 20 19 20 19 17 13
101 97 94 87 81 77 72 70 66 64 60 56 48 41 36 35 33 35 31 33 31 25 22 20 17 15 14 13 11 12 13 14 15 16 17 17 18 18 19 19 19 19 18 16 15 12 10
88 96 92 85 81 84 79 73 72 69 65 60 52 44 40 38 37 39 38 37 33 27 24 22 19 16 15 14 15 17 17 18 18 18 19 20 20 19 19 19 18 16 15 15 14 13 12
74 85 89 87 81 84 86 81 75 74 68 62 55 49 45 41 40 43 42 39 35 30 27 23 18 15 15 18 20 21 21 21 20 20 20 20 20 19 19 17 15 15 15 15 15 16 13
70 84 90 88 81 77 81 85 83 77 71 66 58 52 48 44 44 46 44 40 36 32 28 21 17 14 15 16 17 18 18 18 18 19 18 17 14 14 15 16 17 17 17 17 18 18 17
79 91 96 89 85 79 77 84 86 80 75 67 62 55 47 46 50 51 47 41 37 33 28 24 16 11 10 11 13 15 15 17 18 18 18 16 14 15 16 18 19 19 20 19 20 21 23
85 99 96 93 87 83 73 84 80 79 76 69 64 59 51 50 53 53 50 45 39 32 29 24 16 9 8 10 11 10 12 14 15 16 17 16 14 16 17 17 20 21 21 21 22 24 26
87 99 91 97 98 92 85 82 76 77 74 69 64 60 54 53 57 56 49 45 40 35 29 23 16 10 7 5 8 8 8 10 13 16 17 17 15 17 17 19 22 23 19 24 27 28 31
93 86 82 83 83 84 86 80 72 70 67 66 63 60 57 56 60 56 50 46 42 37 29 24 18 12 7 3 2 5 7 8 10 13 15 15 17 18 19 22 26 22 24 27 31 33 37
88 60 59 71 82 91 79 73 69 64 63 62 59 56 58 58 61 56 52 48 44 39 33 26 20 15 9 5 3 1 1 5 8 10 13 15 18 20 22 23 24 26 28 29 33 35 39
66 63 66 85 82 77 72 67 63 62 60 57 56 52 57 57 61 56 52 49 46 41 34 29 23 18 14 10 7 4 3 3 4 6 10 13 17 19 21 23 23 25 26 29 33 36 38
67 71 75 69 66 66 61 60 59 57 54 51 51 52 56 56 58 56 53 50 46 42 35 30 25 21 17 14 12 10 10 9 9 10 12 15 18 20 22 26 28 30 31 33 36 41 42
72 72 68 67 59 56 55 54 54 51 48 45 48 50 55 57 57 56 52 49 44 40 35 31 29 24 21 19 17 16 15 15 16 17 18 21 23 25 27 30 34 35 38 41 43 44 45
65 61 60 58 57 54 53 51 48 46 43 41 44 49 51 55 56 53 51 47 43 40 36 34 31 28 26 23 20 21 21 21 22 24 25 26 29 31 31 33 38 42 45 45 45 44 43

GFSGBSN_500_spd_021.txt.gz
Wind_Speed
52 49 48 47 46 45 42 40 41 40 36 32 30 32 34 35 37 38 36 34 28 26 29 30 19 13 14 12 14 12 7 9 10 13 14 12 11 17 17 19 15 18 17 18 16 12 10
52 52 49 48 47 46 44 42 41 39 36 33 30 31 33 36 37 38 34 31 27 26 31 20 14 12 13 13 12 10 9 10 12 13 15 15 14 23 23 23 17 17 17 17 11 14 11
53 52 53 48 48 47 45 44 42 39 36 33 31 31 32 34 36 37 34 29 28 28 28 13 10 12 12 14 12 8 9 12 13 18 12 14 15 23 19 17 19 22 19 7 17 12 6
56 53 51 51 47 47 46 46 44 40 38 35 32 31 31 32 36 34 32 29 25 28 18 11 10 11 10 10 9 9 9 11 10 8 9 12 17 22 21 21 21 20 17 10 9 15 9
61 57 54 53 51 48 48 47 45 42 36 32 31 31 32 33 34 33 29 25 23 19 13 11 9 9 10 10 7 9 10 8 6 9 11 19 21 25 23 21 15 18 9 10 9 12 11
65 62 58 55 54 52 50 48 45 41 33 29 30 31 33 32 32 30 26 23 15 13 11 11 10 8 11 10 10 10 10 9 14 13 15 25 32 23 25 19 13 4 7 11 8 13 14
67 64 60 57 54 51 51 47 44 40 36 29 30 31 32 32 30 28 22 21 14 11 8 8 8 10 11 10 13 13 15 15 13 19 18 29 31 26 19 19 5 6 6 8 10 10 15
68 66 62 57 57 53 50 47 45 43 39 34 31 31 32 31 27 26 20 19 16 11 12 7 8 12 13 11 13 16 22 19 19 20 19 22 10 7 14 17 16 6 7 12 7 8 12
71 69 68 63 57 54 52 53 48 47 44 39 34 33 32 31 23 22 19 20 18 14 16 16 14 16 18 13 15 16 23 15 14 13 13 24 19 13 16 12 7 7 10 13 4 4 6
77 74 70 67 64 60 57 54 51 49 48 43 37 36 33 32 21 20 18 20 18 17 15 14 14 15 16 17 22 22 27 18 14 13 17 13 22 23 20 16 12 8 9 7 7 5 7
82 79 76 73 70 66 61 57 54 50 47 43 41 39 35 31 22 22 17 21 19 17 13 14 12 9 12 17 19 21 26 22 9 16 24 10 10 6 3 6 8 15 5 16 13 7 14
87 84 81 77 73 70 64 59 56 50 47 46 45 41 36 29 25 22 18 22 20 15 14 9 9 9 14 19 20 23 23 24 21 15 15 19 10 12 9 6 9 7 9 9 14 9 15
91 90 87 84 79 75 69 62 59 49 45 46 47 43 38 33 29 23 20 25 21 15 10 13 13 12 13 16 21 20 21 23 16 16 17 9 13 13 8 12 11 12 9 5 10 14 14
96 92 91 88 84 79 73 66 61 53 48 47 50 46 41 34 30 24 23 26 22 14 16 16 16 15 15 18 19 22 20 16 22 15 13 13 12 19 16 13 9 10 11 12 12 12 8
105 98 92 89 85 82 75 69 63 55 51 51 53 48 44 36 33 28 26 27 15 17 17 17 18 17 16 17 18 17 19 14 14 17 16 11 20 13 15 14 13 15 17 20 19 19 19
109 106 98 90 87 82 75 71 64 57 52 56 54 50 46 39 36 31 29 23 22 22 19 21 18 16 15 14 14 16 17 20 19 17 22 17 17 18 15 16 16 18 19 17 19 22 19
105 103 104 94 86 84 79 72 68 61 58 62 58 55 50 42 40 35 30 27 24 25 23 23 20 19 17 15 15 14 14 15 15 15 15 17 17 19 17 17 17 19 19 19 20 19 17
94 101 102 100 89 84 81 76 71 65 67 62 63 59 54 47 45 35 31 32 30 30 27 25 23 21 18 17 15 14 14 17 16 15 17 19 19 21 17 19 19 19 19 20 19 19 16
72 82 92 98 94 90 87 83 75 70 67 65 64 63 56 50 48 38 35 37 37 35 30 27 25 21 18 16 15 16 18 16 18 19 21 20 21 22 22 21 19 18 18 18 19 19 17
60 72 85 92 96 90 93 91 82 75 72 73 71 67 60 52 48 42 40 40 41 38 34 30 27 22 19 17 17 19 22 23 23 24 24 24 22 21 19 15 17 17 18 19 20 18 17
49 60 73 92 93 91 94 94 90 79 78 80 75 69 59 53 54 45 42 43 43 41 36 32 27 21 17 17 19 21 21 21 22 22 22 21 19 18 18 17 17 18 18 20 20 18 23
52 60 64 89 99 97 98 97 94 89 86 81 76 70 63 55 54 49 48 50 45 41 36 33 26 21 18 17 17 17 19 19 18 19 19 19 18 18 18 17 17 19 19 19 20 21 24
49 59 55 80 103 103 100 95 95 88 86 81 76 69 64 58 57 52 50 53 47 44 38 36 29 22 18 15 15 15 14 14 16 18 19 20 19 19 17 16 18 17 17 20 23 24 28
50 48 56 83 103 101 97 97 98 83 84 80 76 73 68 60 56 54 55 53 49 44 39 36 30 23 15 12 10 11 12 11 13 16 19 18 19 19 16 19 21 17 19 23 26 27 31
46 48 58 94 96 88 97 97 93 76 84 81 76 70 68 62 56 58 55 55 50 47 43 38 30 24 18 12 8 7 7 10 11 12 13 15 17 18 19 20 21 20 22 23 27 28 35
46 49 80 105 76 80 96 87 80 75 81 73 73 70 68 61 58 56 59 57 55 49 43 39 33 27 21 16 11 7 6 6 6 7 10 12 14 16 17 18 19 20 21 23 26 30 34
47 69 103 62 79 87 83 85 81 77 73 70 70 68 69 60 57 58 59 59 54 51 46 38 33 29 24 20 15 12 9 7 6 6 8 9 11 13 16 18 20 23 25 27 31 36 38
89 72 59 57 67 84 84 77 72 70 68 63 63 63 57 58 56 57 61 58 56 53 47 40 36 33 28 23 19 16 13 12 11 11 12 14 17 18 21 23 27 28 32 33 36 39 41
42 52 67 71 82 59 64 76 72 68 61 58 55 57 53 54 55 57 58 58 55 53 47 41 38 34 31 29 24 20 18 16 16 17 18 21 23 25 26 29 33 35 36 39 41 42 43

GFSGBSN_500_spd_024.txt.gz
Wind_Speed
53 52 51 49 48 46 44 43 42 41 38 37 35 32 30 28 31 28 31 35 37 37 37 35 35 27 14 12 14 17 12 7 7 8 7 7 10 11 10 11 19 20 17 16 15 11 11
56 54 53 52 49 47 46 44 43 41 39 38 35 31 29 28 30 27 29 34 34 36 35 34 29 18 11 13 15 15 11 8 9 7 8 8 8 17 14 10 9 18 22 23 22 18 14
59 57 55 54 52 49 47 46 44 41 40 39 36 31 29 29 31 27 28 32 32 34 30 30 22 13 11 12 14 11 9 8 10 8 8 11 12 12 18 14 17 18 24 19 17 17 9
61 60 57 55 54 52 48 46 44 41 41 39 36 33 29 29 30 28 28 30 29 30 26 23 18 14 13 12 9 5 8 10 9 9 7 13 13 14 18 22 22 17 17 13 12 13 12
65 64 61 58 55 53 51 46 44 41 41 39 36 33 29 27 29 29 26 29 27 26 23 20 15 12 12 8 6 8 7 10 6 6 7 12 11 14 20 16 14 18 16 14 2 6 1
68 67 64 61 58 56 54 49 44 42 42 39 36 32 28 26 28 29 25 27 25 25 20 18 11 9 9 7 9 8 7 7 6 6 6 11 19 24 22 21 10 12 11 11 4 3 10
70 69 67 64 61 58 55 51 48 45 43 40 36 31 28 27 28 28 25 25 23 23 20 17 12 7 6 4 7 10 8 11 7 8 10 14 23 24 20 12 5 2 9 6 9 9 13
73 70 69 66 63 58 56 52 51 47 43 40 36 33 29 28 28 28 25 24 22 20 21 21 17 13 10 5 8 12 10 12 7 13 12 17 24 17 11 14 7 5 4 12 16 9 14
74 73 71 68 65 61 58 55 51 48 42 39 36 36 34 32 29 28 25 24 20 20 19 22 20 19 15 10 9 8 11 11 10 16 10 15 17 13 10 9 15 10 10 13 6 3 10
80 74 72 69 67 63 58 55 54 52 46 42 39 39 38 36 33 28 27 23 19 20 20 25 20 18 15 10 11 14 11 17 8 11 12 18 14 15 7 10 7 14 17 15 7 4 5
80 78 74 70 67 65 62 56 55 50 48 43 43 42 41 37 36 32 24 23 20 19 22 25 17 13 8 7 10 16 23 9 1 13 4 10 13 7 11 17 17 9 13 7 3 10 17
85 84 80 74 69 66 63 60 56 54 51 46 44 43 41 38 41 34 28 24 21 20 19 22 17 6 8 10 12 14 18 21 13 16 10 13 13 11 17 12 6 5 3 6 14 13 19
90 87 84 81 75 71 67 63 58 56 55 51 45 42 41 42 45 38 31 25 24 20 18 21 13 10 8 10 13 17 17 25 18 6 4 12 8 10 5 6 7 10 7 4 13 13 16
94 91 88 85 81 76 72 68 62 60 56 51 47 42 42 46 45 40 33 30 27 15 19 16 13 10 10 11 15 20 16 14 18 14 8 10 10 12 13 9 16 6 12 15 16 5 5
102 99 92 88 85 80 76 72 67 64 61 54 46 42 42 48 46 42 37 35 21 15 16 16 15 14 13 14 14 16 15 11 7 13 19 18 22 19 9 13 15 4 16 15 13 10 11
109 104 101 95 88 83 79 76 72 69 63 56 48 43 46 50 49 46 42 35 21 21 19 19 19 16 15 15 16 14 15 13 19 19 22 24 9 5 9 13 12 13 13 13 16 18 16
109 109 106 100 96 89 83 78 75 71 65 57 50 47 53 53 52 50 45 31 24 25 26 26 20 15 16 14 13 13 13 14 20 16 19 16 9 13 11 12 13 14 16 15 17 18 16
94 108 104 104 98 94 86 81 75 72 67 62 53 50 56 57 56 51 47 31 29 28 27 24 25 18 22 18 16 14 14 12 18 18 19 20 21 21 11 17 12 16 16 16 20 18 21
62 81 90 101 101 94 91 85 78 73 69 62 56 57 60 60 56 51 45 33 35 32 32 29 26 26 25 25 22 21 21 24 14 19 20 21 17 17 16 16 13 16 17 18 20 17 15
38 53 74 85 96 98 93 89 83 76 70 62 61 64 62 57 56 55 43 39 38 34 36 33 29 27 26 23 20 20 22 19 17 20 20 23 19 20 19 13 18 13 19 19 19 17 15
37 42 53 77 87 90 90 92 88 81 74 69 69 63 64 58 57 57 47 44 41 39 41 37 32 30 26 23 21 19 23 20 21 21 24 24 23 23 21 18 22 23 19 18 19 17 20
40 45 49 64 86 94 90 90 91 87 82 78 63 64 63 60 57 55 47 44 44 41 43 37 33 31 26 24 22 20 23 20 20 21 21 20 21 20 18 20 20 20 18 18 19 18 20
47 44 47 61 77 98 100 92 92 90 93 80 65 68 66 64 61 53 50 47 46 45 43 36 31 31 27 28 24 20 19 18 21 18 20 20 21 20 20 19 19 17 15 18 18 20 23
47 43 43 57 69 94 107 103 95 93 91 80 69 72 71 66 63 54 51 51 46 48 38 41 35 33 34 23 19 19 18 18 19 19 21 20 22 21 21 19 19 17 15 17 19 22 27
43 38 45 55 61 89 107 107 97 88 81 84 83 73 62 71 59 57 54 52 46 49 35 43 40 40 29 23 19 17 16 18 18 17 18 20 21 20 22 21 18 17 18 17 22 24 29
44 41 41 46 55 83 107 102 102 90 85 85 79 74 64 67 55 54 55 55 52 53 44 50 43 38 32 25 19 16 13 13 14 14 14 15 17 19 18 19 20 19 18 19 21 25 26
42 40 43 43 45 80 106 100 96 92 83 84 70 55 54 64 52 57 54 57 52 60 52 47 44 41 34 27 22 18 14 12 10 9 11 13 14 14 14 15 14 17 16 21 24 27 31
38 37 46 47 49 84 102 100 86 89 88 77 67 58 40 57 61 54 51 54 55 55 53 49 46 43 36 30 26 21 18 15 12 12 13 12 12 12 15 16 19 21 24 25 28 31 33
37 36 42 49 71 98 103 90 91 86 82 61 52 69 45 31 46 61 55 55 57 60 55 48 44 40 35 33 30 25 22 19 17 15 16 17 16 17 18 21 24 27 27 30 32 34 38

GFSGBSN_500_spd_027.txt.gz
Wind_Speed
56 55 55 54 53 51 49 47 45 42 40 39 36 34 36 33 28 24 25 28 29 31 32 35 38 36 27 18 13 14 16 12 6 5 6 5 7 8 11 16 24 19 18 5 18 12 9
59 57 56 55 53 52 51 49 47 44 42 39 38 35 36 33 29 25 25 28 28 30 30 33 35 31 22 15 13 17 14 10 5 6 4 6 11 16 16 21 17 11 16 8 9 18 4
61 60 58 56 56 54 52 51 50 47 43 41 38 35 36 32 30 26 24 27 27 29 27 31 30 25 20 17 16 13 8 8 6 6 6 10 6 15 21 25 22 17 19 18 15 17 16
65 65 63 60 59 57 55 54 53 48 44 42 38 37 36 31 29 26 25 26 26 27 24 27 24 21 16 14 12 8 8 8 8 9 10 17 7 15 15 16 14 19 20 17 17 12 13
72 69 66 64 62 58 57 55 54 49 45 42 38 38 35 30 27 24 25 26 26 25 22 24 20 18 15 10 9 9 9 8 11 5 6 9 11 9 11 16 16 15 10 12 6 7 3
74 74 72 68 64 61 58 57 53 50 47 43 39 39 34 29 25 23 25 26 26 23 21 22 18 19 15 10 9 7 9 10 13 3 1 6 7 11 15 12 11 13 15 12 9 5 6
76 75 73 69 65 64 61 59 55 50 47 42 40 38 33 28 25 23 25 26 25 20 20 20 18 18 16 13 10 8 8 6 10 5 2 10 10 11 9 15 15 13 9 6 11 4 8
76 75 73 71 68 66 63 61 58 53 51 46 41 38 32 28 27 26 26 26 23 22 18 19 17 17 18 14 14 13 5 4 10 4 8 11 16 13 13 10 14 16 11 10 10 6 7
74 74 73 72 70 66 65 62 61 56 53 48 44 39 34 32 30 29 28 27 26 22 18 20 18 18 19 14 17 15 1 4 7 7 8 5 11 14 18 13 12 7 8 16 13 11 10
74 70 72 73 69 70 67 63 60 58 54 50 44 40 37 34 33 32 31 27 27 23 22 20 18 18 16 13 14 14 7 5 6 11 3 9 11 14 17 17 8 7 11 13 16 12 13
80 78 74 71 67 65 66 63 62 59 56 52 46 43 40 37 36 33 30 30 28 26 23 22 16 17 13 10 17 12 13 8 3 8 8 11 13 17 13 16 15 4 5 4 10 3 3
85 82 80 76 72 65 62 61 61 60 55 52 48 46 42 38 39 37 35 33 31 28 22 21 18 17 9 11 15 19 12 11 10 2 5 5 11 10 9 11 12 6 4 8 15 19 17
89 87 84 82 77 72 67 62 59 58 53 53 50 46 42 42 41 38 36 36 34 30 23 22 19 14 9 12 16 17 17 20 18 5 6 5 11 7 10 6 9 11 10 13 13 18 18
99 93 88 86 81 77 73 67 62 58 55 56 53 49 45 41 41 36 38 38 37 28 21 23 21 13 11 14 14 14 14 19 18 15 11 11 12 14 13 6 6 6 11 16 17 17 20
107 102 95 91 88 81 77 71 67 63 59 58 57 56 46 41 41 40 41 40 33 24 21 20 21 13 15 15 12 14 20 14 18 20 19 17 19 22 19 17 15 10 16 19 14 13 7
108 107 102 96 92 88 81 75 71 68 65 60 56 50 47 45 44 44 42 39 36 25 26 22 21 14 16 14 11 12 15 13 15 14 23 21 20 24 22 13 9 11 14 15 17 15 10
81 93 104 98 96 94 87 79 74 72 69 65 61 56 50 50 49 49 48 39 33 30 30 26 19 18 17 11 10 16 11 12 17 20 21 16 19 18 8 12 10 13 16 17 18 18 16
43 62 84 93 95 96 93 85 77 74 72 70 65 61 55 53 53 50 43 38 33 34 34 29 24 24 18 18 13 16 13 14 15 20 20 19 17 16 12 9 9 13 14 16 17 16 20
51 47 53 78 86 94 95 92 84 77 73 72 67 61 60 56 52 49 44 41 38 38 37 31 25 26 25 29 29 14 17 19 19 18 15 16 17 15 15 17 16 17 16 17 19 16 15
48 45 45 54 84 89 93 93 89 81 77 72 70 68 62 59 47 48 46 45 41 42 39 32 29 27 30 30 16 21 26 25 21 20 21 20 21 20 19 17 20 19 17 16 21 22 14
45 44 36 49 77 89 91 95 92 86 80 77 73 67 61 56 54 53 53 46 44 46 41 34 36 34 34 33 33 33 30 24 19 18 20 24 25 24 24 21 23 23 16 15 16 18 17
43 41 38 32 59 90 95 98 94 89 84 83 74 63 58 49 51 55 57 49 47 47 42 37 40 39 36 32 31 29 26 24 21 22 25 26 27 27 25 24 24 23 16 20 19 16 17
44 44 37 31 37 74 94 99 94 92 92 87 73 62 57 53 55 58 56 47 45 46 41 38 38 38 38 35 32 29 26 23 21 21 23 24 24 24 21 22 22 19 15 19 17 18 20
42 47 42 38 38 57 86 101 99 97 93 85 73 68 62 57 59 55 49 47 48 49 45 41 39 39 42 35 32 28 24 22 20 19 23 20 24 24 22 23 23 18 16 16 17 20 22
44 44 48 44 43 46 71 96 103 99 92 85 76 73 65 59 56 59 50 44 50 49 48 42 45 42 41 36 33 28 26 23 21 23 21 21 23 24 24 24 20 19 17 16 19 23 23
47 49 50 49 46 47 59 85 102 102 95 85 81 76 69 62 57 56 52 50 55 53 51 48 46 46 44 38 34 30 23 19 21 21 20 19 21 23 22 21 21 21 20 19 23 25 21
46 43 46 45 42 44 57 80 100 101 93 85 83 75 67 58 59 53 57 52 54 53 49 45 48 47 42 39 33 28 23 22 19 15 17 18 17 17 17 18 18 18 17 19 19 20 21
37 38 40 40 41 45 57 74 98 99 91 85 81 76 68 57 40 51 53 53 55 53 52 45 47 49 45 42 37 30 25 21 18 16 14 13 12 12 12 13 15 15 17 18 21 23 25
36 35 31 37 37 44 52 75 98 96 87 82 78 69 51 35 38 41 53 55 52 52 54 46 46 38 40 42 37 32 27 24 21 18 17 15 15 14 15 16 17 18 19 20 23 26 31

GFSGBSN_500_spd_030.txt.gz
Wind_Speed
58 58 57 56 54 53 52 52 50 49 47 44 41 38 36 35 33 31 28 26 25 25 27 30 31 30 30 21 19 16 17 16 12 6 6 3 7 14 20 22 24 23 19 12 15 8 2
62 61 61 59 57 56 55 55 53 51 48 46 43 40 37 36 33 31 29 25 25 24 27 29 28 27 27 18 18 17 14 10 8 6 6 6 5 9 17 22 24 21 22 11 9 6 3
66 65 65 61 60 60 57 56 55 52 49 46 45 42 40 37 34 31 28 25 23 22 27 26 26 23 23 18 17 13 6 7 9 7 7 4 6 11 13 19 26 20 17 9 4 6 6
68 69 68 68 67 65 62 60 57 53 49 47 45 44 41 38 34 31 27 25 21 21 25 25 24 21 20 19 15 11 9 7 9 9 9 9 4 7 11 15 19 9 17 11 6 8 5
69 70 71 70 68 69 68 61 59 55 53 49 46 42 41 39 34 32 28 24 19 22 23 23 22 20 18 18 13 10 9 6 11 8 8 11 12 11 14 19 16 18 14 10 8 6 3
73 71 72 72 72 71 68 65 62 60 58 52 48 43 41 39 35 32 27 24 18 22 23 20 20 18 16 17 15 12 9 7 9 3 4 5 10 10 13 15 12 13 10 17 14 7 11
74 74 74 74 73 72 72 69 65 62 57 54 49 46 45 40 35 30 26 23 21 21 22 19 20 17 16 16 14 15 12 7 6 3 3 4 6 13 13 13 9 14 17 18 12 9 7
71 75 75 75 74 75 72 69 66 64 57 53 51 46 42 36 32 30 27 26 23 21 21 19 20 18 17 16 15 14 12 8 2 2 2 4 7 13 14 14 19 16 15 15 10 5 4
69 67 69 73 74 73 72 70 66 62 58 53 50 47 40 38 35 29 33 28 21 25 21 21 21 19 18 15 15 13 10 3 5 1 4 3 7 9 7 20 17 12 18 16 11 5 3
73 71 68 66 68 69 69 67 65 60 57 55 52 47 46 42 36 33 33 29 27 28 23 21 22 20 16 16 14 14 11 10 6 3 5 3 9 9 15 19 18 13 14 13 12 12 12
78 76 73 70 66 64 63 65 63 60 58 56 52 49 46 43 38 36 37 32 31 26 27 21 20 18 18 15 14 13 13 12 8 2 4 5 9 16 18 20 16 6 12 13 10 15 11
84 80 77 74 70 67 64 61 60 60 57 55 53 48 45 43 39 41 37 34 33 30 27 22 20 19 17 15 11 17 13 16 11 7 6 4 9 13 14 16 15 7 10 10 11 13 16
90 86 82 78 76 70 68 64 61 58 55 55 55 50 47 46 42 41 36 38 36 36 24 22 19 18 16 14 13 17 14 21 15 7 11 9 9 17 17 18 15 11 12 12 15 19 21
95 92 87 84 79 75 73 68 63 61 56 52 51 51 47 45 47 43 41 40 40 31 27 26 22 21 18 14 14 16 17 25 21 16 12 15 15 15 13 16 16 16 16 17 21 19 16
97 95 92 87 83 80 77 72 67 64 62 57 53 53 49 46 48 43 42 44 37 32 26 26 26 25 20 14 15 16 18 23 22 23 18 15 18 15 14 16 14 12 11 16 20 17 15
77 85 91 91 86 85 81 76 72 67 65 64 59 55 52 52 49 48 46 41 39 31 27 30 27 25 20 15 16 17 20 21 22 24 23 16 17 16 17 20 19 14 18 18 18 18 14
52 57 71 78 87 86 83 81 77 72 69 68 66 61 55 57 58 53 51 45 39 31 32 33 29 27 20 20 16 18 16 16 19 23 23 21 17 19 15 14 19 15 18 20 17 18 16
55 49 47 57 71 78 86 86 82 77 74 71 70 67 61 64 65 60 53 48 40 35 38 36 32 28 24 19 20 22 20 18 21 24 18 15 16 21 11 10 15 17 17 18 19 17 20
58 54 49 48 47 70 79 86 87 82 79 76 71 69 70 69 64 60 56 52 42 40 40 39 33 31 25 26 24 19 19 18 20 20 18 14 18 19 21 16 17 18 18 20 23 23 22
60 58 53 51 48 50 80 84 91 88 85 81 78 77 73 73 60 54 56 49 43 39 41 40 35 32 28 30 28 27 23 22 23 20 18 19 21 18 16 15 20 22 20 23 23 22 22
53 51 51 50 48 44 67 93 99 94 91 88 87 80 71 70 66 59 57 52 46 48 46 44 41 33 31 33 31 29 30 23 23 22 23 23 21 21 20 20 21 26 25 21 27 24 21
51 47 46 46 49 46 45 92 102 99 96 95 91 79 71 64 61 60 55 53 51 49 48 46 38 33 34 34 32 32 25 23 27 26 25 24 25 25 26 26 28 30 29 23 22 23 26
49 46 45 43 44 44 45 54 98 101 102 99 90 78 71 67 65 62 56 52 50 48 49 46 40 37 38 37 35 34 29 27 27 27 26 26 29 30 30 30 32 31 23 24 24 24 25
48 47 45 42 43 45 47 55 79 102 104 97 89 80 74 67 64 59 53 49 52 47 50 48 43 39 39 43 40 33 35 33 30 29 28 25 24 26 28 29 32 22 25 24 23 23 22
47 47 44 42 41 44 43 46 67 93 103 97 92 85 74 68 61 58 58 57 51 48 53 47 44 38 40 45 43 41 39 38 34 30 27 26 26 25 26 26 27 23 24 23 22 23 22
45 46 45 45 43 44 43 44 60 84 101 96 91 84 76 67 59 59 61 59 51 54 54 52 49 45 46 45 46 41 40 38 34 27 25 24 26 27 25 24 26 21 21 24 23 24 21
44 44 44 45 44 43 41 38 54 76 98 95 91 85 77 66 59 59 61 58 49 57 56 54 53 49 47 46 46 43 42 39 33 27 23 25 25 25 24 23 23 19 22 24 25 21 21
45 44 45 46 46 44 39 34 53 75 95 97 88 82 73 64 60 59 62 56 53 55 56 55 51 50 49 48 46 45 40 36 31 25 23 24 21 20 19 18 16 16 20 21 19 18 20
41 42 45 47 45 43 38 32 49 72 91 94 90 75 67 39 55 62 62 57 54 50 56 55 50 48 45 43 46 44 41 36 31 26 26 23 19 18 16 14 16 16 15 15 16 19 23

GFSGBSN_500_spd_033.txt.gz
Wind_Speed
56 58 58 56 54 52 52 52 52 52 51 49 48 47 44 40 38 35 34 32 28 26 23 24 26 29 31 31 28 23 18 14 10 8 10 12 8 8 14 14 16 11 16 12 15 8 13
60 57 60 61 59 58 56 52 52 52 51 50 49 47 45 43 39 37 35 33 29 26 21 23 25 27 28 27 25 21 16 9 11 8 8 7 5 5 9 16 15 15 12 9 17 10 12
63 63 61 61 63 62 60 57 55 55 54 53 51 50 47 44 42 38 36 34 30 27 21 23 25 25 26 25 22 19 12 11 13 9 9 8 3 8 6 11 18 18 14 18 8 13 4
70 71 67 64 62 65 63 62 60 57 55 55 54 51 49 44 43 39 36 34 30 27 22 23 25 24 25 22 20 17 11 11 10 13 8 9 8 2 8 7 16 12 11 14 3 2 6
67 67 71 68 66 63 64 64 62 61 61 59 56 54 49 45 43 39 37 33 30 27 23 22 23 23 24 21 20 15 15 11 11 13 8 9 10 7 11 11 17 11 15 21 8 6 5
68 69 70 73 70 68 65 64 63 64 63 62 61 58 55 52 46 41 38 35 32 26 24 21 22 22 23 22 18 17 13 13 12 8 5 4 4 8 11 11 17 14 14 18 10 9 14
67 69 72 72 74 71 69 65 65 63 64 63 60 57 55 55 50 44 40 38 32 25 23 23 22 22 24 23 19 19 11 11 10 4 3 4 6 9 14 17 18 12 16 15 12 12 12
67 66 68 73 74 75 72 69 66 66 64 63 62 57 55 54 50 48 46 41 30 24 25 24 23 22 23 22 19 18 11 8 7 3 3 5 5 7 13 14 11 19 17 18 11 7 6
71 69 69 67 67 73 74 70 69 65 64 63 62 56 54 50 49 41 40 39 28 29 28 27 24 23 24 22 18 18 11 4 6 3 4 6 7 6 9 11 20 20 18 16 15 8 4
78 74 71 70 68 65 66 69 69 68 63 61 59 57 55 50 44 40 37 36 31 32 31 27 25 23 21 21 17 16 9 8 10 3 6 9 9 6 7 18 14 17 19 18 15 9 8
87 81 76 73 71 69 65 63 63 65 64 62 57 53 50 48 39 36 33 35 32 30 34 28 27 22 21 20 19 13 9 12 11 10 8 8 10 10 17 21 13 12 16 17 13 11 10
93 88 83 78 74 73 69 66 63 60 61 60 57 53 50 45 42 37 35 36 34 34 38 28 26 23 20 22 18 14 10 15 17 17 8 8 10 15 17 22 16 7 13 18 14 10 12
97 92 87 83 79 75 74 70 66 62 60 58 56 53 50 44 41 40 39 39 39 40 32 32 26 25 23 21 19 13 11 14 17 19 10 10 11 10 18 15 21 17 14 13 16 15 13
93 97 92 87 83 80 78 74 70 66 62 59 57 54 50 45 45 43 41 40 41 39 36 31 28 27 21 23 20 13 14 17 23 23 17 17 13 13 16 15 17 17 20 20 18 19 18
56 71 89 92 87 83 81 78 73 70 67 63 60 57 53 48 49 47 47 44 38 40 35 34 34 33 26 25 22 17 15 16 23 22 21 22 21 20 18 17 22 19 18 19 22 21 19
59 52 63 77 89 86 83 81 78 75 70 67 64 60 54 51 54 52 51 43 40 41 36 38 37 33 27 25 23 18 17 17 21 23 27 22 19 22 21 20 21 18 20 22 22 22 18
65 59 50 64 73 82 85 84 82 80 76 72 70 66 57 56 56 56 50 46 43 42 41 40 41 38 28 26 19 19 17 16 19 20 28 31 27 24 22 19 19 20 24 24 23 23 21
65 60 53 48 68 78 79 86 86 84 82 80 75 70 64 64 64 54 48 49 47 41 45 43 43 39 29 25 22 22 20 21 25 25 25 29 27 23 21 19 23 19 25 26 27 22 24
64 64 57 51 51 68 84 83 90 89 86 84 78 75 73 72 67 50 50 50 46 43 45 45 43 41 32 30 25 23 25 25 25 24 21 20 22 22 19 23 19 14 14 20 24 24 24
68 64 64 54 50 52 73 87 90 93 91 88 85 85 78 79 60 55 53 50 50 45 45 47 46 43 35 31 28 23 28 30 25 23 24 24 24 23 18 18 22 25 22 21 25 27 23
74 62 62 63 53 50 52 78 92 96 96 95 93 89 77 74 64 57 56 54 52 51 52 50 49 45 38 32 31 25 29 28 25 24 22 20 23 21 19 20 21 23 23 24 23 23 25
70 61 59 59 58 53 54 50 76 95 100 101 98 90 83 71 65 61 59 54 54 55 56 55 51 45 39 34 32 25 31 28 23 23 22 22 22 23 25 24 25 26 27 29 26 26 30
63 61 60 58 58 56 53 52 52 71 89 108 97 92 85 75 69 68 55 51 50 55 53 51 45 41 39 32 30 30 31 29 29 28 25 22 23 23 24 27 30 31 28 30 33 33 31
61 61 57 56 55 55 52 55 53 50 66 98 98 92 89 81 74 61 59 56 52 47 52 49 49 47 42 38 36 36 35 32 31 32 27 24 26 27 30 32 35 29 29 29 30 30 30
58 56 55 54 54 54 53 53 51 48 43 75 97 96 92 86 74 70 63 59 56 51 54 47 50 46 43 42 39 41 40 38 41 36 30 28 28 29 33 32 32 27 25 26 27 28 26
57 53 52 50 53 52 54 51 47 45 40 51 89 96 94 88 78 73 68 64 60 54 54 50 57 55 50 49 47 48 45 42 39 35 32 29 29 31 33 34 32 21 26 25 27 29 24
55 50 48 50 51 51 51 52 48 46 42 43 72 93 91 88 83 78 71 66 62 57 56 54 59 58 55 53 50 48 50 46 44 36 30 29 32 33 33 33 28 22 25 28 29 19 22
51 45 44 50 49 49 47 46 45 42 39 44 74 88 89 85 83 77 74 68 62 62 61 58 62 60 58 55 50 50 51 46 43 40 34 31 33 33 31 29 26 21 24 22 19 20 21
46 43 43 49 49 46 45 44 40 40 38 48 75 88 88 82 80 74 70 65 61 61 57 61 62 61 59 54 52 50 48 43 40 41 35 33 31 29 28 24 21 18 16 14 14 17 20

GFSGBSN_500_spd_036.txt.gz
Wind_Speed
52 53 52 52 52 53 51 50 48 48 48 48 47 45 44 43 44 42 41 38 36 33 32 30 26 28 28 29 32 32 32 29 17 18 14 10 10 13 10 4 11 13 7 5 10 2 5
58 54 58 56 55 53 54 54 52 52 49 47 47 46 44 45 42 43 40 39 37 35 31 30 26 28 29 29 30 30 30 25 15 17 13 10 4 5 8 4 9 6 8 8 9 7 9
63 61 57 59 60 58 56 54 54 57 55 51 50 48 45 43 45 44 42 40 39 36 32 29 27 29 28 29 28 29 28 21 16 16 15 10 5 3 5 3 10 7 7 11 14 10 9
67 66 65 62 63 62 60 59 56 56 57 56 54 51 47 44 49 45 43 43 40 37 32 29 27 29 27 27 27 28 28 22 20 18 15 9 6 6 4 4 9 10 5 6 6 7 9
70 68 66 67 66 66 67 66 64 60 58 57 58 54 53 50 48 47 48 46 40 40 33 28 28 28 27 25 25 26 27 21 20 17 13 7 7 7 6 8 9 9 11 12 8 7 5
66 67 65 67 68 69 67 66 64 65 61 58 56 57 55 50 51 53 52 49 44 41 34 29 26 29 26 24 23 25 26 22 17 18 9 3 2 4 6 8 13 13 14 16 10 4 6
70 69 66 64 66 68 68 67 65 64 64 60 58 55 55 56 52 50 47 49 46 43 34 32 28 29 25 24 23 23 23 22 14 14 8 1 2 2 6 7 9 14 12 16 7 12 10
76 73 71 70 65 63 67 67 65 64 64 62 60 59 56 57 52 51 46 42 41 47 37 36 30 28 26 24 22 22 21 19 11 5 3 4 4 5 11 8 10 13 10 7 14 14 12
84 81 76 72 70 66 63 62 66 65 64 60 61 60 58 56 55 47 45 42 39 42 45 35 30 29 26 24 22 21 19 17 10 7 6 3 0 3 7 7 13 16 16 14 16 11 12
92 88 83 79 74 71 67 63 61 61 65 62 58 58 62 55 54 50 46 38 37 35 36 33 33 30 25 23 21 20 17 15 13 10 7 6 4 4 4 8 11 15 16 17 17 11 11
99 94 89 85 80 76 71 68 64 61 58 60 60 56 59 60 47 48 42 34 35 38 35 35 36 30 25 24 23 17 17 16 17 14 10 9 8 8 10 12 12 13 16 15 12 11 10
101 102 95 88 85 81 78 73 69 64 61 57 56 57 56 56 46 47 41 35 32 38 37 32 34 30 27 25 22 20 14 18 21 19 12 11 12 11 10 17 15 13 14 13 14 15 13
70 77 82 90 87 86 82 79 74 69 65 61 58 56 54 49 38 46 40 37 32 29 32 31 27 28 28 27 25 20 14 17 17 20 17 15 12 10 14 17 19 14 8 11 16 19 17
65 62 59 66 77 87 85 83 79 75 70 65 61 58 54 48 45 45 44 41 39 32 37 32 33 31 31 28 28 22 16 17 20 23 23 18 15 13 15 18 21 22 21 19 19 19 18
67 65 64 57 67 75 85 86 84 80 75 71 66 61 57 50 51 51 49 48 42 34 35 40 33 36 36 32 29 25 16 15 20 18 21 18 18 20 21 22 18 19 20 19 22 21 24
68 65 66 61 55 70 79 85 87 84 80 76 71 66 59 54 55 56 52 47 41 36 36 40 42 39 35 29 31 28 19 15 20 19 20 21 24 23 24 25 24 19 19 21 21 22 23
76 69 65 66 58 51 77 83 88 88 86 80 77 72 63 60 62 62 53 47 45 42 39 45 44 43 38 35 32 29 21 16 18 22 25 24 24 26 26 25 24 22 22 24 25 27 27
81 76 66 61 64 55 48 82 90 91 89 87 82 77 70 67 71 61 52 47 46 43 42 46 47 44 38 35 32 29 22 17 19 21 27 26 28 26 21 23 24 27 25 21 29 31 31
82 78 71 63 62 61 56 53 88 94 93 90 86 81 79 75 75 57 52 49 47 47 45 47 47 47 42 38 35 31 23 20 20 21 23 23 24 28 29 27 27 30 25 24 22 24 26
70 77 75 64 60 61 58 52 67 92 96 91 91 90 86 82 67 61 56 52 48 47 49 50 50 48 44 38 36 32 24 22 19 22 24 25 21 21 24 21 26 28 27 25 23 25 20
55 69 74 67 59 60 58 52 52 77 96 94 96 95 87 84 73 60 59 54 52 47 50 51 55 50 46 41 38 32 26 23 23 27 28 27 25 24 24 24 27 30 29 28 27 27 26
53 65 70 70 64 60 59 55 48 55 79 97 97 93 89 79 70 68 64 56 54 49 47 53 55 49 47 43 36 31 27 25 25 29 30 30 25 23 27 28 26 24 23 27 28 26 26
50 63 72 67 65 62 59 58 51 50 61 88 95 93 90 81 80 75 61 58 56 50 48 51 46 39 47 41 33 34 34 31 28 31 26 29 25 24 23 25 25 23 21 25 29 32 32
48 57 71 69 65 63 60 59 55 51 49 58 79 92 89 86 83 68 67 64 59 52 47 47 46 43 46 40 41 39 37 34 30 31 32 28 28 28 27 26 27 19 22 26 30 31 33
49 58 70 69 62 61 60 57 51 47 46 45 59 87 90 89 81 78 74 68 63 58 52 48 47 46 44 45 45 44 42 39 38 31 37 33 32 32 31 26 26 21 22 25 30 29 30
52 58 64 63 61 60 55 57 51 47 47 43 46 73 90 89 85 82 79 72 64 58 57 49 53 48 49 52 50 51 48 46 41 34 36 36 31 32 29 28 27 24 27 29 33 31 25
53 65 63 60 57 56 52 54 53 47 46 41 39 53 77 89 87 85 81 74 69 59 57 51 52 56 51 54 54 53 51 48 47 37 36 37 37 34 29 30 30 27 29 29 32 23 27
51 49 53 55 54 51 51 49 51 49 49 43 34 44 63 81 87 87 84 77 73 63 58 56 55 59 55 56 56 55 53 50 45 39 35 34 34 32 30 31 27 28 29 28 26 25 26
45 47 49 50 47 47 46 47 48 49 48 42 37 34 62 69 85 87 84 78 71 69 64 59 56 57 57 58 59 55 53 50 50 41 35 37 34 36 36 30 28 26 24 23 22 20 20

GFSGBSN_500_spd_039.txt.gz
Wind_Speed
57 56 54 54 51 46 46 47 48 47 46 44 44 42 40 42 41 39 37 34 36 34 33 32 31 31 29 28 32 32 34 33 32 29 24 18 15 10 8 3 6 10 5 10 7 1 5
59 58 55 55 55 52 49 49 49 49 48 48 46 44 41 40 39 39 39 37 33 35 34 33 32 30 27 27 31 31 32 31 31 29 22 17 14 9 7 3 4 5 4 4 4 5 11
61 58 59 59 59 60 58 55 52 52 50 48 48 48 45 44 41 40 39 37 34 37 34 32 31 30 28 27 31 30 30 29 30 28 21 20 10 7 5 2 8 7 9 11 10 2 7
64 64 62 63 63 62 61 60 59 55 53 52 50 48 47 48 47 47 45 41 34 36 37 32 33 32 29 25 31 29 28 27 28 26 20 16 9 8 3 4 13 11 5 4 10 3 5
60 60 61 63 64 65 64 63 64 61 57 56 54 49 47 47 48 48 46 40 40 40 38 36 35 34 29 25 30 28 26 25 26 23 18 13 6 7 5 5 11 13 7 6 6 4 5
64 64 63 61 62 64 64 63 61 64 64 61 59 58 54 50 48 45 45 44 43 40 41 44 41 34 28 27 29 27 24 23 24 21 15 10 6 2 4 5 7 15 9 8 7 5 12
69 69 68 66 64 62 60 60 61 63 64 63 62 60 57 55 48 46 43 40 43 41 37 41 41 32 29 29 29 26 22 21 21 18 11 8 3 1 3 3 6 11 7 7 9 6 9
78 76 75 73 70 67 65 63 60 59 61 62 63 64 60 56 52 47 43 42 42 40 38 35 32 33 32 34 29 26 23 20 18 16 10 8 7 4 5 1 4 13 7 7 12 9 10
85 84 82 80 77 75 71 66 65 62 60 59 60 62 61 58 56 50 43 44 40 40 39 32 32 36 36 32 28 24 22 18 17 14 9 7 6 3 5 5 8 11 11 11 9 11 13
94 92 90 86 83 81 79 74 68 64 62 60 58 60 59 58 55 52 44 44 40 39 39 31 35 33 38 31 28 26 19 17 16 14 8 8 10 4 4 5 7 10 11 14 12 12 10
100 100 99 96 88 84 81 80 75 68 65 63 60 58 56 58 54 51 49 42 41 39 39 32 32 28 33 29 23 22 20 16 16 14 12 12 11 7 8 4 5 5 8 11 13 13 7
75 77 83 85 89 94 86 80 79 75 68 66 64 61 58 53 51 51 50 41 40 40 40 30 29 27 31 30 28 27 21 17 17 14 13 11 10 12 12 8 9 7 9 12 11 12 9
60 62 62 62 63 68 75 80 78 80 74 70 67 64 61 55 47 51 48 43 44 46 35 30 30 28 34 32 31 28 22 17 16 12 10 18 11 15 13 10 12 12 12 13 14 12 11
60 61 62 61 59 55 57 64 66 75 81 74 71 67 64 58 48 52 46 46 52 47 32 33 34 30 34 36 35 29 23 19 15 13 15 21 19 18 16 13 17 18 17 13 13 15 14
60 59 59 58 59 60 58 53 71 77 82 82 77 72 68 61 53 54 52 53 49 45 34 33 34 35 33 40 37 29 23 18 16 14 14 19 23 20 19 21 22 22 22 21 22 19 16
73 71 70 64 59 60 57 57 54 80 85 86 83 78 71 64 58 57 58 53 48 42 36 38 39 37 38 36 33 28 24 18 17 16 14 19 26 24 24 26 26 25 23 21 20 22 20
78 76 73 72 70 61 60 59 59 60 81 86 86 83 74 70 66 66 60 50 50 46 42 44 39 45 38 36 31 30 25 19 20 18 16 21 25 25 27 28 28 28 26 23 23 23 21
84 83 83 79 76 72 59 59 60 60 68 85 87 85 79 78 76 70 60 50 51 48 43 48 46 46 46 38 34 32 25 19 22 20 16 21 24 26 24 29 28 27 25 26 27 23 24
64 64 66 75 77 77 67 61 59 64 59 72 88 86 87 85 83 70 58 56 53 48 43 48 46 49 46 43 41 36 25 24 25 22 19 23 24 25 28 28 26 26 26 24 25 28 25
57 58 65 70 72 73 68 62 61 66 62 61 82 90 90 88 78 68 67 60 57 52 47 49 47 48 48 41 38 36 28 26 26 23 23 27 26 22 22 22 25 26 29 27 28 31 31
56 54 56 71 68 70 68 65 62 66 63 56 68 92 91 90 85 72 67 61 60 53 49 48 48 47 47 43 42 35 28 27 26 25 27 29 23 21 20 21 28 31 33 30 29 30 30
60 52 50 52 77 67 69 68 64 66 66 60 57 81 89 86 77 79 75 64 61 56 51 48 48 43 49 45 40 34 29 28 29 28 29 28 22 22 23 25 27 28 28 26 25 21 22
56 54 54 48 54 71 63 69 66 66 68 63 50 67 79 86 85 83 72 66 61 58 54 50 49 47 47 42 35 35 35 34 32 33 30 31 27 25 25 25 26 24 20 21 21 23 25
47 53 54 52 50 72 67 67 66 66 63 56 46 53 75 87 88 80 75 69 65 58 52 50 44 46 44 36 39 39 39 38 37 35 33 32 28 26 29 27 27 11 17 19 20 21 24
37 47 57 53 52 71 64 64 64 63 58 52 35 38 58 79 85 79 78 73 70 64 55 52 46 44 44 40 43 45 45 41 41 37 35 31 29 30 31 28 26 20 17 19 22 16 24
30 41 50 50 63 66 55 61 61 59 55 45 33 35 48 64 85 81 82 78 75 69 61 57 52 46 45 43 43 50 47 44 42 40 38 32 30 35 36 34 29 14 20 22 23 14 18
34 39 46 48 69 62 52 57 58 55 50 40 36 36 46 59 79 83 83 80 78 72 62 61 54 47 48 47 46 49 48 48 46 44 38 34 31 34 37 33 24 20 22 23 25 24 22
32 37 43 63 60 58 55 53 57 51 47 41 37 36 37 51 69 82 82 82 80 76 66 61 57 54 50 54 55 50 54 51 48 42 39 37 32 33 33 34 34 22 24 26 26 24 22
36 40 60 56 56 58 53 50 54 49 42 37 36 33 34 49 61 76 83 82 81 79 75 66 54 53 53 53 54 53 53 53 50 47 42 39 34 34 32 30 28 24 24 25 26 24 22

GFSGBSN_500_spd_042.txt.gz
Wind_Speed
53 52 53 53 53 51 49 50 49 46 45 42 41 42 41 40 39 38 37 34 33 32 29 27 27 27 30 28 28 27 30 30 31 28 30 25 24 18 14 5 4 2 1 6 9 8 7
57 56 55 55 54 52 52 53 51 48 46 45 43 43 43 42 41 38 36 35 34 32 30 29 26 28 29 26 26 26 29 30 29 26 28 23 21 14 11 6 2 4 5 5 10 7 10
59 59 58 59 60 59 55 53 54 52 50 47 45 47 44 43 43 42 39 38 35 34 30 30 27 27 29 27 26 26 29 29 27 24 26 22 19 12 10 6 8 8 6 6 4 0 6
56 57 58 59 59 58 57 54 54 55 55 55 52 49 47 47 44 43 41 40 38 38 34 33 31 30 29 29 28 26 29 27 26 23 24 20 17 9 7 5 13 9 5 4 9 2 2
55 54 54 53 53 55 57 55 57 56 56 57 56 52 50 47 47 45 42 40 40 40 37 34 35 35 32 32 30 26 29 25 24 21 22 17 15 7 5 5 14 12 6 8 5 4 10
57 57 56 56 56 56 55 53 54 56 57 58 58 57 55 52 48 47 44 42 41 38 37 35 33 33 33 37 29 27 28 25 23 19 20 15 12 5 5 5 8 13 7 6 6 3 10
64 63 63 62 61 60 58 56 56 55 53 53 55 57 56 55 53 50 49 47 44 41 37 33 33 31 30 35 27 26 27 25 22 17 18 12 11 7 6 7 8 19 14 10 10 3 9
71 71 69 69 68 67 65 62 60 59 56 55 52 50 53 54 55 53 50 47 42 41 39 34 32 27 28 28 26 28 28 25 21 15 16 10 7 2 2 5 7 11 13 12 11 6 8
77 77 76 75 74 73 72 70 67 64 61 60 57 54 51 51 53 54 52 52 46 42 41 35 33 26 29 29 29 30 27 24 20 14 14 10 5 2 1 6 6 9 12 10 13 12 11
84 84 83 81 80 79 78 77 74 71 67 64 61 59 56 53 52 52 52 50 46 43 43 34 32 34 30 29 30 34 29 25 19 15 13 10 7 5 3 6 7 10 12 10 12 8 8
84 85 85 87 87 87 84 81 79 75 73 69 66 62 60 57 54 52 49 48 46 41 44 39 33 34 30 30 26 31 27 26 19 16 13 10 9 8 9 7 7 9 10 13 11 9 8
65 67 70 70 72 76 77 78 82 78 74 72 71 68 64 59 57 55 51 52 48 45 51 43 33 28 27 28 27 32 28 26 21 17 13 14 12 10 15 12 10 8 8 9 9 11 11
49 49 49 50 49 50 51 56 62 65 65 66 71 71 68 64 59 59 55 54 49 49 50 42 37 29 25 24 29 35 30 26 21 17 12 13 15 14 16 16 10 12 11 7 11 12 10
44 47 50 52 54 54 52 49 48 52 60 65 70 73 72 68 64 62 60 56 54 47 49 47 36 36 29 26 35 36 32 30 26 19 17 16 19 17 15 17 15 16 16 12 12 11 11
50 51 51 52 51 51 53 55 54 51 46 69 76 79 77 73 70 66 65 63 51 48 46 43 38 39 36 33 38 40 35 27 25 20 18 16 18 20 21 22 22 21 21 19 17 18 17
58 57 57 58 60 60 57 53 54 55 54 51 76 80 78 76 75 71 70 63 55 50 46 42 41 39 38 38 41 43 36 31 28 23 21 17 19 22 23 25 27 26 25 23 23 22 21
64 63 64 65 65 63 63 64 61 54 57 59 55 77 80 78 77 78 78 58 58 55 50 43 44 45 39 41 39 38 34 29 28 25 23 20 21 23 25 27 28 29 29 28 25 24 22
65 70 72 72 71 69 65 66 66 63 58 61 62 55 76 82 83 83 76 57 61 58 52 47 48 48 44 43 41 38 32 25 27 26 23 21 23 24 23 27 29 31 31 30 28 26 25
75 74 74 75 72 72 71 69 70 67 64 62 60 60 61 74 86 83 68 69 65 63 56 51 50 50 49 43 46 44 37 32 31 30 26 23 25 25 26 27 30 29 29 27 28 27 27
74 73 71 70 70 73 73 72 70 71 67 64 64 66 66 65 77 78 73 76 71 65 58 52 53 53 50 46 44 43 38 35 33 32 29 29 28 25 26 21 24 24 24 25 28 28 25
68 68 65 61 57 58 56 59 62 72 71 68 65 69 65 58 75 80 80 74 71 68 62 58 56 55 53 50 47 49 39 35 33 33 32 32 31 28 23 25 30 28 30 30 32 27 29
61 56 51 49 53 58 56 52 56 65 72 75 67 64 62 60 54 76 83 83 77 70 63 59 55 53 51 48 49 40 38 39 34 34 35 35 32 27 25 24 27 27 29 33 33 28 24
52 55 55 56 55 55 55 52 63 62 67 72 66 64 61 61 48 73 85 81 77 73 65 59 54 50 49 44 46 46 41 43 41 38 39 38 33 30 27 26 28 26 26 27 26 23 21
58 61 60 60 57 57 55 57 72 57 64 65 60 62 59 60 56 65 80 81 80 75 69 64 61 56 51 40 41 42 47 45 43 39 40 40 36 34 31 29 32 12 16 19 22 20 20
39 46 58 59 63 61 57 63 74 60 56 60 63 57 57 56 42 57 78 83 81 80 75 66 62 54 48 44 41 43 39 48 45 44 40 39 37 35 34 30 27 21 19 18 19 14 21
26 25 38 49 58 58 59 62 75 58 56 62 57 55 54 50 36 53 78 82 84 80 78 64 60 57 52 51 52 45 47 44 49 47 42 41 40 37 35 33 29 18 18 20 24 12 22
18 18 36 48 52 54 50 68 69 56 55 60 53 52 47 44 42 54 75 81 82 82 77 68 62 59 55 50 53 53 52 50 48 48 45 40 40 40 33 32 27 21 21 22 26 17 25
14 21 37 45 53 47 61 63 58 49 58 53 49 49 40 38 43 58 69 74 83 81 77 71 65 60 53 50 50 53 52 55 49 48 49 44 40 37 35 34 29 16 24 27 21 25 25
18 30 42 47 48 47 65 53 48 48 52 47 48 41 36 33 41 56 63 70 73 77 78 72 63 62 55 55 53 52 55 51 52 48 46 47 41 37 36 33 26 21 23 28 27 27 27

GFSGBSN_500_spd_045.txt.gz
Wind_Speed
58 57 55 52 46 47 51 51 48 46 45 45 45 42 41 38 39 37 36 35 35 33 32 31 30 29 30 28 24 25 25 26 25 25 24 27 25 21 12 12 9 7 6 11 9 11 14
55 56 55 54 54 48 49 49 50 50 50 49 48 45 43 40 38 37 38 36 33 33 31 31 31 30 31 29 26 26 24 25 25 24 22 25 22 18 12 9 9 10 6 8 4 6 10
57 57 57 57 57 57 54 53 51 52 50 49 48 49 45 43 39 37 38 38 36 35 33 31 32 30 30 30 26 25 23 24 24 23 20 24 19 17 12 8 7 6 3 7 6 1 5
55 54 55 54 57 57 55 54 55 54 54 54 52 50 48 47 42 39 38 40 37 35 35 37 35 35 30 30 30 29 25 24 24 22 19 22 17 16 8 6 5 4 2 7 9 7 9
55 54 54 53 51 51 51 52 53 53 53 55 52 51 48 49 50 47 42 39 38 38 35 35 36 38 34 32 33 35 32 23 22 21 18 20 15 14 6 4 3 3 9 12 4 8 8
51 52 53 54 53 52 51 50 49 48 48 48 50 52 51 50 50 48 45 43 40 38 36 34 34 36 32 31 32 35 32 23 21 20 17 18 14 12 6 6 4 8 12 4 15 8 8
52 53 55 55 56 55 53 53 52 51 49 49 48 46 48 50 51 50 48 47 46 43 38 39 36 38 33 29 31 31 28 23 20 19 14 16 12 8 4 13 16 21 14 12 13 14 9
62 62 64 63 63 61 60 59 57 56 54 52 51 49 47 45 45 47 49 49 48 46 42 38 36 34 34 31 30 29 25 21 19 19 13 13 10 6 4 5 8 14 15 12 12 18 8
66 66 67 68 68 67 66 64 62 61 60 58 55 53 52 49 47 45 44 46 48 47 44 39 35 32 35 36 29 28 26 21 21 20 14 13 11 7 4 4 2 9 13 15 18 8 13
68 69 71 72 72 70 70 70 69 67 66 64 61 59 57 54 52 49 46 44 45 47 48 40 37 36 36 34 35 28 25 28 26 19 17 13 13 9 5 8 6 6 13 22 15 17 11
70 70 71 72 72 73 73 73 73 73 71 68 66 64 62 60 57 51 52 48 46 44 43 44 40 37 35 35 32 29 30 33 24 20 21 11 14 12 11 11 8 11 11 10 12 9 10
64 65 66 67 68 69 70 71 71 72 72 71 68 67 64 62 62 58 53 52 51 45 46 41 39 34 34 33 35 32 35 29 27 26 23 18 15 16 15 15 11 6 7 11 11 7 10
50 48 48 49 50 51 49 50 53 59 63 62 65 65 65 63 64 64 61 58 55 52 46 46 40 35 33 32 30 33 36 33 33 26 20 18 13 18 17 17 15 9 9 4 9 12 7
44 44 44 44 44 46 45 42 41 40 42 50 56 60 60 61 67 68 67 65 65 53 47 47 44 36 36 35 34 29 34 36 32 27 25 21 18 21 16 19 17 15 13 13 11 9 14
44 43 41 41 40 40 39 40 39 39 45 45 43 53 59 62 70 74 72 73 64 56 52 48 45 39 38 36 36 31 33 36 31 27 27 25 20 21 27 23 23 17 20 15 20 20 21
41 41 41 41 41 44 45 46 45 44 43 45 49 48 44 65 68 75 79 80 64 57 55 55 49 44 41 39 38 38 33 35 37 33 29 28 23 26 22 29 26 27 21 23 25 20 18
46 47 48 48 49 49 50 53 53 53 52 52 51 50 47 49 65 73 85 76 62 64 61 60 52 47 45 43 42 42 36 38 41 35 34 32 28 29 27 29 27 28 28 25 20 20 19
54 54 53 54 56 53 52 54 57 57 58 61 58 55 51 60 61 66 79 66 64 68 65 64 57 52 49 46 45 44 41 43 41 36 38 33 30 33 28 25 22 23 24 28 28 25 28
60 60 60 60 60 60 58 57 60 63 62 61 61 61 60 60 64 58 64 72 76 74 71 67 62 54 53 50 46 47 45 45 47 38 41 35 36 32 24 27 29 31 27 23 26 27 30
62 64 66 65 64 65 65 65 65 68 68 66 67 66 67 66 54 63 46 66 80 76 72 67 63 56 52 51 53 49 43 40 40 38 34 35 37 36 30 22 19 25 26 27 27 32 31
66 71 72 73 72 73 73 72 72 71 72 69 72 73 68 64 61 52 51 52 74 80 74 72 66 59 55 54 47 49 43 46 41 43 41 40 39 36 33 26 21 19 22 25 28 30 30
77 79 81 83 79 74 73 71 68 70 69 74 78 69 66 59 56 54 54 53 67 74 75 73 69 59 57 53 49 39 49 54 50 44 39 42 41 38 37 31 32 33 31 28 25 29 30
78 68 64 65 65 65 65 66 68 67 69 75 72 68 68 61 61 60 55 51 55 70 75 74 68 58 45 51 47 56 50 48 54 48 44 43 44 41 41 33 30 39 28 29 27 29 25
45 47 54 56 54 58 61 64 64 69 66 65 63 65 67 65 64 57 50 52 50 68 73 74 72 64 50 47 49 49 54 46 54 41 46 44 47 43 39 37 42 26 25 25 27 23 24
54 60 52 53 56 54 52 55 57 70 73 64 57 61 57 60 59 55 51 51 49 65 76 71 68 66 57 43 54 48 50 45 55 46 49 45 41 44 44 41 36 28 27 22 24 19 21
53 49 45 40 42 57 54 55 54 56 60 66 48 52 57 52 58 51 51 50 52 60 77 70 66 69 58 55 56 54 55 48 48 49 51 45 44 43 44 42 42 23 24 23 24 20 21
37 36 37 38 40 55 59 60 56 55 57 61 61 53 57 49 54 47 46 48 50 49 69 73 70 61 68 63 53 54 54 46 54 45 36 52 48 45 43 44 39 25 24 24 33 11 26
17 22 28 33 41 55 61 60 58 57 56 55 49 55 50 42 41 47 47 48 47 51 61 71 59 68 69 61 54 56 53 49 53 57 49 48 49 49 44 44 43 31 20 27 25 27 33
6 10 18 24 42 55 60 62 58 50 59 57 55 44 49 40 35 38 44 43 35 39 53 69 61 57 60 59 57 55 52 50 48 52 49 52 46 49 47 45 38 28 25 22 22 30 33

GFSGBSN_500_spd_048.txt.gz
Wind_Speed
59 60 61 59 59 56 53 51 49 49 48 46 43 43 41 40 39 37 36 34 34 33 32 32 32 29 32 30 30 25 25 24 23 24 22 22 23 26 21 3 10 11 9 15 14 11 13
60 60 60 61 61 60 57 55 53 48 45 44 45 45 43 42 41 40 39 36 35 33 30 32 31 32 32 28 30 26 27 24 22 23 21 21 21 23 20 11 8 11 11 11 7 11 11
60 60 59 57 55 54 53 54 53 53 48 46 45 46 45 44 43 43 40 38 36 34 30 33 34 33 30 28 29 27 28 26 24 22 20 19 19 20 19 10 6 2 7 9 9 12 14
58 57 56 56 55 52 51 50 52 53 51 50 48 47 47 47 44 44 41 40 38 35 33 34 34 33 26 31 33 33 28 28 28 25 17 17 17 16 17 9 4 2 2 5 13 11 21
55 53 53 54 52 50 49 49 49 49 50 50 48 49 48 47 47 47 43 43 41 38 35 35 35 35 27 27 30 32 29 31 33 26 15 15 16 15 15 7 1 10 7 10 16 14 18
49 49 54 50 49 49 48 47 45 44 43 42 45 44 45 46 46 46 45 43 44 41 41 36 35 36 33 27 25 29 26 30 28 23 13 14 14 15 13 6 8 4 13 16 19 14 17
45 41 42 40 50 46 48 47 47 47 46 45 45 43 43 42 41 45 47 45 45 45 40 38 40 34 34 32 27 26 26 29 28 24 13 15 13 13 12 8 6 15 15 11 20 18 17
52 51 51 53 51 51 49 51 49 49 48 47 47 46 46 43 42 41 42 42 47 46 44 40 40 35 37 33 30 26 26 26 28 17 18 16 12 10 7 9 12 21 20 9 12 18 15
57 57 55 56 54 55 55 55 55 53 53 54 52 50 49 47 45 45 44 41 43 41 47 37 37 39 34 38 30 27 25 26 29 25 19 15 10 10 5 6 6 6 13 19 20 14 13
62 60 59 59 59 58 58 60 58 58 57 58 57 56 55 53 50 49 48 47 44 41 43 36 36 39 38 35 36 28 25 26 29 23 21 17 14 14 10 9 7 3 9 14 19 21 13
64 65 63 62 61 61 60 61 63 62 62 61 59 58 59 57 55 54 54 51 46 44 43 39 34 38 37 41 30 29 27 29 26 25 31 16 16 15 14 11 10 9 15 18 12 22 16
65 63 61 62 60 60 60 61 62 63 64 63 61 63 62 58 57 58 59 54 50 46 49 41 39 33 33 37 33 29 34 30 28 29 31 24 19 18 14 17 14 13 11 12 9 10 13
59 58 55 52 54 55 55 55 57 59 60 61 61 62 62 60 56 63 63 60 57 54 48 44 47 35 32 31 31 33 31 33 32 31 28 28 23 20 21 19 19 15 11 7 8 9 2
52 50 47 45 44 42 41 41 43 45 47 49 53 56 58 58 60 63 66 64 65 55 52 54 46 42 36 35 29 31 33 29 31 30 29 28 28 21 21 20 18 19 15 14 14 17 15
47 43 40 40 40 40 39 37 36 36 39 39 42 45 50 55 60 64 68 72 61 59 55 49 51 49 41 34 32 34 35 31 28 30 36 32 26 20 23 23 23 21 22 14 21 18 12
44 40 41 40 40 40 38 36 35 34 33 38 39 42 38 40 47 57 67 72 61 58 57 51 54 51 47 41 37 34 36 34 31 30 36 28 17 22 22 27 27 27 20 21 24 22 18
41 42 41 42 42 40 38 38 37 36 37 40 39 38 36 44 49 51 63 60 58 62 62 60 59 54 53 46 38 38 36 36 33 32 41 37 30 25 31 30 28 30 29 26 24 22 22
41 42 43 43 42 42 41 42 43 42 43 45 47 46 42 46 50 50 45 30 49 60 66 63 65 60 55 47 41 39 40 41 35 36 43 40 33 32 30 32 25 30 30 31 32 24 24
40 41 42 44 46 47 47 48 49 49 51 51 51 52 52 54 49 43 36 34 39 58 66 65 64 63 60 48 45 41 38 37 41 42 42 42 44 36 33 35 28 31 32 34 35 29 32
41 44 46 49 52 54 55 56 55 56 55 56 58 56 56 57 51 46 38 35 38 42 60 64 64 65 61 52 50 45 50 44 46 47 41 42 45 43 39 30 24 30 29 29 24 28 28
49 51 55 57 60 59 58 56 56 57 59 60 64 62 56 53 50 48 50 41 45 52 48 57 65 65 63 44 41 36 43 35 46 49 43 44 52 44 42 35 25 25 21 33 33 34 37
54 57 59 60 60 61 61 61 61 61 62 63 69 64 60 57 54 56 52 45 43 48 54 48 64 69 61 44 44 33 41 37 40 50 47 48 53 45 45 40 34 34 31 26 26 22 26
60 62 65 68 70 72 73 74 72 71 69 69 72 65 65 60 60 63 58 49 48 47 51 50 51 63 68 56 53 49 38 36 45 45 44 46 48 44 46 42 41 42 33 29 28 28 27
67 71 75 80 81 83 84 83 82 81 79 71 72 67 69 68 65 63 56 56 50 52 52 47 46 61 62 59 42 31 51 42 44 43 50 55 50 54 51 43 50 43 42 40 46 36 35
68 63 56 53 50 49 52 55 57 60 60 66 75 73 66 61 64 64 60 56 51 54 53 49 46 51 60 53 67 57 28 42 57 47 53 51 53 56 55 53 46 45 38 40 33 32 31
52 53 54 54 52 50 49 51 49 47 56 73 77 64 61 55 52 46 52 52 53 55 54 48 46 46 52 63 73 56 36 48 43 55 50 56 50 50 50 53 50 43 38 36 34 38 21
54 55 57 59 58 57 56 54 56 57 58 65 70 68 63 60 46 49 51 50 52 52 48 45 44 44 46 53 69 70 42 47 47 56 59 51 47 49 49 44 43 43 32 33 36 21 23
34 35 36 39 45 48 50 47 51 55 54 56 68 65 59 55 47 46 48 50 54 47 49 41 40 49 48 54 53 69 59 35 51 50 50 48 50 44 48 49 47 38 37 39 30 20 28
24 23 22 28 31 38 42 41 50 50 52 56 61 59 55 47 49 48 44 43 36 41 43 43 40 38 68 44 43 58 68 64 45 51 43 45 51 49 48 48 45 39 37 30 24 25 28

GFSGBSN_500_spd_051.txt.gz
Wind_Speed
64 65 67 66 63 60 57 58 57 54 51 49 46 45 44 42 38 37 37 35 33 30 29 30 30 28 31 26 28 24 28 24 24 24 24 20 18 17 19 24 13 5 11 16 9 11 14
69 63 61 62 67 64 62 62 62 60 57 55 51 49 46 44 43 40 38 39 35 33 31 31 33 30 27 21 29 25 25 25 24 24 23 22 19 18 17 21 13 9 11 4 1 8 15
62 65 64 61 62 66 64 64 64 64 63 59 56 53 46 43 43 44 41 41 39 34 32 33 34 32 25 21 27 22 24 27 27 24 24 24 21 17 17 19 13 11 9 4 4 13 16
51 55 63 62 63 62 64 64 64 63 63 63 60 57 52 45 44 43 43 42 39 35 33 35 36 35 21 29 28 22 21 23 28 23 24 28 25 16 15 17 10 6 2 2 5 16 17
41 36 42 54 60 63 61 63 59 59 57 53 52 52 52 51 47 45 43 42 42 39 36 36 37 34 24 27 28 26 21 21 22 21 25 26 13 13 13 15 10 6 7 5 10 19 20
45 43 39 33 36 48 57 57 53 52 49 52 49 48 51 53 50 46 44 42 45 42 41 36 39 36 31 26 28 26 24 22 19 20 20 21 15 11 12 13 9 17 2 4 17 16 23
46 44 43 42 43 31 36 41 46 45 47 46 43 40 39 38 47 42 40 40 44 44 43 37 40 35 34 31 27 29 27 24 21 18 20 23 17 10 12 12 13 14 5 9 5 15 14
51 49 46 45 43 42 40 40 36 36 40 39 40 40 40 39 38 39 37 36 42 45 44 40 41 34 35 34 32 30 29 24 23 19 23 21 9 15 13 12 11 5 10 9 15 14 15
56 54 51 50 48 46 46 45 45 41 39 44 44 45 43 41 42 42 40 39 41 42 46 36 37 40 32 44 33 32 29 26 26 23 19 23 14 17 16 11 6 6 9 14 21 19 19
63 60 57 55 53 51 49 47 47 46 45 44 44 45 46 42 43 45 43 42 42 41 42 35 32 38 36 36 38 30 29 27 30 21 24 19 23 20 19 9 10 10 8 21 26 24 25
64 63 61 59 58 54 52 51 51 49 48 47 49 48 46 47 50 48 47 46 42 43 42 32 34 37 31 35 29 32 28 33 27 22 29 13 22 21 18 11 15 11 12 15 18 17 23
62 60 59 57 57 57 55 54 53 52 51 52 51 52 52 51 51 52 51 50 47 46 44 34 38 34 32 31 30 31 34 32 27 31 28 20 23 26 23 17 18 17 14 12 12 12 12
59 57 55 54 55 56 55 54 55 54 53 54 53 54 54 52 54 53 53 53 53 50 44 41 43 39 32 29 26 24 34 35 33 32 27 21 24 26 26 21 20 21 17 12 13 15 9
54 53 52 49 49 51 51 51 52 53 53 53 54 54 55 54 56 55 56 57 57 46 46 49 45 47 37 37 30 25 27 31 32 32 30 30 27 22 25 22 20 22 21 18 12 14 15
51 49 48 47 45 46 46 46 45 46 46 46 48 52 53 49 53 55 59 60 51 50 50 51 51 50 49 39 35 34 33 30 28 27 30 28 26 22 30 26 20 23 25 14 20 16 15
48 47 45 44 43 43 41 39 38 39 39 41 42 44 44 44 49 53 60 57 52 54 55 59 58 55 52 43 40 36 31 32 30 28 27 28 28 28 25 23 27 28 22 21 26 25 21
44 44 44 43 42 41 39 39 38 39 39 40 40 40 38 41 45 49 54 49 50 55 56 59 59 58 62 51 48 44 40 30 31 29 27 30 31 32 38 36 29 27 32 31 29 28 27
43 40 39 40 40 41 40 39 39 39 39 39 39 35 32 38 45 41 32 27 35 49 54 56 59 56 56 60 54 50 41 42 31 30 31 31 32 35 36 37 30 30 26 32 32 28 30
33 32 32 34 37 39 39 39 40 40 40 41 42 37 38 40 37 28 20 23 31 36 38 55 57 60 52 51 51 51 48 39 37 30 35 34 36 42 40 43 36 38 31 32 37 30 36
33 33 33 35 36 38 39 40 42 43 44 46 48 46 43 41 36 34 33 29 30 34 37 33 43 56 61 56 52 52 52 44 37 36 38 34 36 44 45 41 36 37 28 33 39 39 33
34 34 36 38 39 40 41 42 45 47 48 51 55 49 46 42 37 39 38 35 33 31 33 35 36 40 60 65 54 49 52 50 34 39 42 41 44 41 45 44 44 35 33 29 35 33 39
33 36 38 41 43 44 45 46 47 49 49 56 57 53 51 47 46 43 39 35 34 32 36 33 32 31 37 61 64 56 48 48 36 45 42 44 47 41 44 50 45 40 35 36 32 31 34
42 43 44 46 47 48 50 51 52 52 52 54 55 54 55 51 50 48 37 31 31 41 41 39 34 34 35 34 52 55 54 45 52 38 51 48 51 47 46 47 50 50 48 37 35 30 35
50 50 51 52 52 53 55 57 59 57 58 57 56 55 55 56 53 45 41 41 42 43 41 44 41 39 27 33 56 58 53 48 54 37 44 46 46 50 48 46 53 48 50 43 36 35 33
56 56 56 56 59 60 61 62 64 64 61 62 62 62 63 63 57 51 48 44 49 48 47 46 43 36 36 38 48 59 55 60 58 41 46 32 41 49 49 50 51 50 48 50 44 39 42
62 63 63 64 66 68 68 68 68 70 70 65 67 59 60 60 65 52 54 55 54 52 48 49 43 44 43 39 44 53 59 62 60 40 40 38 45 41 46 51 50 48 46 49 48 51 43
46 47 50 53 55 56 55 53 52 49 49 55 60 59 67 71 51 50 53 53 53 52 50 48 49 48 42 42 44 45 56 64 59 52 43 55 41 49 47 51 49 47 46 41 53 47 38
45 48 51 54 57 57 56 55 53 50 46 48 54 54 75 49 58 60 57 51 50 53 53 50 49 48 45 43 42 43 52 60 64 40 35 39 62 50 46 45 44 45 40 41 48 34 32
36 40 38 38 40 41 45 51 56 54 48 45 48 53 68 41 50 50 55 48 41 42 37 42 48 41 42 43 38 38 43 51 61 53 31 24 36 43 54 56 49 39 42 45 35 42 35

GFSGBSN_500_spd_054.txt.gz
Wind_Speed
55 56 58 59 60 63 63 66 66 64 60 55 55 52 49 46 42 40 38 37 36 38 34 32 30 26 24 20 24 20 25 24 25 23 23 21 19 20 19 19 22 21 18 14 10 9 7
54 56 57 58 60 63 66 67 67 68 64 59 57 56 53 50 46 44 41 40 40 39 38 35 32 29 24 17 28 21 20 24 24 23 24 21 23 19 17 20 21 22 15 8 7 3 8
42 45 49 53 59 63 64 61 59 62 65 63 60 59 58 56 51 48 45 43 44 42 41 38 35 32 23 20 28 20 20 22 20 24 24 25 21 20 19 18 20 19 13 7 6 4 9
40 40 38 40 38 47 55 58 59 64 61 64 64 63 64 61 55 51 49 46 46 45 43 43 39 35 22 30 29 21 22 23 19 18 20 21 22 23 23 16 18 14 9 9 7 6 8
43 43 42 41 39 38 30 34 44 56 59 61 64 63 63 62 63 60 55 48 47 47 46 45 41 36 26 30 30 27 22 21 23 19 20 21 18 17 11 14 15 12 12 13 8 6 9
45 44 43 41 40 36 39 38 29 37 49 58 60 63 63 62 62 61 61 55 49 46 46 44 43 36 29 32 29 26 25 24 22 21 19 18 17 16 14 13 13 14 15 19 14 7 4
49 48 46 44 42 40 36 33 36 33 33 42 41 49 59 61 59 56 52 52 53 49 46 43 45 41 35 34 32 32 30 25 22 20 19 21 15 10 20 16 16 15 18 22 17 3 10
54 54 52 50 48 44 40 36 35 35 35 27 30 30 38 43 33 38 43 47 57 53 47 42 43 39 34 37 34 35 36 28 24 21 24 21 8 17 20 18 16 13 16 16 18 6 11
60 58 56 54 52 49 46 42 39 37 37 34 37 30 28 28 38 34 32 33 49 57 50 39 39 43 33 43 32 35 37 33 28 28 23 20 18 24 20 21 17 14 15 19 12 16 19
64 62 61 58 54 52 50 47 44 41 39 38 37 36 29 32 34 35 32 35 35 43 50 37 37 39 36 40 40 32 35 36 34 26 28 22 23 24 23 20 18 17 14 14 22 23 22
67 66 64 62 59 54 53 51 49 45 44 40 39 38 39 38 34 36 38 34 34 37 43 30 37 41 36 36 29 30 34 39 30 28 35 15 23 20 22 18 21 18 15 16 18 24 21
66 65 63 61 60 56 53 53 52 50 48 45 43 42 40 44 45 39 38 39 38 39 45 29 29 32 34 33 28 32 37 35 34 37 38 27 25 27 22 26 23 22 18 17 19 17 14
61 62 62 60 57 54 53 53 53 52 51 49 48 46 44 46 48 45 44 42 44 47 41 37 40 30 25 25 27 27 32 32 34 35 33 24 25 25 25 24 27 26 23 20 21 18 11
64 63 61 60 55 52 52 52 53 53 53 52 51 50 48 49 49 50 50 48 39 39 40 43 41 38 37 32 28 24 27 29 31 35 35 32 31 26 21 25 27 27 27 22 21 18 15
68 64 60 56 54 52 50 50 51 52 52 52 52 52 48 50 51 51 51 48 40 37 45 46 47 46 44 36 36 36 32 29 25 27 31 33 31 26 28 25 32 25 28 21 26 24 21
60 57 55 54 51 49 47 46 47 49 48 48 50 52 43 51 53 53 53 46 47 49 52 53 50 50 51 50 45 38 38 34 32 27 28 30 33 29 32 32 36 31 22 28 31 29 26
51 50 49 48 46 45 44 43 43 45 44 44 45 48 40 47 51 54 49 47 50 50 52 50 50 47 47 47 48 46 42 38 34 26 30 30 33 29 34 38 36 34 33 33 31 33 30
43 43 42 42 42 42 43 42 41 41 42 40 39 42 40 44 47 48 46 46 47 46 47 50 53 52 49 51 52 48 45 45 40 38 37 33 35 31 34 36 35 39 36 29 34 35 31
40 39 40 40 40 41 41 42 41 40 40 35 39 37 39 40 42 39 37 36 39 41 37 44 49 54 51 54 54 54 52 48 46 45 41 37 41 38 38 37 43 43 39 34 33 32 36
38 33 31 31 31 30 32 37 39 40 36 38 40 39 40 39 32 30 35 36 37 34 33 33 32 44 50 57 59 54 49 49 50 47 47 42 44 41 35 33 40 43 41 39 33 35 35
28 29 30 31 29 29 29 33 37 37 37 43 43 40 37 36 34 32 31 30 29 25 28 29 27 25 37 49 58 62 54 50 48 48 45 44 47 44 40 34 44 45 43 43 41 37 40
28 29 30 31 32 34 36 36 37 39 42 49 47 42 40 38 35 35 32 29 32 32 32 25 23 25 28 28 48 57 51 52 49 47 47 45 44 45 43 34 45 51 45 43 44 40 41
30 30 30 30 33 36 39 41 41 40 43 45 46 46 46 42 39 35 32 30 34 37 37 32 27 25 17 26 35 60 57 57 56 50 40 46 47 46 49 42 38 53 51 50 46 45 41
34 36 37 37 38 38 40 43 45 46 48 49 49 49 50 47 42 32 36 38 36 34 38 38 34 32 27 31 30 35 56 62 59 55 58 32 44 47 45 45 48 41 47 49 51 47 43
43 44 46 46 46 45 45 47 49 51 54 56 56 55 53 51 45 43 40 40 41 39 39 38 38 38 35 32 33 33 36 45 51 58 58 56 47 49 49 53 51 52 48 46 49 48 42
52 53 54 55 55 54 52 51 51 53 54 55 55 54 56 54 47 43 44 45 43 39 42 39 42 42 40 36 35 33 33 34 36 43 56 62 55 53 27 51 56 48 50 45 49 52 49
54 57 59 61 62 60 58 57 55 55 56 56 56 54 55 54 51 51 49 47 44 42 43 43 41 44 42 40 40 38 37 38 39 37 47 60 59 52 38 35 49 49 49 47 50 46 50
39 39 40 44 48 55 59 62 62 61 60 60 60 58 56 55 54 56 56 54 49 48 46 43 45 46 47 43 41 41 42 40 40 37 45 57 58 50 40 43 47 41 42 43 45 47 43
38 44 44 44 44 44 45 47 51 52 51 51 51 51 51 49 59 53 56 55 51 44 41 43 45 44 44 44 41 40 43 43 39 40 41 59 56 52 36 26 46 48 41 37 34 39 40

GFSGBSN_500_spd_060.txt.gz
Wind_Speed
49 48 48 49 51 52 51 50 49 48 51 53 54 57 59 61 61 58 54 53 54 52 50 50 46 45 43 39 31 39 32 30 29 27 27 26 22 24 24 24 23 21 24 22 26 21 15
48 49 48 50 49 48 48 47 44 44 45 47 47 49 55 58 59 59 56 56 58 56 52 50 48 46 43 36 35 40 31 32 30 28 27 28 26 24 23 22 23 25 23 24 27 20 14
48 48 47 45 43 40 41 40 38 37 38 41 42 43 45 52 56 57 58 56 59 58 56 51 48 47 42 34 38 38 31 31 30 29 28 28 25 23 21 23 24 26 25 26 26 20 18
46 43 43 41 40 38 38 38 37 37 38 38 39 39 40 46 48 50 54 56 58 54 59 53 50 47 41 36 39 38 36 33 31 32 32 29 25 20 18 24 25 25 27 26 24 19 18
44 43 42 42 40 40 40 40 37 36 38 39 40 38 37 37 42 44 48 53 54 52 60 56 52 50 42 38 38 41 37 35 35 34 34 29 26 21 19 21 24 23 22 25 24 18 15
44 45 43 43 41 39 42 42 40 40 39 41 40 40 37 35 36 36 42 50 53 46 54 60 53 51 45 40 41 41 40 36 37 36 36 30 28 21 19 19 19 26 23 26 23 19 15
46 46 45 45 44 42 44 45 45 43 43 42 41 39 39 37 36 33 30 42 49 46 47 56 53 53 50 46 43 43 43 39 38 38 35 33 30 18 16 21 27 28 24 25 20 23 18
48 49 47 48 48 46 48 48 48 48 47 47 44 41 40 38 35 33 30 31 41 43 46 56 54 52 50 53 45 45 46 42 42 38 38 36 25 20 23 26 27 27 24 23 20 23 23
51 52 50 51 52 51 52 52 52 51 50 50 47 44 40 38 38 34 32 32 34 43 46 50 57 54 53 54 45 43 48 46 42 40 39 34 27 25 28 29 25 25 22 23 21 27 25
52 52 53 53 53 54 56 56 55 54 52 50 49 46 43 39 37 40 33 30 29 37 44 42 51 53 53 53 51 45 48 46 45 41 39 41 33 32 32 27 24 20 22 24 26 28 26
56 55 55 56 57 57 58 58 58 56 54 53 50 48 46 40 39 40 37 33 32 30 39 30 38 48 48 45 46 48 48 47 48 44 44 39 34 36 32 23 28 15 28 28 29 28 24
58 56 58 57 59 58 59 58 58 57 56 55 51 48 45 44 41 42 40 38 33 33 34 23 29 31 36 41 41 42 43 45 43 46 47 42 38 40 32 32 32 26 32 31 30 30 22
61 57 57 56 57 57 57 57 58 57 55 54 53 50 46 46 45 43 43 42 37 40 25 32 25 27 33 37 42 38 38 40 41 47 46 40 40 42 38 37 33 28 29 33 32 29 21
60 57 56 56 57 57 57 58 60 58 58 58 59 57 50 44 48 47 46 44 41 42 32 30 27 22 20 27 34 40 39 41 41 42 41 39 40 40 37 36 30 30 29 34 32 34 27
57 56 56 56 57 57 59 59 61 62 64 65 65 61 55 48 50 50 49 48 48 46 36 32 32 26 25 24 29 30 36 41 41 39 39 39 41 40 38 35 37 34 36 28 33 34 31
57 58 57 57 57 57 57 60 64 63 62 62 61 57 52 49 51 52 52 51 49 48 45 39 37 33 28 34 28 26 32 36 40 39 37 37 39 39 37 38 42 40 35 34 35 35 33
55 56 56 56 56 56 59 58 52 49 50 51 53 54 48 47 50 54 55 53 50 48 46 38 37 38 36 37 33 36 35 32 35 35 40 39 40 38 40 42 40 41 39 36 33 36 35
54 55 55 53 52 55 52 50 45 43 43 47 48 49 43 45 50 54 55 54 47 40 44 36 38 38 40 36 39 36 37 39 35 31 31 34 35 37 41 39 38 40 41 40 41 38 36
53 55 52 51 52 49 47 44 42 38 39 41 44 42 40 43 50 50 52 47 43 40 41 39 39 40 41 41 41 40 42 39 38 39 41 37 37 32 35 41 46 47 45 44 45 38 38
53 51 49 51 50 48 48 47 39 37 37 39 40 40 39 43 45 46 45 39 39 34 38 40 38 41 45 44 43 45 44 41 42 43 42 41 41 37 35 35 39 42 42 43 42 42 40
50 47 49 48 47 49 50 45 44 40 38 41 41 40 37 44 42 39 38 35 32 29 31 34 36 39 46 51 51 47 47 45 40 38 42 43 44 44 42 39 39 39 37 39 42 40 41
46 45 44 46 39 30 27 30 33 34 36 41 40 36 37 38 37 36 35 31 25 24 27 28 29 32 40 46 52 50 49 49 48 44 38 42 43 41 39 38 36 36 40 41 41 42 43
42 41 41 32 29 28 27 24 23 26 33 38 37 35 36 35 34 35 33 26 24 27 25 25 28 33 35 40 47 54 57 52 51 51 51 48 45 45 45 44 43 39 39 41 41 40 42
39 34 32 31 29 27 25 24 25 27 31 33 33 30 34 32 33 32 31 27 27 26 26 26 27 29 33 36 37 40 48 53 56 50 51 53 51 50 44 38 42 41 43 41 42 42 41
28 30 29 29 29 29 28 28 28 28 26 26 27 27 30 32 30 31 30 27 30 31 30 23 22 27 30 31 32 32 32 35 42 51 55 51 51 52 51 49 46 37 39 45 42 41 40
28 29 30 31 31 31 31 31 30 30 29 26 23 23 30 31 28 28 27 26 29 28 26 21 21 26 27 28 28 28 28 27 25 26 40 60 56 53 50 50 53 49 36 38 46 49 37
30 33 35 36 37 36 36 35 35 34 35 34 30 29 30 29 28 27 24 25 28 27 26 23 20 25 27 28 29 28 26 24 24 23 24 25 36 51 54 58 58 57 50 46 41 45 38
24 28 33 38 43 44 43 41 40 40 40 41 38 36 35 34 30 29 28 27 29 28 26 24 22 24 26 28 30 32 30 29 26 24 23 21 22 24 30 34 32 40 51 56 56 49 42
33 37 39 39 40 43 48 48 47 46 44 45 45 42 41 41 37 34 33 32 31 29 27 26 24 28 30 30 31 32 33 33 32 30 28 26 24 26 26 22 26 33 35 38 46 58 52

GFSGBSN_500_spd_063.txt.gz
Wind_Speed
49 48 45 45 46 47 46 48 49 50 51 48 48 47 48 49 50 47 47 50 53 55 53 48 48 48 46 43 38 40 38 34 32 31 30 29 26 24 26 26 25 18 18 21 21 24 22
48 45 45 46 47 49 49 49 50 49 48 46 45 44 43 45 50 52 48 47 49 54 54 50 48 47 47 42 40 42 39 34 34 33 30 30 27 25 25 25 24 21 21 20 21 24 21
47 46 45 48 49 49 51 48 47 45 43 42 41 40 41 41 43 47 48 46 43 49 52 51 50 53 48 40 42 42 40 36 35 33 32 31 30 25 24 25 22 23 24 21 23 23 19
48 45 47 49 51 51 49 46 45 42 41 41 39 39 39 39 43 44 46 46 42 41 48 51 52 55 47 44 43 40 44 39 36 34 33 33 28 26 23 22 22 23 24 23 24 18 17
48 48 49 50 51 51 47 46 43 41 40 40 39 38 37 39 42 43 44 44 42 43 45 53 53 54 46 51 44 46 43 41 38 36 35 33 28 26 24 22 23 23 23 24 21 18 16
50 50 51 52 51 49 45 45 43 40 41 41 41 41 38 39 40 42 43 42 41 44 37 48 51 48 51 53 48 45 44 42 40 38 37 32 29 27 24 22 21 25 27 22 22 18 20
52 52 52 51 52 50 47 46 45 42 43 43 44 42 42 42 42 42 42 40 40 36 32 39 46 47 45 51 50 46 46 42 39 43 40 33 32 23 22 23 27 29 27 21 23 23 20
54 53 53 52 51 50 48 48 47 46 47 46 46 43 45 44 44 43 41 40 39 37 28 35 44 47 44 49 50 48 43 46 43 39 39 40 28 24 29 29 29 31 26 20 23 25 20
55 55 55 53 53 50 49 49 48 48 49 48 48 46 45 45 45 43 42 41 41 37 41 17 38 47 47 47 45 47 47 46 46 42 42 40 27 31 30 29 31 28 21 23 22 24 23
57 57 56 54 53 51 50 50 50 51 50 48 49 47 45 44 45 45 45 42 40 39 41 29 29 37 40 45 48 43 43 48 47 45 42 43 36 35 33 31 33 26 22 26 23 24 25
58 57 56 55 53 53 53 52 53 52 51 50 50 47 47 46 45 47 46 45 40 39 40 25 26 25 32 39 48 44 43 43 44 45 47 42 35 35 35 26 31 28 26 29 28 26 23
58 58 57 56 55 54 54 54 55 53 51 51 50 49 48 47 47 46 46 45 41 41 38 27 25 21 22 32 41 44 40 45 43 46 48 43 40 43 34 31 31 33 32 32 31 26 24
60 59 58 56 57 57 59 57 55 54 53 51 51 50 49 48 46 49 46 48 45 45 34 28 21 24 16 22 32 38 38 40 40 46 47 44 43 42 38 37 39 37 35 35 33 27 21
63 62 61 61 61 61 59 57 55 53 54 52 52 51 51 50 50 51 51 50 50 48 41 35 28 22 14 21 26 31 38 39 38 39 40 41 43 44 41 38 35 33 35 35 31 31 24
64 63 62 61 59 58 56 55 54 54 54 54 54 54 53 53 54 56 56 58 54 47 43 37 28 30 23 17 22 26 34 37 36 38 36 38 38 41 39 38 36 37 41 31 34 34 29
63 60 58 56 55 55 54 53 53 53 54 56 55 55 52 57 58 59 61 61 55 49 46 39 29 30 30 26 20 19 30 37 34 36 34 32 33 39 39 38 41 44 39 37 41 36 31
65 61 58 55 54 53 53 53 51 51 53 55 53 54 49 50 53 58 63 62 54 47 45 38 31 33 32 32 26 23 19 27 34 37 32 40 41 39 40 44 40 41 43 42 40 37 35
68 63 59 56 54 50 51 51 48 49 53 53 51 50 41 44 49 52 54 58 49 41 44 39 33 33 35 37 34 28 27 24 22 24 32 33 38 40 40 40 41 44 43 40 41 42 39
69 64 60 55 54 53 50 49 47 50 52 48 44 40 38 42 46 45 48 49 45 40 39 37 36 37 38 38 36 35 32 29 35 26 30 31 36 34 35 38 38 42 42 41 40 40 40
61 60 59 55 54 52 49 46 47 49 49 48 43 39 36 41 40 39 41 40 39 34 34 35 35 38 40 41 41 38 31 33 33 31 32 29 30 29 32 33 35 38 38 37 38 40 40
56 54 53 53 51 47 46 46 47 48 48 48 48 42 35 36 33 32 35 32 32 30 30 30 33 36 40 47 46 44 42 32 33 35 31 31 33 34 32 30 33 31 32 37 37 38 41
46 48 47 47 46 44 44 43 44 46 46 50 48 42 36 30 31 31 34 34 27 27 27 26 28 32 38 44 47 47 47 45 42 38 38 39 33 36 35 36 33 31 30 31 34 35 36
35 39 41 42 41 39 40 39 35 29 33 37 35 36 36 30 30 23 34 35 25 28 26 27 26 29 33 39 47 47 47 46 45 44 40 37 38 34 37 39 38 38 36 35 34 36 38
27 31 34 35 35 36 35 31 28 27 27 25 25 28 32 30 32 31 28 29 29 29 27 26 24 23 28 34 37 41 48 48 46 47 46 48 40 38 36 36 37 37 36 35 35 35 36
23 26 29 31 33 32 30 28 28 28 28 29 23 22 24 28 28 28 28 30 35 29 26 26 24 23 27 29 29 33 37 44 47 47 48 49 51 52 46 36 37 37 38 38 37 35 37
16 18 21 23 24 26 28 30 30 30 29 29 22 21 21 23 25 20 29 35 32 28 28 23 16 22 22 23 23 25 28 32 35 41 50 49 51 51 52 51 50 43 41 36 35 33 31
17 18 20 23 25 27 29 30 30 30 31 29 22 17 18 19 19 22 29 30 26 23 25 21 21 21 21 21 23 23 25 26 25 25 27 36 41 47 51 51 47 45 43 42 43 48 51
10 12 16 24 28 29 30 31 31 32 32 29 22 19 15 17 19 23 27 25 23 23 24 22 21 20 21 23 22 23 23 23 24 22 23 23 22 25 31 38 44 45 50 50 49 52 52
20 21 22 22 22 26 34 34 34 34 35 34 27 23 23 21 20 22 23 22 22 21 22 22 21 21 20 23 24 24 25 25 25 25 23 22 22 20 17 17 23 23 24 28 26 27 35

GFSGBSN_500_spd_066.txt.gz
Wind_Speed
50 48 48 48 46 45 43 40 40 39 40 42 44 45 48 48 50 47 47 45 44 43 42 42 42 43 48 45 45 45 43 41 37 36 36 35 33 32 28 27 27 20 17 21 26 25 24
53 50 49 48 45 44 44 44 43 42 42 45 47 48 48 49 46 44 43 41 42 41 42 38 42 41 46 45 50 46 45 41 38 36 37 35 33 32 30 29 25 22 20 21 25 25 26
55 53 48 45 45 45 45 45 45 45 46 47 48 49 49 48 45 42 42 41 42 43 42 42 39 43 42 45 51 51 47 42 38 37 37 36 35 34 29 30 26 21 21 23 22 25 25
53 52 48 45 46 46 47 47 47 49 48 47 47 47 46 44 43 42 42 42 41 40 40 42 44 43 40 47 50 54 49 43 41 39 38 40 36 34 31 30 26 23 21 21 21 25 19
52 50 50 48 48 48 48 48 51 51 48 46 44 45 44 44 42 41 41 41 39 37 38 38 42 46 42 43 49 53 50 46 44 41 42 40 37 34 33 30 26 22 18 21 26 22 17
52 53 53 52 50 50 50 50 53 52 49 46 44 43 44 43 43 44 43 41 37 35 36 37 39 41 42 40 52 54 51 45 51 46 46 41 37 34 32 29 20 19 20 27 23 22 16
54 54 55 55 53 52 54 52 53 54 50 45 44 44 44 44 43 45 44 42 39 36 37 36 38 41 43 34 49 49 47 48 49 47 52 43 41 35 25 26 25 25 24 26 24 26 20
58 57 57 57 55 54 55 55 54 54 50 47 45 46 46 45 46 45 45 43 39 38 34 38 38 38 41 31 39 44 50 45 54 50 45 47 44 29 34 30 28 28 26 24 24 24 19
61 60 58 58 58 57 56 57 55 54 51 48 47 47 47 45 45 46 47 43 40 39 40 31 33 41 38 35 36 46 43 43 49 50 49 47 36 35 35 33 30 26 27 23 24 24 21
63 63 61 59 59 59 58 58 56 56 52 49 48 48 47 45 46 46 44 43 41 39 42 39 35 37 33 32 30 41 37 43 48 49 48 44 39 40 39 35 30 27 27 26 27 28 22
64 64 63 61 61 60 59 59 58 55 53 50 50 48 46 44 45 45 44 40 40 38 41 37 33 33 32 31 26 34 30 40 48 47 52 51 42 41 39 28 32 24 32 30 32 29 24
66 64 64 63 61 61 60 60 59 56 53 50 49 49 46 45 46 45 44 41 40 39 40 37 33 33 32 30 30 31 31 38 46 51 53 51 47 45 40 34 33 35 33 32 35 30 24
71 68 66 64 62 61 60 59 58 56 52 50 49 48 47 48 48 46 45 42 43 41 38 35 31 31 28 23 27 26 26 41 40 43 44 52 51 47 44 41 38 39 34 33 36 33 23
71 70 70 67 64 62 61 59 57 55 53 52 50 49 50 49 49 47 47 45 47 45 42 37 31 30 28 26 24 26 23 32 36 39 40 48 50 51 45 42 36 33 32 34 34 30 28
75 70 67 65 65 63 61 58 56 54 51 50 50 50 49 50 50 49 48 50 48 47 48 43 34 33 34 31 24 17 20 25 30 38 43 44 44 47 49 41 37 37 43 33 36 38 34
72 74 72 66 62 59 57 55 51 50 49 49 48 49 49 50 49 51 52 53 52 49 51 47 38 36 33 32 31 22 17 22 27 35 41 40 38 43 43 44 42 43 42 40 40 40 37
74 73 71 70 64 58 55 52 49 48 48 48 48 49 49 48 50 54 55 53 54 50 51 48 41 36 34 35 31 28 12 23 24 31 36 38 42 37 42 46 46 47 46 45 43 41 34
61 67 71 67 65 60 54 51 48 47 48 47 48 49 47 46 50 52 51 51 53 47 48 46 38 39 35 40 34 32 26 16 15 24 30 31 36 37 34 42 40 41 42 43 44 43 39
42 52 61 65 61 58 54 51 49 49 49 47 46 45 45 47 47 45 46 44 42 40 39 40 35 40 38 42 41 38 26 26 25 18 24 30 32 33 38 40 43 43 45 44 43 42 44
24 27 47 54 56 55 54 49 48 49 49 49 46 44 44 46 42 40 36 34 34 32 35 36 34 37 39 44 45 42 39 26 26 25 20 24 30 32 33 38 40 39 37 39 40 41 39
27 35 35 45 49 48 48 48 48 48 50 49 45 42 43 42 42 38 35 31 29 24 29 31 33 35 40 46 47 44 40 37 36 23 23 27 22 27 36 34 34 34 34 33 35 36 35
21 24 29 36 42 43 44 46 48 46 46 45 44 42 42 41 39 38 33 26 25 22 23 28 30 33 39 44 46 45 43 41 34 37 27 20 23 22 25 27 29 28 27 25 27 30 34
18 18 26 32 36 38 38 38 38 40 42 42 39 39 42 40 39 37 29 24 24 23 23 25 28 28 35 40 48 48 45 43 43 36 36 34 28 27 25 25 26 27 24 24 24 25 27
15 14 20 26 30 33 35 36 36 36 37 36 31 25 28 25 33 32 27 22 27 25 24 26 26 25 32 37 41 45 49 46 47 43 36 36 35 31 29 26 26 29 28 29 29 26 27
13 14 16 20 25 29 30 31 31 32 33 30 23 18 15 17 27 27 30 30 32 26 28 26 21 23 25 30 34 38 46 48 47 45 45 43 36 40 32 37 33 29 29 29 30 30 31
10 12 16 19 21 24 26 29 30 31 28 24 20 18 15 14 22 27 32 28 32 28 32 21 25 23 25 23 24 28 33 39 43 44 45 45 45 43 46 43 36 35 30 28 30 34 35
9 9 11 13 16 21 25 27 27 28 26 25 23 18 18 13 21 30 30 31 27 28 29 23 19 20 24 20 20 21 24 26 32 36 42 44 44 45 44 46 45 42 44 40 36 35 36
6 7 9 13 15 18 21 23 25 26 27 27 21 16 11 18 26 28 28 32 36 31 26 22 17 22 22 21 20 20 19 20 22 23 24 30 34 38 41 43 47 47 48 49 49 46 46
13 12 12 11 13 18 21 24 26 27 27 27 22 16 17 25 26 28 29 34 36 30 26 20 23 24 23 21 22 22 22 23 24 25 23 21 23 23 24 26 29 29 29 32 37 42 45

GFSGBSN_500_spd_069.txt.gz
Wind_Speed
52 48 48 48 47 46 47 49 50 48 45 42 44 42 41 42 41 42 42 43 43 43 48 48 46 41 36 38 37 42 41 43 45 45 43 43 41 36 36 34 34 31 27 26 25 26 24
51 53 49 50 51 51 47 49 50 51 47 44 44 44 43 42 42 44 44 44 44 44 44 42 41 37 34 37 39 39 42 46 48 49 47 45 41 37 38 38 35 31 30 26 27 24 25
52 51 55 55 54 54 50 50 50 48 47 45 46 45 44 44 45 46 46 46 45 42 41 40 38 37 33 40 41 39 39 47 50 56 49 46 43 41 38 37 35 33 30 26 27 24 24
57 56 58 57 56 55 49 47 48 48 46 46 47 47 45 44 47 46 45 44 42 40 38 40 39 37 36 42 40 38 41 45 49 55 44 46 45 43 39 37 36 33 29 26 22 25 23
57 57 57 57 57 53 51 48 47 47 47 47 48 47 46 45 47 46 44 43 41 40 40 41 40 39 39 40 37 37 37 42 46 53 60 48 46 40 39 39 36 32 27 22 22 28 23
58 57 57 55 54 53 51 50 48 48 49 48 48 47 47 46 47 47 45 44 42 42 42 43 39 37 39 38 37 35 40 40 53 56 54 52 46 43 43 41 35 30 25 21 24 20 18
55 54 55 56 55 54 53 53 52 51 52 51 49 48 47 47 48 47 45 46 44 44 40 43 42 36 40 38 37 34 43 39 52 50 53 52 50 47 42 37 33 31 22 22 23 19 22
57 58 58 59 58 58 57 56 54 55 54 53 51 50 49 48 49 48 47 48 44 44 41 43 41 39 40 36 39 40 39 37 46 47 47 53 52 45 40 41 36 31 29 29 25 26 21
60 61 64 63 62 61 59 59 56 56 55 55 53 51 50 49 50 49 48 48 44 43 44 44 40 37 40 39 38 36 39 34 36 43 49 55 55 48 45 44 39 33 29 26 26 22 20
64 65 65 65 65 65 64 62 59 57 57 56 55 53 50 51 50 49 49 45 42 43 42 43 39 38 40 36 34 35 35 29 34 37 48 53 58 53 50 45 39 34 27 29 29 29 24
72 72 71 70 69 66 66 64 63 60 58 57 56 54 52 50 50 49 48 45 42 40 40 41 36 35 33 32 34 33 31 31 32 40 45 48 50 52 49 45 38 28 31 35 31 31 28
73 74 75 76 75 72 69 65 63 62 59 58 55 53 52 51 50 49 46 44 41 40 41 37 35 34 30 32 32 30 30 28 30 40 45 41 57 56 50 46 41 33 38 36 32 31 34
74 76 76 76 73 73 70 68 64 61 59 57 55 52 51 51 50 47 45 44 43 42 38 36 34 33 31 30 30 28 32 27 27 37 43 40 51 47 50 48 43 41 41 35 33 35 31
67 69 67 65 66 68 66 64 64 60 59 57 55 52 51 50 50 47 45 45 46 42 39 38 33 33 28 31 29 31 32 30 28 33 40 43 47 54 50 48 46 44 42 33 32 29 23
63 65 67 67 64 63 65 64 61 60 59 56 54 52 51 50 49 47 46 48 44 41 39 41 35 35 28 33 28 32 32 33 28 26 37 43 44 50 53 52 50 43 45 36 26 21 22
48 50 53 58 62 65 65 65 61 57 55 55 52 52 50 49 46 46 47 45 42 41 42 41 39 38 33 31 31 23 29 31 26 21 27 37 38 44 46 51 52 49 40 39 39 33 32
50 53 53 55 56 59 63 65 62 57 53 50 49 49 47 46 45 46 45 42 40 43 42 41 41 41 36 36 35 29 25 32 26 22 18 23 41 21 43 49 50 49 47 45 39 39 26
55 56 54 55 57 54 56 60 60 58 53 48 46 45 44 44 45 44 42 39 43 41 42 43 41 43 39 36 38 36 33 32 23 18 20 22 38 24 21 38 40 45 45 43 42 29 35
57 51 48 49 54 37 43 54 54 55 51 47 45 43 42 44 42 40 39 39 40 40 39 44 43 43 41 39 40 37 36 33 30 18 15 24 28 37 19 32 36 44 46 36 38 37 28
48 44 42 41 33 23 31 43 47 49 48 46 44 41 39 40 35 36 37 37 38 36 37 40 40 41 41 38 39 41 39 37 34 30 26 21 23 31 34 18 26 40 41 37 35 39 40
39 36 35 34 32 28 31 41 42 44 44 44 42 38 39 38 35 35 36 37 35 32 32 33 35 35 28 34 42 45 42 42 34 25 29 21 18 23 36 37 35 23 30 32 34 36 35
33 30 29 29 25 29 33 37 38 40 42 41 37 35 37 36 35 37 35 34 32 31 29 25 26 27 29 39 43 46 43 46 44 27 33 25 17 21 19 33 38 39 38 35 34 33 34
30 26 24 22 18 24 31 34 37 39 40 38 36 36 37 36 35 35 34 33 31 32 29 26 26 28 31 27 33 41 49 49 50 41 30 32 29 30 19 17 21 25 22 24 25 28 31
25 21 18 14 12 20 27 30 33 35 35 34 33 33 33 29 32 32 33 33 30 30 24 22 22 25 28 29 31 36 47 47 50 48 36 34 37 32 26 21 19 14 20 16 12 13 17
20 16 13 10 10 15 22 27 29 31 31 31 31 29 27 24 28 32 32 29 29 27 27 27 20 27 25 22 24 25 39 46 47 47 44 36 34 31 27 33 22 23 15 16 16 21 22
17 14 12 10 14 16 21 25 27 29 29 27 26 25 24 19 20 24 28 33 27 23 26 26 22 25 19 18 20 24 26 32 43 45 45 44 42 36 37 29 27 22 25 24 28 25 25
13 13 11 10 14 16 18 21 24 26 26 25 23 23 19 13 15 18 26 31 30 25 22 23 28 21 18 20 18 21 21 27 25 39 44 43 40 36 36 34 30 32 28 24 29 28 27
9 7 9 12 12 13 16 21 23 24 24 22 21 20 17 17 20 23 27 31 30 30 22 25 22 15 22 20 17 19 20 18 26 29 32 37 40 39 38 38 38 40 40 38 34 35 36
13 11 10 9 11 14 15 14 17 21 21 21 18 15 16 23 22 24 32 34 29 34 30 26 20 11 21 21 16 17 19 18 22 24 23 24 30 36 36 40 39 38 36 35 39 41 42

GFSGBSN_500_spd_072.txt.gz
Wind_Speed
59 52 48 49 48 50 54 52 51 48 46 47 48 49 49 49 47 46 46 46 45 42 44 45 42 42 44 41 33 42 41 41 39 38 40 42 47 47 47 43 39 39 36 32 35 34 32
55 55 51 51 52 52 53 53 51 50 49 49 50 50 50 49 48 48 46 46 45 44 43 43 43 43 44 36 39 39 37 37 37 38 37 45 46 47 45 45 43 37 35 34 36 35 32
54 55 54 54 53 52 55 55 56 55 51 50 51 52 52 50 48 46 46 48 47 42 43 43 44 45 44 35 39 37 35 34 35 38 42 44 47 51 47 47 41 37 39 37 36 33 29
54 55 55 53 55 56 56 56 57 57 55 51 51 50 49 51 49 46 44 45 45 43 43 44 46 44 40 37 34 35 36 33 29 35 41 48 48 53 55 49 46 43 38 36 28 29 27
52 53 55 56 57 56 57 56 56 54 54 52 51 50 49 47 45 43 43 45 44 42 42 42 44 43 41 37 37 36 36 32 37 36 40 43 49 51 59 51 49 44 37 34 26 28 25
54 53 54 55 57 57 57 57 55 52 49 50 49 49 48 47 46 44 42 43 44 41 41 42 44 44 41 40 39 35 36 35 37 39 44 39 47 49 53 45 47 39 37 29 25 20 20
51 53 53 53 54 54 55 56 55 53 52 50 50 48 47 47 46 45 44 42 44 43 40 42 43 41 40 41 39 35 38 35 37 44 43 44 46 50 45 41 41 43 38 27 15 15 20
53 54 56 57 57 57 58 58 56 56 56 53 52 51 48 49 48 47 47 43 42 46 45 44 40 41 42 39 38 37 40 40 41 42 43 45 47 44 40 53 45 43 40 37 20 23 19
55 56 58 60 60 62 62 61 61 59 56 56 55 54 52 52 49 48 46 46 44 43 45 41 41 41 41 38 38 38 39 39 38 38 42 37 35 39 48 49 48 44 44 38 31 25 19
58 61 62 63 65 66 68 68 66 65 61 60 56 54 52 52 51 47 48 45 45 43 44 44 41 42 39 37 36 37 37 39 33 37 36 34 29 41 44 55 50 48 45 36 31 30 28
62 65 67 69 69 69 71 71 70 69 68 65 60 56 52 52 51 47 48 46 43 42 41 45 45 40 37 33 33 33 31 36 31 28 31 32 32 38 44 51 50 47 42 32 28 36 32
64 67 70 72 75 75 73 71 71 70 68 67 64 59 54 53 50 49 44 44 43 40 42 43 41 37 32 31 32 36 31 33 27 25 27 30 38 42 43 47 56 52 39 38 37 36 38
65 69 71 71 71 70 69 66 66 64 64 64 62 58 54 51 49 46 44 42 43 42 37 33 40 34 30 28 30 37 29 26 28 27 25 28 35 44 42 44 55 56 41 37 41 42 39
67 68 63 56 55 56 57 58 59 58 56 56 58 57 52 48 47 45 44 43 45 41 37 37 39 35 30 28 29 32 30 25 27 27 22 30 23 41 42 38 50 57 47 44 37 31 29
65 60 50 48 45 44 44 46 49 52 56 53 54 52 50 47 46 46 45 46 41 38 37 39 40 34 32 28 32 27 31 27 26 25 20 26 23 29 39 36 45 53 49 42 18 29 24
64 54 52 51 51 50 49 50 47 45 49 53 52 52 46 46 47 47 47 44 40 40 42 39 36 35 33 23 27 29 24 21 21 22 21 18 18 26 32 33 40 51 42 39 33 25 28
63 51 51 54 54 52 54 53 51 50 48 51 51 52 44 45 46 48 45 40 39 39 37 37 38 36 34 31 32 31 28 25 24 25 21 20 21 17 25 39 39 44 47 48 44 37 23
55 49 52 54 54 56 55 50 48 50 53 46 49 48 46 43 46 45 40 38 38 37 38 37 39 38 35 33 36 33 33 28 28 27 22 22 21 16 23 31 35 41 43 45 42 44 37
50 49 51 50 48 44 43 44 46 44 39 27 42 43 42 31 39 38 37 37 37 36 36 37 38 36 35 33 36 36 33 25 28 30 23 23 22 18 22 26 31 37 38 45 46 37 41
48 47 45 48 42 38 38 40 37 29 29 28 38 40 39 32 31 32 35 35 35 35 35 36 36 34 35 34 37 35 17 26 29 31 27 28 20 15 25 22 24 24 33 47 40 43 35
47 44 46 43 39 33 35 32 20 19 30 27 34 33 28 34 32 31 32 32 32 32 31 31 31 29 31 31 33 32 31 26 32 34 32 32 23 20 27 25 24 22 23 37 44 41 31
43 43 41 39 32 29 27 25 22 23 30 41 37 32 32 31 31 31 30 29 29 27 26 25 26 26 29 32 31 25 29 31 35 37 34 28 28 16 23 24 21 26 25 35 31 27 31
40 37 34 31 24 24 22 20 22 29 31 33 32 31 33 31 30 29 25 27 27 26 25 25 22 23 23 27 32 32 36 37 39 39 39 31 27 19 11 28 27 24 24 34 37 38 35
35 34 30 25 19 16 14 11 19 29 30 30 29 30 31 29 30 28 24 20 25 27 28 28 29 24 24 27 27 30 32 38 41 45 43 33 28 27 13 19 24 29 35 34 35 33 33
34 31 24 20 13 9 9 11 20 26 28 28 26 27 28 27 27 25 26 27 22 23 25 25 23 19 21 31 27 26 27 30 42 45 43 44 31 23 24 24 21 16 12 22 28 24 16
25 23 19 16 13 7 12 12 19 23 24 24 25 27 27 26 24 25 27 29 21 16 15 19 23 22 24 24 22 20 20 21 22 40 43 42 41 34 20 25 26 22 23 14 10 22 29
16 13 14 15 11 12 14 14 16 20 22 22 21 23 25 23 25 27 20 22 24 25 20 21 28 25 18 16 19 17 17 13 16 21 26 40 44 40 33 22 27 23 26 31 33 31 38
11 10 9 10 12 9 13 14 15 16 17 18 19 23 23 20 24 19 23 23 29 24 22 21 20 22 23 17 15 14 17 18 20 17 17 26 38 41 35 32 28 24 24 34 32 23 24
14 12 10 9 8 10 10 12 16 17 16 20 21 20 21 27 22 19 27 26 32 34 29 26 14 24 18 17 13 15 18 16 15 21 15 16 21 29 30 29 25 26 30 34 32 30 31

GFSGBSN_500_spd_075.txt.gz
Wind_Speed
55 56 55 56 57 60 57 52 51 52 51 51 53 53 54 50 48 49 53 52 49 48 48 48 48 47 48 43 43 39 38 38 40 41 42 40 40 39 38 37 42 48 46 45 43 39 33
56 56 53 55 56 57 57 53 52 53 54 51 51 52 52 51 51 49 50 51 50 49 50 49 49 48 45 40 40 40 39 38 38 42 41 40 38 39 41 41 45 44 47 47 45 42 36
57 59 59 57 58 58 57 57 53 52 53 54 52 51 51 50 50 51 52 51 51 50 50 49 49 47 45 39 39 36 35 36 37 37 39 37 37 38 42 45 43 45 50 47 46 44 38
57 55 55 53 53 54 55 56 55 53 52 53 54 56 54 52 51 51 52 51 50 49 49 48 46 47 41 38 37 37 36 33 36 35 35 38 34 38 36 43 44 46 48 49 40 41 39
51 51 51 53 53 54 54 55 54 55 54 52 51 52 52 51 49 50 50 48 49 47 48 45 46 44 41 38 36 35 33 33 36 35 35 35 35 37 39 42 43 45 46 46 41 40 28
51 50 49 50 49 48 48 51 49 50 51 52 50 49 46 48 49 48 48 47 47 45 45 43 45 43 41 39 37 33 30 35 35 35 36 36 40 38 41 44 38 40 42 44 41 27 28
44 43 45 46 48 48 50 49 50 50 50 50 49 50 47 45 47 48 47 46 46 45 44 45 44 40 38 36 37 33 35 38 33 36 38 40 42 40 42 42 33 39 43 51 36 29 28
41 43 46 48 51 53 54 55 55 55 55 53 53 51 52 50 48 48 47 47 45 47 42 42 40 41 34 37 37 37 37 36 38 37 38 41 41 37 43 42 40 37 42 43 35 31 27
44 46 49 51 54 57 59 61 62 61 60 59 58 57 54 52 52 51 50 49 49 46 46 38 41 38 39 36 34 35 35 36 38 38 38 38 35 36 40 42 39 35 33 37 34 35 36
45 48 51 54 58 61 63 65 68 67 65 64 63 61 58 55 53 52 49 48 46 47 46 43 39 38 37 36 33 33 34 36 37 37 37 34 31 35 37 38 38 41 35 43 37 42 43
47 50 53 56 60 63 65 68 70 72 72 71 68 64 59 56 55 52 51 47 45 43 43 42 42 37 34 32 33 30 32 35 35 33 30 29 29 30 33 29 37 39 40 48 45 48 43
51 54 56 58 60 61 62 65 66 66 68 69 66 62 58 55 54 51 47 44 42 40 42 37 39 33 30 29 29 31 29 33 34 33 30 27 27 27 28 31 42 37 35 48 47 44 51
52 55 57 57 59 62 64 66 58 52 51 53 54 53 48 46 46 48 46 43 42 41 33 31 33 37 31 28 28 29 34 31 33 30 26 23 25 27 29 31 40 36 36 51 49 47 51
53 55 56 58 61 63 67 57 46 44 43 40 38 40 39 40 42 43 43 43 42 37 30 20 21 32 31 27 24 29 34 29 28 28 21 23 22 25 27 25 35 35 37 38 47 41 46
53 55 58 60 61 68 59 48 48 49 46 45 41 33 33 39 42 43 45 46 40 32 30 36 33 37 34 25 26 28 32 34 30 27 21 22 20 22 17 21 30 34 38 33 47 45 44
52 57 59 61 65 60 47 47 49 51 49 47 44 38 29 37 42 45 47 42 37 37 39 40 39 37 31 28 20 22 32 30 23 21 20 17 16 17 15 14 29 32 33 34 41 38 41
53 57 61 58 64 47 48 49 50 52 50 49 46 40 31 35 43 48 47 39 36 35 38 39 41 40 32 30 29 29 35 33 26 21 21 18 16 13 14 17 24 31 31 35 47 43 37
55 59 59 62 55 48 44 46 48 43 41 41 39 38 35 42 44 44 39 35 36 36 42 41 41 36 36 34 32 33 36 33 23 22 22 24 19 12 14 18 18 26 29 29 45 43 37
56 59 59 65 49 46 46 46 44 39 34 34 39 42 34 29 31 34 32 33 35 37 36 37 39 37 34 31 32 33 33 33 29 22 25 26 22 15 14 21 21 25 35 29 41 47 36
56 57 56 61 47 46 46 43 39 32 34 35 33 11 13 27 28 18 27 29 32 33 33 33 35 35 34 33 34 33 30 22 21 24 25 25 23 20 13 14 20 18 32 37 48 54 45
56 57 57 52 44 43 42 40 32 31 28 22 26 16 16 28 26 31 23 17 25 28 30 33 32 30 30 32 32 33 32 31 27 25 26 27 24 25 18 23 25 17 27 26 45 48 46
56 54 60 44 41 38 37 31 29 22 18 18 31 23 18 25 28 25 25 25 19 16 21 27 29 29 30 29 29 32 33 33 31 32 29 28 28 27 20 23 31 23 29 33 36 46 39
54 57 50 40 35 33 31 28 21 17 19 18 29 23 32 24 26 28 26 26 28 22 22 23 23 25 27 26 28 28 24 28 24 30 28 32 30 28 23 21 23 27 13 23 38 43 40
56 56 37 33 31 27 25 18 16 11 24 29 28 25 32 22 26 25 24 21 16 25 25 22 24 26 26 21 15 15 14 20 24 26 33 33 28 29 23 14 18 26 20 28 24 34 34
54 33 29 28 24 20 21 10 12 6 14 24 35 30 28 30 30 31 29 24 22 19 20 24 26 21 19 17 16 15 19 22 26 27 36 36 32 31 24 21 17 28 25 26 33 27 38
28 23 20 20 15 16 15 7 7 6 11 20 23 24 24 26 26 28 23 24 23 20 16 19 20 17 19 17 18 18 21 20 19 21 20 30 31 32 26 19 19 18 15 23 33 32 32
21 17 15 12 11 12 13 10 8 9 12 16 19 22 23 21 22 24 24 25 22 20 14 12 13 18 19 18 11 13 13 15 9 5 10 15 31 35 33 23 17 21 23 16 21 33 32
15 13 10 8 6 8 9 9 9 10 11 14 18 20 20 16 21 21 25 26 23 18 17 14 13 14 21 18 9 14 10 17 13 10 7 6 17 34 39 29 20 17 19 16 26 32 31
13 12 10 7 5 5 7 6 8 10 13 14 17 17 17 21 20 19 19 21 25 24 23 16 18 4 20 13 15 16 11 8 10 7 8 5 4 12 25 29 26 20 23 18 34 31 26

GFSGBSN_500_spd_078.txt.gz
Wind_Speed
48 49 53 53 54 57 57 57 57 58 59 59 55 55 53 57 57 55 54 52 50 52 50 50 49 48 50 47 50 45 41 42 47 48 42 41 41 42 39 41 44 42 36 38 40 42 41
49 51 52 53 53 56 58 57 57 56 58 59 57 54 57 54 54 54 53 53 51 50 49 49 52 50 47 44 47 47 46 45 45 40 39 40 40 41 40 42 44 41 40 40 41 44 44
50 52 52 52 53 57 61 61 60 57 59 59 56 55 53 55 53 51 51 53 51 51 50 50 50 49 47 47 48 48 47 42 43 42 39 38 37 38 41 42 43 42 43 40 42 36 40
45 47 49 50 51 53 52 53 54 52 49 51 51 50 49 50 51 54 53 51 51 53 52 51 49 49 45 48 46 45 46 42 38 36 36 37 37 38 41 42 42 43 46 43 35 35 34
43 45 47 49 51 51 51 49 48 47 45 46 48 47 48 46 46 51 51 51 49 47 49 49 50 49 45 45 45 43 38 38 40 38 35 36 37 38 40 41 42 39 43 44 37 33 33
46 48 47 46 44 41 41 40 42 42 42 42 44 43 44 44 44 45 45 46 47 45 45 45 45 45 45 43 40 38 38 36 36 37 36 35 36 39 40 41 44 45 47 45 38 29 37
45 43 40 39 39 41 42 43 45 46 48 48 48 48 47 47 48 47 46 43 44 45 45 43 45 41 42 43 41 37 38 37 32 33 34 36 36 35 39 44 47 48 49 45 38 28 39
32 32 34 36 39 41 44 47 49 50 52 52 53 53 53 51 51 51 50 46 44 44 41 42 40 41 39 42 39 34 37 34 32 31 33 34 35 36 39 43 46 46 46 41 37 30 34
31 34 36 38 40 43 46 49 52 55 58 59 58 58 57 55 54 54 53 51 48 46 45 37 43 39 37 39 37 37 34 34 32 31 31 32 33 34 38 37 41 42 40 36 35 32 34
34 35 37 40 43 46 49 51 53 56 61 63 65 65 63 58 57 55 55 53 50 49 48 42 38 42 40 37 37 37 35 33 30 30 29 28 29 34 35 33 40 41 35 33 32 34 40
36 38 41 44 46 50 53 56 58 58 57 56 56 58 61 62 57 52 52 51 49 47 47 42 42 39 40 38 35 34 34 32 30 30 29 30 31 31 30 31 39 35 29 29 31 28 34
38 41 43 46 48 52 54 56 57 57 58 58 64 60 54 52 53 49 46 46 47 45 49 39 38 35 33 32 33 33 33 31 32 31 28 30 32 31 31 33 36 33 28 26 37 35 37
40 42 44 46 49 51 53 55 54 58 59 62 52 43 36 35 38 40 39 41 44 46 36 35 30 27 27 30 33 32 31 31 32 32 30 29 30 32 30 32 34 32 26 30 40 40 31
41 43 46 47 50 50 51 53 55 60 57 45 39 38 37 36 33 36 37 39 44 39 37 26 30 29 33 34 33 30 30 30 28 31 30 28 30 32 31 33 31 29 25 35 38 37 29
42 45 46 47 49 49 53 57 55 58 46 41 40 41 38 40 35 32 38 40 38 35 40 34 31 31 28 25 26 30 32 33 32 28 27 28 28 29 30 29 26 25 30 30 34 34 25
44 47 48 49 48 48 53 56 59 51 45 40 39 41 42 43 38 35 33 38 32 38 35 38 36 35 34 32 28 30 31 33 30 28 27 28 28 26 28 24 19 22 23 29 30 30 29
46 48 49 49 48 51 54 53 57 47 42 43 44 41 33 39 36 36 33 25 30 35 36 39 47 29 33 35 32 35 33 32 29 27 25 25 26 24 23 21 18 18 30 31 33 31 32
48 49 49 47 50 52 54 56 52 46 44 44 43 38 29 31 33 34 32 23 32 35 33 41 42 46 47 41 37 38 33 27 28 25 23 24 23 22 18 19 16 19 24 33 40 37 30
49 50 49 48 49 52 52 58 47 44 44 44 40 26 25 28 28 30 30 30 35 35 32 39 42 39 52 42 40 34 34 33 29 25 24 24 26 25 16 18 16 20 22 29 31 34 38
51 50 49 49 51 52 54 52 43 41 43 40 32 27 27 26 30 26 19 27 35 29 32 39 37 41 49 49 46 40 38 33 29 28 26 27 26 27 23 20 14 20 17 25 32 32 38
51 51 49 51 51 51 56 44 39 39 39 33 24 21 17 5 14 23 13 14 19 24 26 35 41 45 43 43 43 40 38 35 32 25 26 27 28 27 25 24 26 26 21 23 35 40 42
51 51 51 52 51 56 48 35 35 35 32 22 17 19 19 17 14 16 15 16 15 17 22 27 32 36 34 35 36 37 31 31 31 28 29 28 26 25 25 24 28 32 30 28 34 41 41
51 51 53 52 57 49 33 31 29 29 22 11 10 27 21 19 23 12 16 23 22 20 19 21 24 28 29 28 30 28 27 28 28 26 27 28 29 26 25 26 32 22 34 33 36 35 35
50 53 53 59 44 29 27 24 23 19 13 10 15 22 22 21 22 17 24 26 22 20 21 28 20 23 26 27 25 24 23 23 26 25 26 28 30 27 23 25 26 21 28 24 31 27 33
52 53 55 34 23 22 21 17 18 9 8 24 25 24 21 23 25 24 24 20 18 24 20 28 23 23 24 22 22 16 17 18 17 22 26 28 31 31 25 23 21 15 18 18 14 24 30
50 47 26 21 18 19 15 12 12 3 2 18 24 23 24 23 26 23 30 22 22 23 27 28 25 26 24 17 17 17 16 16 18 18 20 27 29 30 28 25 22 19 16 26 18 17 15
43 26 20 16 13 12 9 8 7 7 6 9 18 25 29 26 28 29 29 27 26 19 16 18 22 19 22 19 16 13 13 14 12 11 13 11 15 22 25 29 22 17 20 12 15 26 25
24 20 15 10 9 7 6 5 5 6 7 11 16 19 22 23 25 25 27 26 27 22 17 15 15 15 17 17 15 9 11 13 16 13 6 7 9 15 23 30 26 16 16 21 16 15 22
20 16 12 10 6 3 3 4 4 5 7 12 14 16 17 20 20 20 23 24 24 23 23 19 19 9 5 15 16 13 12 8 4 8 3 6 4 8 12 18 27 17 18 9 21 24 27

GFSGBSN_500_spd_081.txt.gz
Wind_Speed
53 53 54 54 53 53 53 55 54 55 57 59 59 58 58 58 58 58 57 57 59 61 59 57 54 49 48 44 41 46 39 42 47 45 45 41 39 40 38 38 39 39 37 41 41 43 41
52 52 52 52 54 55 57 56 57 56 57 57 58 59 61 61 59 59 57 55 56 55 58 60 56 51 49 45 45 49 41 43 45 44 44 41 41 47 49 47 42 40 43 41 42 42 40
50 51 50 52 52 53 54 54 55 56 55 57 57 57 56 58 58 57 54 53 54 55 55 55 56 53 51 40 46 43 46 43 43 43 42 40 41 43 42 42 44 41 39 40 40 38 41
48 46 45 46 46 49 49 51 51 53 52 53 53 53 50 48 50 50 48 47 50 53 52 51 52 51 50 47 46 47 45 43 44 44 41 43 43 44 43 41 40 39 41 41 38 40 39
43 43 43 45 46 47 48 51 50 50 49 43 45 45 41 41 41 40 39 40 42 43 46 49 49 47 46 46 46 47 44 43 44 45 42 41 43 42 42 41 39 40 40 41 43 42 42
41 41 41 43 44 45 47 46 42 38 37 38 39 40 44 44 45 43 43 43 42 40 38 41 40 42 44 44 42 42 44 44 42 43 42 41 42 43 41 39 38 38 42 42 42 43 46
39 40 41 42 41 38 36 35 37 39 40 42 44 45 47 48 50 48 47 46 47 46 41 39 38 37 40 43 43 40 41 43 43 44 41 40 42 41 37 39 40 41 42 40 41 44 50
38 38 37 36 34 35 37 38 40 42 44 47 48 51 53 53 56 56 55 52 50 51 44 43 39 37 38 43 41 39 41 41 42 42 42 41 39 37 40 39 40 41 40 39 41 43 49
35 34 34 35 36 38 39 41 42 44 47 49 52 56 58 60 60 60 60 60 55 51 51 40 44 39 37 42 38 35 38 39 40 39 39 39 36 36 38 39 40 39 38 39 40 44 47
34 35 35 37 38 39 41 44 46 48 50 53 56 59 61 60 59 61 62 58 56 54 55 46 43 44 43 40 40 34 39 37 39 36 36 37 36 37 38 39 38 36 34 37 39 44 44
34 35 37 38 40 42 45 47 48 50 54 56 58 58 59 58 59 59 56 56 53 49 53 42 45 41 46 44 41 39 38 38 36 36 36 35 35 36 35 35 33 29 33 35 39 41 42
35 36 37 40 42 44 47 48 49 52 55 56 56 55 56 60 58 52 46 44 45 47 52 34 39 34 36 37 37 40 38 37 38 38 36 35 35 33 33 32 32 31 34 33 34 40 40
35 37 39 41 44 45 46 48 50 53 54 54 53 54 56 47 41 37 34 33 37 45 38 40 35 30 33 32 32 33 36 37 38 37 35 36 35 33 31 31 30 29 30 32 34 42 33
36 37 40 42 45 46 46 49 52 51 50 52 54 54 48 41 39 35 36 36 36 33 34 30 29 31 29 32 32 33 36 38 37 36 37 36 33 32 32 30 29 29 31 32 37 40 33
37 37 39 42 45 46 47 51 51 48 49 50 54 54 41 35 34 33 38 40 33 28 33 37 25 35 37 34 34 37 38 37 38 40 40 35 32 32 33 31 30 31 30 33 39 38 32
37 38 40 42 45 46 50 50 48 48 50 55 52 50 38 35 36 36 38 36 33 27 31 32 41 33 35 38 34 41 38 41 41 41 37 35 30 29 29 29 30 29 30 33 35 32 32
38 38 41 43 45 48 50 50 49 50 52 51 58 41 37 37 38 40 38 29 28 26 31 34 42 35 29 41 42 35 38 41 41 40 36 34 32 26 27 29 30 30 30 32 28 32 31
38 40 42 45 48 51 50 49 50 52 54 53 53 37 37 38 38 34 31 27 31 29 32 35 39 36 32 29 38 40 39 35 33 31 31 30 27 24 27 30 29 29 27 27 25 24 29
40 42 45 48 50 53 51 51 52 54 52 59 40 35 38 33 28 25 26 28 32 29 32 38 44 46 14 19 36 29 40 34 29 31 28 25 26 27 28 26 27 26 26 24 28 32 36
41 44 47 50 54 53 51 53 56 55 59 45 37 34 30 29 22 21 22 20 28 31 30 39 44 49 30 16 35 37 38 35 36 31 28 24 25 27 28 26 26 25 25 25 25 31 36
43 46 50 52 54 52 52 56 57 57 45 36 35 27 24 14 5 4 21 19 20 26 28 38 41 44 45 20 31 36 36 35 35 31 29 27 27 27 29 29 28 27 25 30 31 27 38
45 47 50 53 53 52 56 60 53 36 33 31 30 18 7 21 11 8 13 4 9 10 24 31 33 39 41 29 28 27 42 42 34 33 32 28 29 30 30 31 27 29 29 31 34 30 39
46 48 51 52 51 54 59 45 28 29 27 27 24 12 29 16 12 19 14 7 10 12 18 24 27 36 43 40 30 32 37 41 41 34 29 28 29 30 28 26 26 26 30 33 39 31 39
46 47 50 47 50 53 37 25 25 24 24 20 14 21 28 21 21 21 12 16 20 16 13 17 23 20 30 33 34 37 40 37 31 26 26 29 30 29 29 25 25 24 23 27 25 37 33
45 47 45 46 50 34 25 23 22 19 19 13 9 28 28 25 14 15 10 12 13 11 15 23 16 15 22 23 26 23 23 24 24 26 27 29 28 28 28 24 22 20 19 16 17 24 32
44 44 43 46 33 26 20 20 16 15 13 11 12 26 24 23 18 14 9 13 10 11 20 27 16 17 13 17 21 21 21 21 24 23 22 24 26 27 26 25 24 21 21 12 18 16 10
42 40 40 33 24 17 17 13 12 11 9 4 13 23 22 22 22 17 17 16 14 18 19 25 25 19 20 20 18 23 22 19 20 18 20 23 26 27 30 32 25 24 24 5 9 15 17
37 36 34 23 17 12 12 10 9 9 7 7 16 25 22 24 26 21 20 23 18 14 15 18 20 19 21 21 15 15 15 15 13 15 17 16 21 26 31 34 27 29 17 4 5 10 13
34 34 24 18 12 8 7 8 7 7 6 10 12 27 26 24 23 21 26 26 23 20 16 17 16 12 11 13 18 15 12 11 10 15 9 6 11 13 24 25 25 31 16 6 14 17 20

GFSGBSN_500_spd_084.txt.gz
Wind_Speed
57 58 57 57 54 51 50 50 50 53 55 57 57 58 59 61 62 61 61 61 59 58 57 59 57 57 60 57 48 52 46 45 44 41 39 37 36 36 37 37 36 31 28 29 33 36 37
57 55 54 53 51 49 49 50 51 52 53 54 56 57 57 59 61 60 63 60 57 58 58 56 56 56 55 55 52 53 50 43 43 44 42 41 38 40 41 39 40 36 40 40 39 37 37
54 50 52 49 47 47 47 48 49 50 51 51 52 53 53 54 56 56 56 55 54 55 54 53 53 56 53 45 49 47 47 44 42 41 42 41 39 40 41 41 40 40 42 42 36 35 40
52 51 47 46 45 47 49 51 50 49 50 49 49 51 51 52 54 51 45 43 44 45 47 49 49 48 48 45 47 44 44 42 42 41 40 41 41 42 43 41 40 40 41 40 37 37 37
46 47 45 46 46 48 48 47 46 47 47 47 46 45 41 43 43 42 43 43 43 39 39 39 42 44 40 46 43 44 43 42 42 41 40 41 44 42 43 43 41 42 42 40 39 38 39
43 42 45 46 47 47 45 44 44 43 41 40 39 40 42 44 46 45 45 46 46 44 42 42 39 36 36 40 40 42 43 43 40 43 43 42 43 42 42 42 40 39 42 43 42 38 39
40 44 46 48 46 44 42 40 40 39 39 40 42 44 46 48 50 50 50 51 52 50 47 45 45 40 39 41 41 40 41 42 43 44 43 42 43 42 40 41 44 45 43 42 40 40 43
41 44 46 45 42 40 38 38 38 41 42 44 46 48 49 52 54 56 58 59 61 62 55 47 47 46 43 47 40 38 40 41 42 39 42 43 40 40 43 44 44 44 43 41 40 40 45
40 42 42 41 39 39 38 39 41 42 44 46 49 50 52 56 58 60 62 64 67 68 68 59 50 49 48 48 44 34 41 39 39 39 42 40 39 40 42 42 43 42 41 41 41 40 43
39 40 41 40 38 39 39 41 42 44 46 49 51 54 55 59 61 62 63 63 63 64 67 59 53 48 50 50 44 39 41 39 41 40 41 43 41 40 40 42 41 40 39 40 40 41 42
37 38 38 39 39 40 41 42 44 46 48 51 54 55 57 60 62 59 57 57 60 62 61 43 42 43 43 50 48 44 41 39 39 39 40 40 41 41 39 39 40 38 38 38 39 40 40
36 37 38 39 39 41 42 43 45 47 50 51 54 56 59 58 57 52 54 56 53 48 48 33 33 34 34 41 49 48 42 42 39 40 41 41 41 37 37 37 36 36 35 36 37 37 37
36 37 38 39 39 41 42 44 47 48 50 53 55 58 55 52 51 52 54 47 41 39 33 31 26 30 26 29 35 45 43 42 44 41 40 37 36 37 36 35 35 34 35 36 35 35 34
36 36 37 38 39 40 43 45 48 50 53 53 57 54 52 51 53 52 52 39 37 33 33 28 26 26 27 25 30 36 39 40 41 40 40 40 38 36 35 36 34 34 35 33 32 33 31
36 36 37 38 39 41 43 45 49 52 54 55 56 53 52 53 51 57 45 38 37 35 34 29 23 27 33 27 21 38 36 30 38 41 39 37 37 37 36 35 34 34 33 32 31 30 31
35 36 37 38 39 42 44 47 50 53 55 57 55 51 53 55 55 54 37 35 35 35 34 28 25 29 35 35 10 32 32 33 34 36 39 40 37 35 34 33 33 33 30 29 29 31 31
36 36 36 37 40 42 45 49 52 55 58 58 54 53 56 58 59 42 34 35 36 36 34 30 28 30 31 39 12 27 30 33 33 33 36 37 36 30 30 31 32 30 27 26 27 30 30
36 35 36 39 42 44 47 51 55 58 60 59 56 59 61 63 48 36 35 37 36 34 34 31 30 30 39 35 13 26 36 38 35 35 35 29 29 27 28 30 29 28 28 29 28 26 28
35 36 38 40 43 46 49 54 58 61 60 60 62 62 57 44 35 35 32 29 30 26 31 30 30 31 43 24 26 26 27 33 40 35 32 30 31 28 28 29 28 29 29 29 30 30 30
38 37 40 42 44 47 51 55 60 60 62 65 61 41 34 34 34 27 25 21 18 20 26 30 29 33 47 19 26 18 24 24 25 33 29 29 27 28 27 27 29 28 30 31 32 31 32
38 39 41 43 44 48 51 57 58 60 65 51 34 32 34 31 26 12 13 13 19 13 18 27 26 32 42 23 19 28 18 25 35 27 24 28 26 22 23 27 27 26 28 27 28 29 36
39 39 41 43 46 48 52 55 56 60 46 35 34 34 33 24 12 7 2 11 4 3 11 23 18 31 35 34 21 17 18 20 36 37 31 28 26 25 23 26 26 26 26 27 31 29 32
39 39 41 43 45 47 52 52 55 45 35 34 33 32 26 9 11 9 6 4 10 4 6 16 17 24 28 31 39 28 15 17 27 30 30 30 27 29 26 26 28 26 22 27 30 35 31
39 40 41 43 44 47 48 50 45 35 32 30 29 26 6 18 14 11 6 3 14 7 4 6 13 19 22 26 26 31 18 16 20 26 29 29 30 31 27 26 26 25 23 26 27 29 34
40 40 41 42 42 45 44 44 34 32 27 25 23 14 21 21 17 14 4 12 16 10 20 9 13 13 19 20 23 25 32 33 24 23 24 30 32 31 29 27 24 20 22 22 21 17 28
40 39 40 40 42 40 42 33 27 25 25 18 18 4 21 23 19 11 5 19 13 10 13 16 12 19 15 17 20 21 21 23 20 24 29 30 29 28 25 24 22 15 18 19 15 18 21
39 38 38 37 39 37 32 25 22 21 20 14 12 6 21 25 21 10 11 11 7 10 11 17 12 13 14 16 17 20 21 22 25 27 26 25 25 23 21 23 20 17 16 14 12 14 7
37 36 35 36 33 32 24 18 18 17 16 11 9 7 22 25 21 14 13 13 10 7 7 15 16 11 10 13 16 18 19 19 19 19 21 21 21 15 19 21 22 18 15 16 8 3 12
35 34 33 33 30 24 18 13 11 13 13 10 9 10 18 23 27 20 15 17 15 11 8 9 9 7 9 12 16 13 15 16 15 12 14 10 9 10 17 22 25 21 16 17 12 3 3

GFSGBSN_500_spd_087.txt.gz
Wind_Speed
56 55 57 55 55 55 56 51 50 49 48 49 47 48 48 49 50 51 53 55 57 58 57 55 56 52 47 49 53 57 53 53 52 47 46 45 45 44 41 41 40 37 34 35 35 36 35
59 58 57 57 60 56 54 51 48 45 46 48 49 51 52 51 52 53 52 54 57 56 55 54 50 47 45 43 50 53 55 52 51 49 47 45 45 44 43 42 38 36 36 35 35 33 32
61 60 56 56 53 51 46 45 43 45 47 49 51 53 53 52 51 51 51 52 56 54 50 47 44 44 39 42 49 51 52 54 50 48 47 46 47 46 44 43 41 39 38 37 37 37 36
61 62 55 51 52 50 46 43 44 45 49 50 49 49 49 49 49 48 46 45 47 45 41 40 38 36 35 37 46 49 53 51 53 48 45 46 47 46 45 43 42 40 39 40 39 38 37
59 58 54 53 50 47 46 45 46 46 47 46 45 45 45 45 44 46 44 45 47 45 43 43 41 41 37 37 39 45 47 49 51 47 43 46 46 45 44 44 43 41 39 38 38 37 38
54 52 50 49 48 47 46 47 46 47 46 43 43 41 43 43 46 48 48 48 48 47 47 47 45 44 43 44 42 40 43 41 47 50 45 45 46 45 45 45 40 37 38 38 40 39 39
51 50 45 47 47 45 46 47 48 44 41 39 40 41 43 47 48 51 52 52 52 52 51 54 54 51 45 48 46 41 45 42 43 46 48 45 47 46 41 41 42 43 42 41 40 39 39
47 46 46 45 46 45 45 47 44 40 38 38 41 43 46 49 50 53 55 57 57 58 53 56 58 58 60 56 49 44 46 45 46 40 45 47 44 41 43 42 41 42 41 40 41 41 41
46 45 43 44 44 42 44 44 43 39 39 40 42 45 48 51 52 54 57 59 61 62 62 57 68 67 63 56 54 47 49 46 43 44 36 42 40 42 41 40 40 40 40 40 41 42 40
46 45 44 43 40 41 43 41 39 39 40 42 43 48 50 52 53 56 59 61 64 66 66 61 61 53 50 47 40 49 47 50 45 43 37 37 41 37 38 39 39 39 40 40 39 40 39
47 46 44 40 39 40 40 41 39 39 41 44 46 49 51 52 54 56 59 63 63 61 59 53 55 50 41 38 35 44 50 50 48 43 40 39 33 37 41 42 37 38 38 39 39 38 38
45 45 41 39 36 37 38 39 39 40 42 45 47 51 52 54 56 58 61 60 56 52 57 55 49 36 32 31 28 35 40 45 49 44 42 41 40 41 40 39 37 35 36 36 36 36 37
43 42 39 35 33 36 38 39 39 41 43 45 48 52 54 56 57 60 59 55 52 51 54 55 36 30 28 25 23 26 30 37 47 47 44 43 41 40 37 35 34 34 35 34 34 35 34
42 39 35 32 33 36 37 38 40 42 44 46 49 53 55 57 60 61 56 51 53 56 53 46 33 30 29 24 30 16 22 32 43 43 42 37 37 35 34 34 35 35 34 33 34 33 32
40 35 32 31 33 35 37 39 41 43 44 47 51 55 59 61 64 59 54 53 57 56 51 38 31 32 28 23 30 13 21 23 38 35 37 38 37 37 36 35 35 34 33 32 32 31 31
40 33 30 31 33 36 37 40 41 42 45 50 54 58 62 64 64 64 64 61 58 51 41 33 31 32 31 24 31 13 26 17 30 33 33 35 36 37 36 35 34 32 31 30 30 30 32
34 29 30 32 34 36 38 40 41 43 47 51 56 60 65 67 70 67 55 46 38 35 32 31 33 32 26 23 35 13 18 26 25 26 33 34 34 32 26 31 32 31 30 30 29 28 31
31 31 31 33 34 36 38 39 41 45 49 54 58 64 66 69 51 38 34 31 29 30 32 33 31 30 24 24 41 20 20 26 24 30 30 31 30 27 29 28 27 30 30 30 28 30 31
29 30 32 33 36 36 38 39 42 47 50 55 60 62 64 49 42 39 36 33 31 29 30 29 26 24 25 27 39 13 19 26 26 35 30 27 26 24 25 26 26 28 29 30 29 30 29
30 33 34 34 36 35 37 41 44 47 51 55 58 61 50 43 41 37 37 34 27 24 19 22 20 20 23 28 40 20 13 9 27 26 29 27 24 23 24 24 26 27 25 26 28 28 28
32 33 32 36 38 36 38 41 44 47 51 54 57 50 43 41 38 38 21 12 11 7 8 12 12 18 23 28 34 30 20 15 18 34 29 29 24 26 25 26 27 24 23 27 28 27 33
35 34 35 35 36 36 38 42 43 46 50 53 49 43 39 37 35 6 10 10 11 8 7 6 10 18 22 32 30 28 13 13 12 24 36 31 28 24 20 25 29 24 22 25 28 29 31
36 35 36 36 34 35 39 41 42 46 48 48 42 37 34 32 5 13 8 6 8 6 8 2 9 11 18 30 31 22 10 3 10 9 13 17 21 15 15 13 16 21 20 24 27 28 31
39 35 35 34 33 36 39 40 41 43 45 38 35 34 29 4 16 11 5 6 10 5 5 9 7 3 14 17 26 22 12 3 2 1 12 14 18 17 19 17 19 22 20 20 23 25 28
38 34 35 33 33 36 37 37 39 40 35 33 31 26 22 15 15 12 8 3 10 11 16 8 7 6 9 15 17 15 9 12 6 3 4 11 14 15 19 19 20 22 20 20 20 20 24
34 35 33 32 34 35 35 36 35 35 28 26 28 19 9 22 16 10 10 10 7 5 18 9 14 6 4 10 12 12 8 11 12 10 10 11 12 15 20 23 22 17 17 17 17 17 19
33 34 31 32 32 32 33 33 32 27 24 22 23 14 6 24 19 7 11 7 9 6 8 7 10 14 10 11 14 14 13 9 11 13 16 16 16 17 19 20 18 16 14 13 12 13 16
33 30 30 30 30 30 30 29 26 20 18 19 18 11 13 27 21 12 7 3 1 4 4 3 4 5 4 9 13 17 15 13 10 11 13 16 16 18 19 20 13 10 8 7 9 14 15
30 28 28 27 28 28 27 25 20 17 16 17 14 9 5 32 23 19 12 5 6 5 4 3 2 4 5 1 8 11 13 14 13 12 13 15 18 16 16 10 5 7 9 7 12 5 3

GFSGBSN_500_spd_090.txt.gz
Wind_Speed
52 53 51 49 51 50 49 48 47 48 49 51 47 48 47 45 47 46 45 45 46 47 47 49 49 51 52 48 42 48 47 44 48 52 54 51 54 52 49 49 50 47 47 46 48 45 43
56 56 56 56 55 55 53 50 47 48 49 46 44 44 45 46 47 46 46 45 46 45 46 50 52 52 50 42 40 41 42 42 47 51 51 53 54 54 53 51 50 46 46 47 47 44 41
63 60 58 59 57 56 55 52 50 49 46 42 41 41 42 46 47 46 44 44 43 45 48 51 52 50 42 39 38 37 39 43 46 50 54 53 55 56 55 52 50 47 42 48 43 40 38
67 67 64 61 58 56 52 51 49 45 42 42 41 42 43 45 46 43 42 43 42 46 48 49 51 49 47 43 41 40 39 41 44 49 51 56 55 57 56 53 51 48 48 48 47 41 38
62 64 62 59 58 55 52 48 46 46 43 43 44 44 45 45 44 42 42 43 44 46 50 49 49 48 49 48 47 45 43 42 44 44 46 55 58 56 56 51 51 50 48 48 44 41 41
56 57 58 56 54 51 48 45 43 46 44 44 44 45 46 43 42 41 41 43 46 47 50 52 53 53 51 52 52 50 48 45 45 47 46 43 56 57 55 54 49 46 44 44 44 44 41
54 52 51 53 52 49 46 45 45 44 45 43 45 45 44 42 42 41 43 47 48 50 52 55 57 59 57 56 55 54 52 49 46 48 49 42 43 55 51 47 46 45 43 44 46 45 43
51 48 46 46 45 44 43 45 44 45 43 42 43 43 44 41 41 42 45 48 50 53 52 56 60 59 59 58 59 60 60 56 51 51 50 47 40 41 50 43 45 44 42 42 42 42 42
45 45 44 43 44 45 44 47 44 43 39 40 41 41 42 41 43 47 49 51 54 56 58 57 55 61 62 64 64 63 60 52 49 51 52 50 43 37 48 49 49 48 40 40 41 41 39
42 45 44 46 44 46 48 45 43 41 38 39 39 39 41 43 45 49 51 53 55 57 60 59 59 59 60 58 54 53 52 48 46 48 51 51 45 41 40 49 39 36 36 37 38 37 36
43 43 48 46 50 49 45 46 43 39 36 37 37 39 42 43 47 50 54 54 56 58 62 62 60 56 53 54 52 46 43 41 42 50 53 49 45 40 35 41 44 41 37 36 36 36 36
44 44 47 51 50 48 46 43 40 34 33 36 37 39 43 46 48 51 53 56 58 60 65 63 58 51 48 50 46 41 34 36 37 46 50 44 44 40 35 37 33 36 32 34 34 34 39
44 44 48 50 47 45 42 39 34 31 33 35 38 41 44 48 51 51 53 57 62 61 66 66 58 51 48 46 39 35 30 29 31 37 46 45 46 43 39 34 38 40 39 36 33 35 33
43 44 51 48 45 42 38 33 31 30 33 35 39 43 46 50 51 52 55 61 63 67 66 66 60 51 47 43 33 30 26 20 26 31 36 43 46 40 38 34 33 32 31 32 33 32 31
44 49 48 43 41 39 33 30 27 30 33 38 40 44 49 49 51 55 59 63 59 54 50 50 42 39 36 33 27 25 23 18 21 27 29 39 39 36 35 33 31 33 31 30 31 32 30
44 47 44 41 36 34 30 26 27 31 34 38 42 46 48 50 54 57 61 56 48 48 46 38 29 25 26 23 22 20 23 20 18 22 26 30 35 34 36 35 34 32 31 30 31 28 28
45 44 41 38 33 29 25 26 28 32 36 39 43 47 49 52 55 59 55 47 46 44 37 31 23 21 18 19 20 18 25 29 17 24 22 23 27 28 31 33 31 33 30 28 25 26 26
43 39 35 32 28 26 24 25 29 33 36 39 43 46 50 53 56 54 47 46 44 42 41 31 24 22 22 23 18 20 24 25 14 25 31 24 23 24 25 27 29 29 27 25 27 28 27
41 33 31 26 27 23 23 27 30 33 36 40 44 46 50 53 52 47 46 46 47 42 35 29 26 22 18 18 18 21 23 32 22 26 29 32 28 25 26 25 24 21 23 25 25 26 25
36 34 33 27 20 23 25 28 30 33 35 40 43 46 49 48 45 44 45 43 28 20 16 12 10 16 18 18 23 27 19 14 32 27 30 31 29 26 21 22 20 21 21 21 23 23 26
40 31 26 23 25 22 24 28 30 31 36 39 41 45 46 42 42 42 34 16 13 14 15 12 7 10 20 26 22 21 16 13 7 37 35 31 29 25 21 19 19 18 20 22 23 25 26
37 31 25 23 21 24 27 28 29 32 35 37 41 42 39 37 38 28 10 12 15 17 15 12 4 8 17 23 20 22 12 15 15 38 42 36 29 23 23 21 19 19 20 22 22 24 23
38 29 24 21 25 26 27 26 28 31 32 35 39 36 33 33 29 8 9 14 15 18 12 5 7 5 10 18 27 26 18 17 16 16 37 37 33 24 22 22 24 20 19 18 20 25 25
34 28 22 27 26 29 25 25 27 30 31 34 35 30 29 25 16 12 5 13 14 17 9 7 6 6 6 16 30 22 10 19 15 14 23 29 26 19 19 17 14 15 14 16 17 22 24
31 25 28 28 32 25 25 25 25 29 29 31 28 25 25 19 3 7 2 6 7 19 17 10 9 9 11 16 14 4 7 14 15 18 16 14 9 8 7 10 12 10 13 16 16 18 20
29 31 31 31 26 24 24 23 24 26 28 27 21 23 20 12 8 9 7 1 3 9 12 11 7 11 10 7 7 4 6 6 7 11 13 13 8 5 5 8 12 13 12 16 18 21 22
36 35 32 29 25 25 21 21 22 23 24 22 18 19 16 7 14 12 9 5 5 2 9 13 7 5 7 8 6 9 6 6 4 3 5 5 3 1 5 9 10 10 11 14 17 18 20
30 33 30 27 27 23 19 19 20 21 21 17 17 17 13 1 19 18 14 4 6 9 10 9 9 10 6 5 7 14 11 8 2 1 0 2 5 9 10 9 8 11 13 14 14 17 17
31 31 32 28 23 18 18 19 19 19 17 16 16 15 10 5 16 22 16 9 3 6 7 8 7 8 8 5 7 11 12 10 8 6 5 6 8 13 12 11 11 12 15 14 15 13 10

GFSGBSN_500_spd_093.txt.gz
Wind_Speed
51 50 50 50 50 52 54 51 50 50 48 46 46 42 45 44 42 42 41 42 46 45 46 45 46 46 44 46 47 50 53 55 51 45 43 43 45 51 55 56 58 57 55 56 55 56 56
53 53 54 55 55 56 56 56 54 54 49 46 43 44 43 41 40 41 41 42 45 46 44 45 45 44 44 46 47 48 50 49 48 43 42 43 47 54 56 57 59 60 59 59 60 55 52
56 55 57 59 63 62 61 62 59 57 53 48 44 43 43 41 39 40 39 42 42 40 42 44 45 46 47 48 47 46 45 44 42 40 40 42 49 55 57 58 59 61 61 61 55 57 56
56 56 59 61 61 61 60 58 58 54 52 49 46 42 43 41 41 41 39 40 40 41 42 44 47 48 49 49 49 49 46 44 44 45 44 46 50 54 55 55 58 60 63 62 58 57 53
63 62 65 64 57 57 56 55 53 51 48 47 43 41 41 42 43 40 39 39 40 40 43 44 48 49 50 51 51 52 53 51 49 48 50 49 51 50 53 52 55 57 62 62 54 57 57
65 59 57 56 54 57 55 53 52 50 49 45 42 43 43 44 41 40 39 39 39 41 43 44 49 51 51 52 55 57 59 58 55 52 51 52 52 52 51 52 50 52 57 62 58 48 55
55 51 54 52 49 50 49 50 49 46 45 42 42 42 45 46 41 38 39 40 40 42 40 46 50 53 52 57 57 60 59 55 54 53 51 52 54 53 48 48 42 47 53 57 55 43 55
53 54 57 55 50 50 47 47 45 44 43 43 43 44 45 44 40 38 38 39 42 46 46 48 51 52 53 55 58 61 58 58 60 60 60 57 56 53 49 46 46 44 52 56 47 47 49
58 65 47 47 46 45 46 45 44 42 44 45 44 44 43 40 39 40 40 41 42 45 49 53 54 55 57 61 63 62 60 59 59 60 61 57 55 54 49 49 45 43 46 46 50 39 44
60 53 42 40 42 46 45 44 43 46 44 43 41 42 41 39 39 40 42 43 45 48 52 60 58 60 62 62 64 63 62 60 58 55 50 50 47 50 53 47 44 43 41 36 40 44 41
72 62 43 41 42 45 45 44 46 49 44 40 41 41 38 36 37 38 42 44 47 50 54 58 62 60 62 63 66 62 63 52 50 44 43 43 46 41 41 44 41 38 38 46 46 47 41
70 62 45 44 45 43 45 47 52 51 46 38 38 38 33 34 36 39 41 44 47 51 55 60 61 64 62 58 56 58 49 45 36 37 36 36 34 34 40 37 34 32 38 37 30 29 36
59 47 44 43 43 43 45 48 51 47 42 34 33 31 31 34 38 40 42 45 48 51 56 61 61 59 52 50 50 49 35 34 29 25 28 27 33 33 38 39 38 34 36 33 32 36 37
41 42 42 43 42 44 43 50 44 40 37 32 27 29 31 34 37 40 43 45 48 52 56 58 55 48 48 48 41 30 30 28 22 22 23 21 29 40 37 41 33 35 35 23 19 21 20
41 42 44 45 43 43 46 47 38 33 29 29 28 29 31 35 37 41 44 46 50 54 57 53 45 43 40 35 18 23 25 25 23 24 24 19 23 29 40 39 38 32 35 28 27 21 25
42 43 44 44 43 43 47 37 27 29 25 24 27 29 33 35 39 42 45 48 52 54 52 47 44 42 35 29 22 26 23 21 25 27 25 22 24 31 31 34 38 31 28 27 30 29 22
42 43 43 40 41 41 37 26 24 19 22 24 27 31 33 37 39 42 46 50 52 52 50 49 47 43 32 20 16 15 19 23 28 28 27 23 26 31 30 34 33 31 26 28 28 26 19
38 38 35 37 38 36 33 21 19 20 20 24 29 31 34 37 40 43 47 48 50 51 54 49 43 34 27 22 19 19 20 19 26 24 21 24 20 25 20 25 27 25 27 24 26 22 27
32 28 32 36 38 33 22 20 17 19 22 25 28 30 34 36 40 43 46 46 48 49 41 30 20 19 23 24 21 19 17 22 18 24 28 29 20 22 21 22 25 24 24 25 27 26 21
25 26 33 37 31 22 23 17 17 19 23 25 27 30 33 37 39 39 41 45 38 29 24 17 15 13 10 13 17 17 15 12 2 31 34 33 17 31 29 22 22 24 24 25 21 20 20
24 27 31 32 27 25 18 18 16 18 22 23 26 29 31 36 37 37 40 27 20 21 21 17 11 6 8 8 13 17 20 2 6 24 32 29 21 19 18 22 23 23 19 18 19 21 19
24 31 33 37 29 24 21 13 18 21 21 24 25 27 30 33 31 33 20 14 21 22 20 13 12 9 5 8 17 18 15 14 17 28 25 16 34 31 24 14 15 16 17 16 17 17 15
29 32 34 31 30 21 15 16 20 19 20 21 21 24 28 28 27 20 3 13 22 21 12 9 7 7 8 18 25 19 13 15 22 32 36 38 27 25 24 20 16 14 13 14 16 19 13
33 34 34 33 25 20 16 18 19 18 19 19 20 24 24 22 21 8 7 11 16 20 15 13 10 12 12 27 25 22 18 17 18 22 39 40 29 22 24 23 14 15 14 14 14 11 15
32 34 36 32 26 18 19 21 20 19 17 18 20 22 19 19 16 5 7 2 8 13 13 18 13 15 18 14 13 12 14 10 13 20 30 32 26 26 23 17 13 11 9 10 11 14 12
34 35 35 31 21 21 21 19 17 16 16 17 18 20 16 17 10 9 8 6 5 11 17 11 11 9 12 10 14 10 11 15 16 22 27 27 22 15 13 8 9 11 11 10 10 14 14
35 35 35 27 23 24 21 17 18 15 15 15 17 16 14 15 9 13 10 5 5 7 10 13 7 7 9 11 8 11 13 14 15 17 17 17 17 12 9 6 6 8 10 11 12 17 16
34 36 32 28 27 25 19 18 16 14 15 14 16 14 13 13 7 17 12 7 1 3 7 6 9 8 5 8 11 12 10 11 12 10 9 11 12 7 6 2 5 9 11 12 14 16 17
35 37 30 27 26 23 22 18 15 14 14 14 13 12 13 12 8 19 18 11 5 4 5 4 6 8 6 7 10 13 11 9 8 4 5 4 5 2 3 6 11 13 13 14 16 17 15

GFSGBSN_500_spd_096.txt.gz
Wind_Speed
52 49 50 49 46 47 49 50 48 47 49 52 51 52 51 48 46 44 44 45 43 40 42 43 43 43 44 45 44 47 47 45 49 49 45 45 45 43 44 44 46 48 52 57 60 57 57
56 54 53 54 54 52 50 50 53 53 53 52 52 55 54 52 52 51 46 43 42 40 41 42 43 43 45 46 45 45 44 46 48 48 47 45 47 45 46 46 47 50 53 56 60 62 61
56 57 57 57 53 55 53 53 53 57 57 58 57 52 51 49 46 46 44 45 44 44 43 43 44 43 45 42 44 43 42 45 48 48 47 45 43 44 43 45 47 51 56 59 61 64 63
58 62 60 59 58 56 53 54 56 58 57 53 52 49 46 47 45 44 43 42 43 43 44 45 44 44 41 41 42 42 45 47 49 49 49 49 50 50 46 46 48 51 57 59 56 61 64
59 59 60 63 62 60 60 59 59 58 54 51 49 48 45 45 47 42 43 42 41 44 43 43 43 43 43 44 43 40 43 46 49 51 50 52 55 56 55 54 53 51 57 58 55 52 56
59 57 56 64 60 55 51 50 49 50 52 51 48 47 45 44 43 42 40 41 43 42 39 41 43 45 43 44 45 45 47 50 51 53 55 56 55 56 60 55 56 49 54 53 51 51 50
61 60 63 57 52 50 48 49 49 47 49 47 47 45 43 44 42 41 41 40 41 39 39 42 42 43 39 45 44 47 50 52 53 57 58 61 62 64 53 52 52 51 53 51 48 45 29
62 51 65 53 46 48 49 55 50 46 48 47 48 45 45 44 44 41 40 38 39 41 40 40 40 42 42 42 43 49 52 55 60 61 63 64 66 59 56 54 54 53 53 49 48 47 44
76 68 63 59 53 59 59 54 49 47 50 48 45 45 43 44 45 39 36 40 38 38 42 39 40 42 42 47 49 52 57 60 65 68 68 66 63 57 55 54 53 52 51 51 47 42 43
64 61 56 53 57 52 56 63 46 51 47 46 45 42 42 44 42 39 36 40 38 39 41 44 45 45 47 50 55 59 61 67 71 72 70 66 61 54 46 39 44 47 42 44 44 42 43
62 60 55 54 54 55 58 55 43 48 46 44 45 45 41 43 41 39 40 38 38 38 42 44 46 47 49 52 55 58 63 68 72 66 59 59 49 44 41 41 39 41 34 40 38 38 38
65 59 63 56 58 56 55 45 44 47 47 47 48 47 46 35 33 37 36 35 35 36 41 43 46 47 51 55 59 63 63 59 55 53 45 39 34 37 39 40 35 36 34 39 32 32 39
64 62 62 57 60 62 60 48 48 47 47 48 50 48 38 31 29 30 31 30 33 34 39 45 47 50 54 59 60 58 55 47 48 35 36 28 23 20 27 34 41 41 32 27 25 30 34
56 56 56 56 54 50 48 48 44 43 47 46 45 38 28 30 27 26 27 29 32 34 38 44 48 53 57 56 56 52 45 42 37 29 28 30 24 24 26 33 36 35 35 28 28 23 18
64 56 47 45 50 49 45 38 38 41 42 43 38 28 26 23 23 25 27 30 33 37 42 46 51 55 56 55 50 47 39 36 23 24 32 21 18 13 22 33 32 30 36 25 23 20 17
56 46 38 42 48 46 39 36 36 41 43 38 30 23 21 21 24 25 29 31 36 40 44 49 53 57 56 53 48 39 29 24 24 18 23 25 14 20 25 29 20 20 25 34 33 20 18
39 37 37 42 45 39 38 36 35 38 37 29 20 19 20 21 24 26 28 32 38 42 47 51 52 54 48 43 35 26 22 16 14 19 22 25 19 16 20 34 23 28 25 25 30 31 11
39 40 44 43 39 34 32 29 35 36 28 21 18 18 19 21 24 25 28 32 39 44 47 48 52 48 38 27 20 23 21 17 18 18 16 19 25 23 21 20 17 21 30 26 31 33 22
37 39 38 36 32 30 32 34 34 26 20 17 16 16 18 20 23 26 31 36 40 43 44 48 41 37 27 16 13 16 17 16 8 15 16 22 23 19 18 21 24 23 27 31 27 22 33
31 28 29 27 26 32 35 27 23 17 12 15 15 17 17 19 22 25 30 35 37 37 39 36 33 27 13 6 7 10 11 9 8 19 24 29 24 24 17 20 15 22 24 24 22 25 19
27 24 22 25 29 31 26 25 19 17 18 13 13 17 18 20 22 26 30 32 28 30 27 26 25 20 15 10 10 7 12 14 13 13 24 25 27 13 16 28 22 21 17 22 23 31 24
21 20 22 25 28 31 26 21 20 20 12 14 15 16 16 19 21 24 26 22 22 23 21 23 18 13 4 4 13 14 13 11 13 13 18 20 14 13 27 30 26 24 19 12 23 24 24
20 20 24 30 31 28 25 27 23 11 13 14 14 15 15 16 19 22 21 14 13 18 20 18 12 10 12 23 18 15 12 14 11 14 21 26 16 11 14 11 9 9 11 12 16 12 13
23 26 29 31 35 31 29 22 12 14 14 14 13 13 14 15 17 17 16 11 8 13 17 13 9 13 26 20 22 17 13 14 17 16 18 16 15 15 10 6 5 8 10 10 11 11 13
24 27 32 33 30 30 25 18 15 15 15 14 13 11 13 14 15 15 14 8 5 8 16 11 7 13 17 12 16 17 15 8 17 25 20 26 17 13 10 13 13 9 8 8 8 8 9
26 32 34 30 33 29 24 18 18 17 14 12 12 11 12 12 13 14 10 7 3 6 11 8 6 11 15 13 17 8 9 9 9 19 28 28 22 16 11 12 16 11 10 6 6 9 10
28 29 32 35 32 29 23 19 17 14 13 12 11 10 12 11 12 11 10 8 8 5 8 5 4 4 9 9 10 9 13 15 9 16 23 26 21 18 16 13 13 7 6 8 9 12 9
25 25 32 31 31 28 22 20 16 14 13 12 11 10 10 10 11 10 10 8 8 7 6 4 3 3 9 5 11 11 13 16 13 15 19 23 16 15 15 10 7 1 4 7 9 12 12
27 29 29 33 34 27 25 20 17 15 13 11 11 10 10 10 9 11 14 12 7 5 3 5 3 4 5 8 11 12 12 13 6 11 12 8 14 11 11 7 6 6 7 11 13 14 12

GFSGBSN_500_spd_099.txt.gz
Wind_Speed
51 53 51 51 50 51 49 48 48 49 48 48 51 50 46 45 46 48 49 49 50 53 51 50 50 45 43 43 43 45 42 42 41 44 44 46 44 45 46 44 46 49 42 42 43 43 48
54 55 54 52 53 54 53 53 55 54 54 53 50 50 50 51 51 52 53 51 49 50 48 51 50 43 42 43 43 43 42 42 44 45 45 45 44 46 47 45 48 45 47 46 43 44 48
55 58 58 55 57 62 53 54 54 52 52 51 52 52 53 54 53 50 49 46 45 46 45 44 47 50 48 46 44 41 41 41 44 46 45 44 43 47 46 45 44 47 51 50 48 48 48
61 56 56 56 53 56 59 58 59 59 51 51 50 55 58 58 51 48 46 46 45 46 45 44 44 42 42 41 41 42 43 42 42 44 45 44 42 44 46 48 49 49 52 52 45 45 45
59 54 55 51 50 49 52 51 53 54 51 47 47 49 50 49 49 48 48 46 45 46 45 45 43 43 41 40 40 39 41 41 42 44 44 44 44 46 51 52 50 53 55 54 55 47 48
65 60 59 60 63 54 50 51 49 45 41 37 38 41 44 45 46 45 44 45 45 44 45 43 42 42 42 40 37 34 37 40 43 44 46 47 49 51 51 53 57 55 56 57 58 52 51
67 70 71 71 68 69 63 55 49 40 40 40 40 44 43 50 48 47 46 44 43 42 40 40 41 40 39 37 35 36 39 38 41 45 45 49 53 53 53 57 61 63 66 64 64 53 51
73 71 69 72 67 62 55 52 49 50 42 46 48 47 47 50 49 50 47 46 44 42 36 38 36 37 35 35 35 39 43 43 45 47 52 54 56 57 63 66 69 70 68 65 57 52 49
67 67 73 67 65 69 65 62 68 51 53 48 46 49 49 50 50 50 47 44 43 43 38 31 34 35 35 35 33 38 42 46 50 52 57 60 63 65 68 68 68 64 59 55 53 49 47
72 67 66 65 60 64 61 56 52 48 48 49 48 46 48 50 44 47 47 46 42 38 36 36 35 33 33 31 36 39 43 47 52 57 62 64 66 68 68 67 52 52 49 42 36 37 47
75 73 71 61 61 61 62 56 53 52 49 51 46 45 43 46 45 46 46 44 37 34 35 36 37 33 31 32 36 41 47 52 57 60 66 68 69 65 60 54 46 44 35 31 23 31 43
70 72 70 69 66 56 51 54 50 53 50 52 47 45 45 44 50 47 43 39 36 30 32 32 33 33 36 39 42 46 51 56 59 64 67 68 64 57 52 37 37 32 41 38 28 34 46
63 65 65 67 67 55 52 54 58 48 50 50 50 51 45 48 45 40 38 33 31 26 29 30 29 33 36 41 47 51 56 61 64 64 63 61 53 48 30 28 25 29 42 38 30 36 36
58 58 57 58 57 53 50 51 50 44 44 52 52 53 48 43 39 34 34 30 24 27 28 28 30 34 38 45 51 57 60 64 60 57 58 54 44 32 32 29 25 31 41 38 33 26 11
54 55 55 45 45 57 54 47 47 45 47 53 53 50 40 37 33 29 24 20 21 25 26 28 31 36 42 47 54 58 60 58 53 51 46 43 22 16 21 30 25 24 45 28 27 23 12
54 46 49 62 51 49 54 49 53 49 43 45 43 35 29 28 25 23 19 17 21 23 24 30 35 40 45 50 54 55 52 47 42 36 29 20 12 15 20 21 21 30 42 34 31 30 16
47 61 55 59 58 46 47 45 42 38 35 38 34 27 27 21 19 18 15 17 20 23 28 33 38 44 48 51 51 46 38 25 20 17 13 16 17 15 20 13 15 26 33 27 29 27 10
46 44 42 43 41 40 40 39 34 31 33 30 23 24 25 19 17 12 15 16 19 24 29 35 41 47 49 47 40 27 15 14 15 8 9 17 14 17 15 14 18 21 17 28 29 25 14
33 36 35 38 38 37 36 33 29 27 29 27 27 23 18 13 10 14 13 15 20 25 31 37 41 42 42 32 20 12 4 8 7 12 9 14 13 15 14 12 22 11 18 23 21 27 33
33 35 34 35 32 31 29 27 28 30 29 26 23 16 10 8 11 12 13 17 23 29 33 35 36 37 34 21 14 7 4 7 12 9 4 12 12 11 16 15 19 12 17 25 28 24 25
33 34 33 29 27 26 26 30 31 26 24 20 15 13 8 9 12 11 13 18 22 25 29 29 27 27 20 12 7 7 7 8 10 4 6 10 13 18 19 26 25 20 22 25 24 16 27
29 33 28 25 22 26 28 28 26 26 21 18 15 8 7 9 8 9 13 16 20 22 24 25 20 12 11 12 13 12 7 7 5 6 2 7 6 5 11 22 29 20 27 23 15 26 15
27 27 25 25 25 24 25 29 27 24 18 14 8 7 9 8 8 10 12 15 15 16 19 17 11 11 15 14 12 8 6 6 3 3 5 6 9 17 29 34 31 31 20 33 14 20 17
26 26 25 25 26 29 31 29 25 20 17 11 10 9 8 8 9 10 11 11 9 10 16 13 9 17 17 19 15 4 1 2 0 3 4 9 6 1 17 17 11 11 9 6 7 4 4
25 25 24 28 31 32 30 28 23 21 14 12 10 10 8 9 9 10 10 7 6 5 10 9 15 12 16 12 11 10 7 5 9 6 5 4 13 10 16 12 12 11 9 8 6 4 4
24 24 26 31 33 32 29 25 24 19 16 12 10 9 8 9 9 10 10 6 6 2 7 8 8 11 8 12 15 8 16 9 9 16 13 14 15 10 14 11 10 6 7 7 5 2 3
28 29 29 29 29 29 29 26 24 21 14 11 11 9 8 8 9 10 8 5 7 5 2 3 3 11 5 8 8 7 8 9 7 12 13 18 12 8 3 5 7 4 3 2 2 5 5
27 26 24 25 28 28 29 27 23 19 13 12 10 9 8 8 9 10 9 7 7 9 4 3 4 5 10 5 9 14 13 11 7 13 20 22 19 14 9 9 9 9 6 2 2 5 8
26 24 25 33 29 29 29 27 22 16 12 11 10 8 8 9 10 9 9 8 8 9 8 6 3 5 8 9 10 13 5 10 5 13 11 19 15 15 13 11 12 10 6 3 3 7 10

GFSGBSN_500_spd_102.txt.gz
Wind_Speed
50 49 51 51 50 49 48 51 49 49 48 47 47 47 47 49 49 48 48 48 46 44 46 47 50 52 51 50 50 46 47 45 46 44 44 44 41 43 44 42 42 46 42 48 47 44 42
54 55 55 54 53 53 50 52 53 49 49 51 51 50 49 50 52 52 48 47 47 48 50 51 50 50 49 48 50 46 45 44 44 41 40 44 43 45 44 43 45 45 48 46 43 38 38
60 59 56 56 57 55 53 56 55 54 51 50 51 54 51 53 49 47 47 48 50 52 49 48 48 48 46 47 45 45 47 46 47 43 42 44 44 45 46 45 45 43 49 48 43 41 44
69 65 63 60 55 57 56 56 50 52 52 52 54 54 57 54 54 49 50 51 51 45 45 46 46 48 44 46 45 42 41 40 42 43 42 42 43 45 48 49 44 47 52 51 45 45 45
76 74 68 64 62 59 56 54 52 50 46 44 45 45 47 44 41 43 43 40 43 45 44 46 46 46 44 44 42 42 40 39 44 41 42 41 43 46 47 46 47 48 49 51 52 46 49
84 79 75 70 66 59 59 60 59 60 58 56 46 49 42 36 31 32 33 39 41 44 42 42 43 42 45 45 41 39 37 41 42 42 41 41 43 44 43 45 49 52 55 53 54 49 56
87 85 80 73 67 65 61 63 63 63 58 48 53 57 40 45 33 37 36 42 45 44 43 43 41 42 42 40 39 37 38 41 38 40 41 43 45 45 44 47 50 54 57 61 58 56 63
85 85 80 75 68 65 63 61 62 62 63 57 55 51 57 51 49 42 44 45 47 45 45 44 43 39 40 39 35 36 40 37 39 40 43 43 45 46 49 53 57 59 61 63 66 65 62
80 77 74 71 71 68 64 67 66 66 57 57 57 59 49 45 52 44 46 47 48 43 44 41 41 39 36 35 37 38 38 40 39 41 43 46 45 48 54 57 62 65 67 69 70 68 61
78 75 74 73 71 71 67 67 70 60 59 54 58 51 45 44 45 42 43 43 46 42 42 43 40 37 35 36 37 36 36 39 43 44 45 47 48 53 59 61 65 68 63 59 58 55 55
71 71 71 72 74 73 71 75 62 64 56 59 49 47 48 46 46 43 44 45 45 43 36 38 42 37 31 29 27 32 39 41 41 42 49 46 54 60 65 67 63 64 55 52 49 53 46
65 67 68 68 69 70 71 69 65 61 56 53 48 47 46 46 47 44 45 47 46 42 38 37 36 31 28 26 31 35 35 39 42 45 53 53 60 67 70 64 61 53 50 48 45 40 42
59 62 64 65 64 64 63 60 55 57 54 52 52 49 42 43 44 46 48 48 40 40 38 36 28 24 27 30 33 35 38 42 48 53 56 60 63 69 59 58 50 42 36 33 30 36 28
53 55 57 59 57 55 54 53 52 49 51 49 46 40 40 43 43 49 50 46 39 38 35 26 22 25 29 29 33 37 42 46 52 59 63 68 69 62 50 41 43 28 26 26 30 30 26
52 51 51 51 51 50 48 44 44 46 45 45 53 42 39 44 46 49 50 40 36 33 25 18 20 23 26 32 38 41 46 51 56 59 64 65 62 39 27 29 28 22 27 21 30 32 28
51 48 46 48 46 46 37 38 34 40 44 47 45 41 43 47 46 42 43 36 30 18 16 16 20 24 29 33 39 44 48 51 53 56 53 46 31 8 17 20 20 24 20 23 35 34 26
43 43 47 41 36 36 36 46 45 41 39 42 44 46 44 37 38 34 26 21 18 14 13 19 22 26 30 35 41 46 50 49 46 40 27 16 9 8 20 20 19 18 20 22 28 36 21
31 26 29 33 38 43 37 42 43 45 38 42 40 40 34 33 26 22 16 16 13 13 16 20 24 28 32 37 41 44 42 38 22 10 4 6 4 15 14 15 18 22 18 26 31 25 20
55 55 41 44 40 47 48 48 39 42 42 39 34 31 30 28 20 17 16 10 13 15 19 21 26 29 33 36 40 33 24 8 5 5 4 7 1 10 14 13 11 11 15 24 24 12 24
36 48 36 33 30 35 37 40 39 36 34 32 31 28 25 21 19 15 9 14 15 17 18 21 24 28 29 29 31 14 6 6 5 4 7 2 3 2 12 13 18 17 21 19 28 17 24
29 30 30 30 29 30 34 35 33 33 33 31 27 19 21 16 12 10 12 14 14 15 16 19 23 21 18 16 8 7 5 3 4 3 5 11 9 5 15 17 20 13 12 23 19 16 19
26 28 28 28 28 29 30 31 32 34 28 23 21 19 18 15 11 12 13 13 13 13 16 18 15 8 5 5 9 11 10 8 8 8 12 14 6 11 14 18 21 14 14 21 14 15 13
22 21 22 26 27 26 27 30 30 26 27 23 19 17 17 13 13 12 11 11 13 13 12 10 4 4 6 8 10 9 7 7 9 10 11 11 27 31 19 17 16 13 18 16 16 8 14
20 21 24 24 25 27 26 27 29 29 27 19 19 17 15 13 11 10 9 10 11 10 6 4 6 11 12 9 9 7 5 6 8 8 9 14 8 19 25 24 21 17 12 18 28 12 10
21 23 23 26 27 26 28 27 29 27 22 19 17 15 12 10 9 8 7 9 9 4 4 5 11 12 7 7 8 7 7 8 13 8 8 3 7 19 21 14 16 15 15 14 12 7 3
24 27 29 27 28 30 29 30 28 23 21 21 17 14 12 10 10 9 8 7 7 4 2 8 14 11 6 5 9 11 16 10 19 7 10 7 15 10 16 12 13 13 13 10 7 3 3
28 28 27 27 32 32 28 28 26 22 24 20 16 15 12 11 8 7 7 6 7 5 2 6 8 13 4 4 5 6 7 4 15 15 15 12 17 15 7 7 6 12 11 9 7 4 1
27 25 27 29 31 28 28 25 25 25 22 18 15 13 11 9 6 6 7 6 6 8 7 1 3 11 10 6 8 11 8 9 7 18 18 15 11 8 2 6 8 8 6 6 4 2 1
27 26 26 26 30 29 25 25 26 24 18 17 14 13 11 7 6 7 7 8 6 9 12 8 4 3 15 10 11 9 9 10 3 13 13 16 15 9 9 8 10 10 8 5 1 3 5

GFSGBSN_500_spd_105.txt.gz
Wind_Speed
47 47 47 47 47 46 46 49 49 51 47 45 44 47 47 48 46 47 46 47 48 49 48 48 47 44 43 46 49 48 49 51 52 52 50 50 47 49 47 47 46 47 42 42 45 42 36
50 52 52 50 51 51 53 53 50 49 52 49 46 48 49 47 48 49 49 48 42 46 47 48 48 47 49 48 50 49 46 48 52 53 51 49 46 48 47 45 45 43 46 43 43 40 38
56 56 57 55 57 58 58 56 55 56 51 51 52 53 50 49 49 48 49 50 51 46 46 45 46 48 50 47 48 44 47 47 48 50 48 49 47 48 50 45 45 44 46 44 41 39 44
60 63 62 63 63 64 65 62 59 58 57 55 51 49 49 45 43 42 42 45 50 52 51 52 51 48 45 48 48 48 47 47 46 50 49 48 46 47 47 47 45 46 48 47 45 40 43
67 68 67 68 67 71 68 70 67 58 56 56 51 49 52 50 44 40 40 43 45 42 39 38 41 42 40 42 45 45 45 45 46 50 49 45 46 50 47 46 47 43 47 49 50 49 48
71 74 71 70 71 73 73 76 70 62 58 53 56 54 58 58 60 53 50 46 42 36 30 32 37 40 41 40 42 45 45 44 47 49 44 43 47 48 45 46 47 47 50 50 50 50 50
78 78 74 78 78 76 76 77 74 66 56 60 60 59 59 61 56 54 52 48 46 37 30 34 37 44 40 41 45 43 44 47 46 44 42 46 46 44 44 46 48 50 53 53 50 49 59
83 84 81 77 80 79 79 79 76 70 61 58 54 54 54 59 56 62 52 50 49 51 48 51 52 44 43 42 42 46 49 46 42 42 43 43 45 44 45 47 48 50 52 54 54 56 64
87 83 81 83 79 80 77 78 77 73 63 58 55 55 58 58 57 53 54 53 55 54 54 49 42 41 45 46 46 47 48 44 42 42 44 46 45 46 48 48 51 52 56 58 61 61 64
80 85 82 82 81 77 75 75 72 72 68 68 67 69 71 57 62 52 47 48 44 44 45 46 46 47 52 50 46 45 43 40 42 46 47 48 45 46 48 50 55 55 59 63 65 70 74
67 69 69 70 73 75 74 74 70 63 70 67 69 65 67 64 45 53 48 47 49 50 45 44 45 43 43 43 43 41 38 39 44 44 42 44 46 50 51 52 57 58 62 66 68 71 72
58 60 64 66 68 71 71 70 69 68 63 64 63 54 57 49 51 48 49 45 47 47 49 44 43 42 39 38 36 35 36 40 41 42 43 45 48 50 52 55 61 65 69 71 69 65 69
57 58 57 60 63 65 64 64 63 58 58 55 51 50 44 39 40 45 47 43 47 46 46 45 45 43 41 38 37 37 38 38 41 44 44 45 50 54 58 62 66 67 72 71 67 54 52
55 57 55 55 57 57 58 58 55 52 52 50 49 49 50 45 41 43 38 45 45 43 46 43 42 44 36 36 36 33 36 38 42 45 47 48 52 60 64 65 65 65 57 51 38 26 18
54 55 53 52 51 50 50 49 50 47 46 47 44 46 45 40 45 41 42 47 44 44 42 45 43 41 42 36 31 32 34 38 42 47 51 55 55 62 60 62 60 45 33 18 20 16 16
53 52 52 50 47 44 42 42 42 42 41 43 40 40 43 38 42 43 44 46 45 43 43 42 38 37 30 25 28 32 36 42 46 51 56 60 60 53 44 48 25 13 13 18 18 19 20
50 48 47 46 44 41 41 37 38 35 37 35 36 40 41 40 42 45 47 44 43 42 38 32 28 22 20 26 29 35 40 45 51 55 56 53 45 19 22 19 14 8 13 17 15 19 20
46 43 44 45 43 44 32 27 31 33 39 43 42 41 38 42 46 48 43 38 32 27 24 20 16 21 26 30 33 38 43 47 49 47 31 12 7 8 12 11 5 5 10 10 18 16 18
40 39 32 32 34 34 29 40 28 35 33 38 37 40 42 42 41 40 34 27 22 20 16 16 19 24 28 31 35 38 40 43 31 8 4 3 5 10 8 9 9 7 9 17 17 21 22
39 35 22 23 30 35 45 39 46 42 39 38 39 40 42 40 35 28 25 22 18 14 14 17 22 26 27 30 31 32 29 10 6 3 1 8 7 8 10 11 11 11 10 7 13 11 18
38 34 44 46 50 30 38 44 39 36 37 38 39 36 33 34 26 22 22 19 15 14 17 20 22 23 24 23 16 5 6 5 3 11 9 9 5 6 7 13 9 5 9 10 6 16 13
34 40 39 37 38 34 29 31 34 35 35 33 34 32 25 23 22 22 20 15 15 16 16 18 19 20 15 9 2 3 9 14 11 8 6 9 10 2 9 12 11 6 7 8 11 12 12
25 24 27 29 31 32 28 29 29 31 32 32 27 27 24 21 23 20 14 15 14 12 15 17 17 13 8 4 5 10 10 10 7 5 3 7 15 12 10 12 12 11 7 4 16 10 3
26 28 29 28 29 28 28 28 29 27 30 28 28 25 23 23 19 16 16 13 11 11 14 15 12 9 6 6 7 8 8 12 8 5 4 10 16 19 16 13 16 10 13 9 10 7 5
24 24 23 25 26 28 28 27 26 30 30 27 21 24 21 19 17 15 14 13 13 10 13 14 13 14 4 4 5 8 12 14 9 5 5 1 8 13 17 14 14 14 11 11 13 9 7
22 22 24 26 27 28 26 29 31 29 25 26 25 21 18 18 18 16 14 12 10 9 12 10 17 12 7 10 7 7 13 14 9 7 5 4 12 20 23 19 17 16 15 14 15 8 7
22 25 28 27 24 28 30 33 30 28 29 25 22 20 19 19 16 15 11 8 8 9 11 10 18 16 7 12 8 6 7 14 13 11 8 7 8 12 11 11 12 11 10 9 10 8 4
25 26 26 26 29 32 33 33 32 29 26 26 23 20 19 17 15 12 10 7 9 11 10 9 14 17 13 7 8 8 7 10 16 16 14 9 10 7 8 11 14 10 8 7 8 6 3
28 28 27 29 34 33 35 32 29 26 23 24 20 19 16 15 14 11 8 7 8 10 11 12 11 10 18 13 12 8 9 7 18 21 18 16 12 6 5 9 9 8 8 6 4 2 1

GFSGBSN_500_spd_108.txt.gz
Wind_Speed
44 42 41 42 44 41 40 40 42 40 39 42 43 42 40 41 41 42 43 47 47 47 48 46 44 41 41 44 47 46 44 44 46 49 49 50 50 51 49 49 50 53 49 48 46 40 42
48 48 44 46 46 45 42 42 44 46 45 46 45 46 45 40 42 43 48 46 48 50 51 51 47 45 43 41 44 45 48 50 50 48 49 50 50 51 51 47 47 49 51 47 44 43 44
54 52 51 51 52 51 48 47 48 49 49 49 51 51 49 48 47 48 44 47 48 49 54 50 49 50 48 46 45 48 50 50 48 49 48 49 50 52 51 48 50 51 53 51 47 48 46
59 59 59 58 57 54 54 53 54 54 58 55 54 55 52 51 56 56 44 44 48 47 43 43 40 39 41 47 49 51 48 49 50 50 51 52 52 53 55 52 49 51 51 48 46 46 48
66 64 65 61 60 58 56 56 57 57 57 58 58 58 55 53 59 57 51 46 47 50 48 44 42 44 40 41 41 43 46 48 48 48 49 51 52 52 53 52 50 49 51 51 50 48 47
69 71 67 66 64 61 59 59 60 64 59 62 60 59 58 60 59 62 54 53 52 53 54 54 51 42 41 40 36 38 43 45 46 46 47 47 50 53 50 50 54 52 52 54 53 50 49
75 75 74 68 66 65 65 65 65 64 65 64 59 59 61 61 64 57 59 56 56 54 54 50 48 45 45 40 41 47 42 44 45 46 47 48 51 52 49 51 52 53 53 54 49 53 55
78 76 74 71 69 68 67 66 66 68 63 66 64 61 63 64 57 62 57 55 55 53 53 51 52 53 53 56 56 51 49 44 48 50 49 49 50 48 48 49 51 52 53 53 52 54 55
83 74 73 71 71 70 67 64 67 68 66 65 66 63 62 66 59 60 54 56 52 52 55 55 57 57 58 58 56 53 50 51 52 51 51 53 51 49 51 51 51 52 53 53 54 57 56
75 73 71 67 68 67 66 66 68 64 68 68 69 66 49 53 59 56 58 55 53 60 55 54 53 53 55 54 54 53 53 52 52 52 54 55 52 50 51 51 53 53 53 55 55 57 59
72 68 66 64 63 62 64 61 65 66 66 65 67 63 61 69 58 52 61 70 66 48 53 52 53 54 51 51 52 49 50 50 50 52 50 51 52 50 51 51 51 53 54 56 58 59 64
70 67 61 59 60 59 60 62 63 63 63 65 64 62 61 59 66 55 59 48 52 55 54 49 49 46 49 49 46 44 43 45 49 49 49 49 48 48 50 51 52 54 56 58 62 66 71
65 61 60 58 56 56 57 57 59 62 63 60 59 58 58 65 58 54 55 51 52 57 49 44 46 45 48 47 46 46 46 47 47 47 47 46 46 47 50 51 53 55 61 65 67 71 73
61 60 59 58 55 52 51 53 54 53 52 53 51 50 52 54 54 45 50 54 43 44 42 38 43 46 46 45 45 45 47 49 52 51 48 44 42 46 50 55 57 61 67 69 65 66 63
61 60 59 59 54 50 52 51 49 46 48 46 45 47 47 53 53 48 49 54 50 44 39 42 42 46 46 45 47 45 45 45 45 41 38 43 43 47 55 57 59 62 60 61 62 50 37
65 61 60 59 54 52 49 46 43 42 39 40 42 47 45 48 48 48 53 44 47 47 46 46 47 47 48 45 43 41 43 40 34 36 41 45 47 52 56 60 63 60 46 31 21 15 13
63 65 62 59 56 51 46 45 42 38 37 37 43 40 46 47 43 45 47 48 48 51 46 44 44 46 44 40 33 32 31 31 33 40 44 48 53 53 57 52 35 11 10 6 6 11 13
59 62 64 60 54 46 44 42 40 39 41 40 41 41 42 42 42 42 42 46 48 46 45 43 37 34 29 24 23 23 30 36 39 45 51 53 50 37 18 11 5 4 6 9 9 13 13
56 58 61 56 46 43 40 40 39 36 33 35 33 36 34 36 43 44 37 39 46 40 31 30 25 21 20 21 27 29 34 40 44 49 46 20 10 9 5 3 5 5 3 9 15 13 13
50 52 50 45 44 40 39 39 39 32 36 33 42 41 36 35 40 40 42 38 32 27 26 23 18 18 23 25 28 32 37 39 36 18 6 5 7 10 12 8 6 7 13 10 7 9 11
40 42 39 36 37 41 44 45 39 39 33 30 35 31 31 36 38 42 37 28 25 24 19 15 17 21 22 24 29 28 23 10 3 8 10 9 7 10 10 9 10 8 7 10 4 9 5
34 38 35 34 31 29 36 35 32 35 34 42 36 32 36 37 37 31 27 25 22 19 14 16 18 19 22 25 21 13 10 7 13 13 11 4 3 13 11 9 12 7 8 7 6 5 5
32 28 36 42 35 29 26 28 38 35 43 38 31 31 35 31 27 26 24 21 18 14 15 17 18 19 20 18 12 9 11 12 9 6 1 5 1 9 10 8 13 8 6 9 7 7 2
47 43 42 47 49 44 34 40 37 31 29 29 31 31 27 27 27 24 22 19 16 17 15 16 16 16 16 13 8 13 15 12 9 4 2 6 17 18 14 13 13 6 9 8 10 9 2
31 31 32 33 33 31 32 31 31 31 29 27 25 27 28 28 24 23 19 17 17 15 14 14 12 15 13 8 14 14 14 14 11 8 4 4 7 12 15 15 11 10 10 6 6 10 2
31 31 29 29 29 31 32 31 30 26 22 25 28 28 27 27 23 22 21 19 15 13 12 11 12 13 14 10 10 13 14 15 12 7 2 1 4 17 13 12 12 11 11 11 13 11 9
31 31 32 31 30 29 28 27 26 26 26 28 29 28 25 24 24 22 16 13 12 10 11 11 12 14 16 14 11 6 8 15 13 8 11 8 8 12 16 16 12 14 15 13 13 10 8
30 31 31 31 31 29 28 28 27 26 30 28 26 24 21 21 17 16 16 13 11 10 12 12 12 13 19 12 15 12 8 10 15 14 12 9 17 16 9 15 14 12 10 8 9 8 7
25 28 29 30 30 30 29 28 31 32 30 27 24 23 22 21 17 15 13 12 10 10 12 14 11 12 20 16 15 16 11 11 15 17 16 12 12 8 8 11 11 7 7 6 7 6 4

GFSGBSN_500_spd_111.txt.gz
Wind_Speed
54 52 49 46 44 44 42 40 38 37 37 37 35 35 34 34 33 34 33 35 35 35 38 39 37 39 41 41 45 44 41 40 41 40 39 40 41 42 45 47 49 50 49 50 50 46 46
52 49 48 49 47 47 45 43 40 40 42 41 38 38 38 38 35 36 36 38 37 37 42 35 36 40 43 47 46 47 49 47 43 40 39 40 41 44 47 49 49 48 48 46 46 46 45
54 52 52 51 51 50 49 47 45 44 45 46 46 45 45 43 39 40 43 45 45 42 41 42 36 37 41 45 45 46 48 50 48 47 50 50 49 49 50 50 49 50 50 48 45 49 49
57 55 55 54 53 53 54 51 51 49 49 51 51 48 49 48 46 44 48 49 51 51 46 48 43 40 38 43 45 45 43 42 43 43 45 49 50 51 51 52 54 52 50 49 50 51 52
62 61 60 60 58 59 58 57 56 55 56 52 51 52 52 52 52 49 50 55 54 54 49 46 44 43 42 45 48 49 52 51 48 48 49 51 52 53 54 52 52 52 52 51 51 51 51
67 64 64 63 64 64 62 63 59 61 61 58 56 56 55 56 55 55 56 56 53 54 53 50 48 49 51 50 48 47 47 46 47 47 43 46 51 50 47 49 51 53 53 53 53 51 53
73 70 69 69 70 70 69 63 63 67 65 65 60 59 59 58 57 57 60 60 55 55 59 55 52 51 48 47 49 48 46 47 49 50 47 44 44 41 47 50 52 54 54 54 54 54 56
75 76 74 73 71 74 74 70 70 72 67 65 62 60 57 60 59 56 60 63 61 61 61 59 55 55 55 52 50 49 51 54 55 57 59 59 53 52 52 53 55 56 57 56 56 55 57
82 80 79 75 76 74 72 73 70 65 64 64 61 61 58 59 61 57 60 60 59 60 58 56 58 57 53 52 53 54 57 57 59 61 58 56 56 56 55 56 58 59 59 57 58 58 56
76 75 78 80 79 72 68 64 63 60 60 61 60 58 59 58 61 58 58 56 54 47 52 51 50 49 51 52 53 54 52 53 56 56 55 55 56 55 57 58 58 60 57 58 58 57 56
77 78 73 74 73 71 66 65 64 62 57 56 56 57 60 59 60 59 55 41 45 45 53 55 57 57 58 57 48 49 52 52 52 52 52 52 53 53 54 55 58 59 58 59 57 55 53
76 74 74 72 69 66 64 65 63 56 60 54 58 59 60 61 59 57 54 53 59 58 59 58 55 51 50 54 58 54 49 49 49 48 46 47 48 50 53 54 53 54 53 51 49 51 51
73 71 69 68 65 61 59 56 55 55 52 55 58 58 59 56 53 51 51 51 56 56 53 48 46 53 53 42 41 46 45 47 49 48 47 47 49 50 50 49 51 51 47 45 46 54 53
73 70 68 65 62 59 57 56 55 54 52 52 51 52 48 49 46 45 44 46 53 56 57 50 42 43 44 37 38 41 42 45 47 50 49 48 49 50 49 49 49 47 45 50 55 57 58
72 72 68 65 61 59 59 58 56 54 51 51 50 46 43 42 40 41 45 49 51 50 48 46 44 42 37 40 46 44 43 43 46 49 48 50 48 45 43 43 42 47 51 53 56 59 61
75 72 70 67 63 60 61 58 58 54 51 50 47 42 40 41 41 40 47 46 47 49 45 45 45 42 40 44 44 42 43 45 45 45 44 44 41 40 43 45 49 50 51 49 50 40 29
80 75 72 67 65 63 63 59 57 54 50 47 42 41 40 40 43 47 43 44 46 48 46 52 49 48 45 46 44 41 41 42 41 35 33 33 35 41 47 49 49 43 37 31 27 8 4
73 73 71 70 65 64 64 58 57 52 47 45 41 42 39 40 44 46 45 46 42 44 44 43 46 50 48 47 40 37 31 31 26 27 35 39 41 44 40 31 24 15 14 12 9 8 5
70 67 65 63 63 62 63 61 54 47 43 40 40 40 41 38 39 38 40 43 42 38 40 44 48 43 36 35 29 22 23 26 31 35 38 38 32 21 10 5 8 10 11 11 12 10 4
67 65 60 57 59 63 63 58 49 45 42 42 42 43 40 37 37 36 34 33 35 40 44 42 34 31 27 23 20 20 25 29 30 29 23 16 6 8 11 10 7 9 12 12 11 5 6
64 59 57 52 54 55 52 49 47 43 42 41 40 36 35 36 27 28 31 34 36 39 35 31 26 22 20 16 19 23 25 21 13 8 4 5 4 6 9 9 12 11 13 12 7 10 5
58 54 53 50 46 44 44 44 43 42 42 39 39 34 34 31 35 38 33 29 28 28 27 23 20 16 14 17 19 20 20 14 12 10 9 8 9 12 11 13 7 14 12 4 12 8 4
38 40 43 42 39 40 43 44 42 41 38 37 30 31 32 31 35 35 32 26 26 24 23 20 15 14 14 16 17 13 10 8 10 11 11 7 13 14 13 9 10 6 1 6 10 7 3
33 36 38 39 39 37 41 48 39 43 41 41 37 31 31 32 32 27 26 23 23 25 21 16 13 12 14 14 12 9 11 13 11 13 6 8 12 8 15 13 13 8 4 9 11 4 4
31 34 40 41 41 32 39 39 34 39 34 34 42 37 30 31 29 27 24 24 24 22 16 14 11 12 11 10 7 10 12 13 16 12 5 8 2 14 16 15 15 9 4 4 7 8 6
36 37 41 43 43 41 35 33 35 37 36 33 30 30 29 27 23 25 26 25 24 19 15 12 11 10 11 8 5 11 13 15 19 14 9 11 9 8 15 17 15 10 7 8 6 12 7
42 47 42 42 43 40 34 33 33 33 31 28 28 26 24 25 28 28 26 24 19 15 14 11 9 9 10 8 9 8 10 16 18 13 10 11 11 11 15 9 13 11 10 10 13 12 10
33 34 34 35 35 35 34 32 30 27 28 27 25 26 28 29 28 26 24 19 16 14 12 10 9 9 9 11 10 12 10 11 18 13 10 5 10 14 18 16 14 15 14 14 12 12 12
32 32 32 32 31 29 30 29 28 28 27 27 25 27 27 29 23 24 20 18 16 12 10 9 10 8 9 16 12 13 14 10 8 14 14 6 12 17 17 17 15 13 12 13 12 11 9

GFSGBSN_500_spd_114.txt.gz
Wind_Speed
52 52 49 52 56 54 51 51 49 48 44 43 42 40 36 34 33 32 32 31 29 29 26 26 26 27 26 27 30 33 37 40 41 37 39 39 38 39 40 40 41 41 43 44 46 46 45
56 51 51 53 51 50 51 50 47 46 45 44 43 42 39 36 36 36 36 32 33 31 30 29 28 29 30 30 29 30 30 35 37 40 39 41 43 43 43 42 42 42 46 46 45 46 48
64 68 59 56 57 50 47 48 47 47 45 45 45 44 43 41 40 42 42 38 37 35 36 35 33 34 35 34 34 34 32 30 31 35 40 41 36 37 42 45 45 48 50 49 47 47 49
58 60 59 57 56 52 48 49 50 49 49 49 48 48 49 46 48 49 48 42 40 39 39 39 39 38 37 36 37 38 41 38 39 39 40 41 44 49 52 52 52 50 50 51 53 50 51
59 60 57 58 58 54 54 51 51 51 52 52 52 52 52 53 49 52 51 46 44 45 41 42 45 42 41 39 42 44 43 43 44 43 44 44 44 46 47 49 48 51 56 57 53 53 50
64 62 62 61 61 60 58 55 56 54 53 55 58 57 54 55 61 58 57 53 50 48 45 46 47 48 49 48 48 48 49 49 50 49 46 45 46 46 46 48 49 53 56 52 55 54 51
72 69 67 65 62 61 61 59 59 59 58 60 58 58 57 59 58 61 63 62 61 54 51 48 47 49 48 51 56 55 50 51 51 49 48 47 48 49 52 55 55 54 53 52 52 55 55
75 73 73 69 70 68 67 67 65 62 62 63 60 63 60 58 62 64 64 65 66 61 55 51 49 46 51 57 62 55 57 55 52 50 51 53 52 56 59 62 63 65 66 64 64 62 60
77 77 76 76 73 73 72 68 66 66 62 62 64 66 66 66 67 66 64 61 59 54 56 50 50 55 61 64 59 59 55 52 51 50 52 55 59 59 61 63 64 63 63 64 65 64 63
77 77 74 73 71 71 73 75 73 74 70 66 64 63 64 66 66 65 62 58 57 54 59 56 60 63 57 55 57 54 46 46 49 50 52 53 53 55 58 60 61 61 62 60 61 62 61
80 77 74 72 74 71 69 67 66 67 72 66 61 58 65 63 60 61 62 57 55 53 59 59 55 49 47 47 49 48 49 54 53 53 55 56 52 54 55 55 57 56 55 55 56 57 60
77 76 76 75 74 72 71 69 66 64 64 58 59 57 58 59 59 56 59 58 57 54 56 54 50 48 48 52 54 53 46 45 47 51 52 50 49 51 50 51 50 50 49 51 53 53 54
76 74 74 72 72 70 69 66 64 61 62 64 58 58 59 60 59 59 57 58 54 51 58 59 55 57 57 55 41 42 47 48 47 43 44 45 47 46 47 50 50 49 48 49 50 50 49
79 77 76 73 72 69 68 65 63 61 58 58 58 59 59 60 58 54 56 54 52 55 55 50 47 46 52 46 42 46 42 40 39 39 43 45 48 46 45 49 51 49 46 46 48 45 38
81 80 77 74 72 70 65 64 63 60 58 58 55 58 59 55 50 48 48 48 52 47 45 44 45 46 52 43 39 43 43 39 43 43 41 49 50 48 48 49 47 48 44 43 43 44 47
86 82 79 76 72 70 68 64 64 63 59 57 56 58 54 51 48 46 47 45 45 40 39 41 44 45 47 44 41 44 43 42 44 44 45 48 48 46 45 43 38 36 40 40 43 43 44
90 90 84 78 74 71 69 66 64 60 55 56 59 59 54 50 47 46 46 40 40 39 39 42 43 41 43 43 45 45 44 45 45 47 45 41 34 33 33 34 38 40 40 40 38 32 23
86 85 89 84 77 73 73 68 63 57 57 57 58 59 53 46 46 45 38 38 39 41 43 43 42 40 42 44 44 41 41 43 47 38 32 27 29 34 36 38 36 31 25 24 22 12 16
89 85 82 82 82 77 73 68 64 57 57 57 56 56 51 45 45 39 39 41 41 38 38 40 39 41 44 41 41 38 35 36 29 22 25 28 31 32 27 20 14 13 11 12 15 14 9
82 82 80 77 76 75 74 71 64 58 61 59 54 51 48 44 41 40 39 38 40 41 38 38 39 38 40 38 36 32 30 22 20 24 25 24 19 15 14 16 9 11 12 12 9 12 12
65 80 76 76 71 72 73 72 62 59 59 57 53 50 42 41 39 38 36 36 36 35 31 32 32 35 39 32 27 22 18 18 19 15 15 12 4 5 8 12 14 15 12 15 17 16 10
38 62 76 73 71 68 66 65 58 56 56 53 48 45 42 37 37 38 35 32 29 28 30 30 28 28 27 22 19 14 17 15 14 14 13 8 7 7 10 11 14 11 14 15 18 15 7
38 45 68 70 68 60 57 56 54 55 53 50 44 40 37 36 37 36 35 32 31 34 30 26 23 23 21 16 13 13 12 11 10 9 11 10 11 15 15 12 11 13 14 11 12 10 7
40 46 61 60 57 54 50 50 49 46 42 42 40 39 37 34 32 33 31 31 31 35 29 23 22 22 17 12 11 10 9 10 9 11 13 14 14 14 11 12 13 10 5 10 14 9 7
39 50 55 51 51 50 47 45 46 47 45 42 39 38 35 35 32 29 31 33 34 30 25 22 21 16 12 11 8 8 9 11 13 14 15 14 7 5 14 15 12 8 2 5 9 9 7
44 49 49 49 47 48 47 46 45 41 38 39 33 36 37 29 34 31 30 29 29 25 22 23 17 13 12 9 7 8 10 13 16 19 18 11 9 7 15 14 16 12 8 7 7 12 10
47 47 50 47 44 46 45 44 45 41 37 38 43 39 40 37 35 31 32 27 24 22 25 19 15 13 11 9 9 10 10 15 16 19 19 15 16 13 13 16 17 14 12 8 10 12 12
38 43 47 53 42 49 51 32 39 40 39 44 41 37 37 36 32 30 29 26 25 25 18 17 13 11 9 9 10 13 10 10 14 17 18 14 16 15 15 16 12 13 11 11 12 16 12
46 48 38 42 40 39 42 45 46 44 39 43 36 34 33 31 28 27 24 24 24 20 17 13 11 10 9 8 12 14 13 13 10 14 20 14 14 17 19 19 16 14 14 14 15 13 13

GFSGBSN_500_spd_117.txt.gz
Wind_Speed
59 58 58 56 56 54 55 55 57 56 55 55 54 51 49 46 42 40 39 36 34 34 32 30 28 26 27 26 23 21 20 22 20 20 26 29 30 32 34 36 36 38 36 39 39 43 45
61 57 45 56 47 46 39 44 41 45 52 54 52 51 47 46 42 41 40 38 36 34 31 32 30 30 29 31 29 25 23 23 23 26 27 25 26 31 37 36 35 32 34 38 42 44 50
59 52 56 56 60 56 61 49 40 41 48 47 46 48 47 47 44 41 42 41 38 37 36 36 36 33 32 35 32 28 26 25 29 29 27 31 31 32 35 36 38 39 40 41 42 45 45
65 61 58 58 61 63 67 60 46 45 46 46 47 45 46 46 47 44 45 44 41 41 41 40 41 39 36 34 34 32 32 34 32 32 36 39 37 43 45 40 41 44 44 44 47 47 48
62 63 62 60 61 67 62 61 49 47 50 50 47 47 48 48 49 49 50 50 44 42 41 42 42 42 44 40 40 39 39 39 39 38 37 38 43 46 46 44 43 44 46 45 49 58 55
64 63 63 61 63 63 64 60 56 53 53 55 50 54 53 50 52 50 53 51 52 47 50 47 46 48 48 48 44 44 41 39 43 44 41 42 48 48 47 45 49 47 49 51 55 52 56
69 68 66 65 65 63 60 57 60 60 59 58 53 58 54 54 54 54 58 56 54 52 52 52 54 48 50 51 49 47 44 47 52 52 48 49 49 49 48 50 53 53 53 54 55 60 63
78 76 75 72 70 69 66 65 60 60 59 60 57 56 56 55 57 57 59 60 58 55 55 57 57 57 54 53 48 51 55 56 55 49 49 51 56 49 51 55 57 58 61 60 61 64 67
77 74 75 77 74 72 69 71 69 66 64 64 63 60 61 58 56 57 56 59 59 59 64 63 60 53 50 51 54 55 62 58 51 50 46 48 47 53 55 54 58 60 63 64 65 65 66
82 80 77 75 74 73 74 72 72 69 69 67 69 65 62 60 59 55 58 56 56 59 63 62 60 54 54 56 59 59 57 51 51 46 45 50 48 51 52 57 58 58 58 61 64 65 66
80 79 79 80 79 75 73 73 73 70 68 73 66 68 65 68 68 65 60 59 58 58 58 58 56 55 54 56 55 53 45 46 45 47 51 50 55 58 56 55 56 57 58 57 57 59 63
83 81 78 77 75 77 74 73 70 69 68 65 64 58 57 60 58 59 57 53 55 55 58 59 55 55 57 55 50 48 48 47 48 51 52 53 54 53 54 54 51 51 51 50 50 53 55
80 80 79 77 76 75 74 73 72 67 65 64 62 60 57 55 54 56 53 51 52 53 56 58 53 51 52 52 51 54 53 57 53 52 49 48 52 53 50 43 43 44 46 47 49 37 48
80 78 78 76 74 73 74 70 69 68 68 66 61 59 58 55 55 54 55 54 56 54 56 57 53 51 49 51 51 49 47 45 45 45 47 49 47 43 39 40 42 42 47 50 50 39 33
82 81 80 78 74 72 70 68 66 65 63 61 59 60 58 55 55 55 53 53 55 52 55 56 51 47 47 47 45 44 47 45 42 41 46 50 46 42 41 46 48 46 49 48 50 48 45
90 86 83 79 76 73 69 67 66 64 63 59 58 56 54 51 54 51 43 52 51 51 47 49 44 43 44 45 41 43 47 45 44 44 46 46 44 44 46 49 47 45 43 42 39 37 33
91 93 89 85 80 77 72 68 66 64 61 57 57 55 47 58 53 54 54 50 45 45 42 41 41 44 41 43 40 42 40 42 42 44 46 49 47 45 49 47 41 37 31 35 35 37 34
89 86 87 92 88 83 78 74 70 66 61 58 56 55 55 55 57 53 47 46 42 43 40 39 41 41 40 38 41 42 40 40 38 42 42 42 45 44 40 32 33 36 33 36 32 24 18
86 88 85 81 83 86 85 80 77 71 63 60 57 56 51 50 51 49 47 46 41 40 38 41 40 39 41 41 44 38 39 39 39 41 42 38 33 28 28 30 29 26 23 19 16 15 19
89 89 88 87 83 78 78 82 81 76 67 64 61 59 59 56 50 43 41 41 41 39 41 39 39 39 38 39 37 38 40 39 40 35 28 25 24 23 20 23 21 19 16 14 13 12 12
77 84 91 89 90 88 81 74 76 76 72 68 65 61 54 53 44 47 42 40 39 40 39 37 37 37 34 34 37 37 37 36 30 20 21 21 18 14 12 13 17 21 17 15 15 16 17
62 70 78 85 91 92 87 80 74 72 72 69 64 59 55 51 53 45 35 37 38 39 35 34 33 32 35 35 34 31 30 23 20 19 19 17 13 12 9 10 11 12 15 18 17 18 17
42 55 61 70 78 84 88 82 76 72 73 70 63 57 54 52 46 42 37 35 34 36 33 36 30 32 32 30 28 27 19 17 17 14 14 14 13 10 11 12 13 13 15 21 18 19 15
28 30 39 60 64 72 77 82 75 68 69 66 61 57 53 51 43 39 35 34 36 36 33 30 34 34 31 28 26 18 16 15 13 12 12 14 14 14 16 15 14 15 15 13 11 9 9
28 41 41 33 51 59 70 74 67 61 63 62 54 51 46 41 38 34 36 35 35 30 32 35 34 32 29 25 18 16 15 13 13 12 14 16 17 16 11 10 14 12 7 2 2 4 7
37 39 49 38 47 57 65 63 58 58 58 54 50 47 42 39 36 34 34 37 30 30 33 34 31 29 24 19 17 14 11 10 11 16 18 17 17 14 6 10 13 11 10 6 7 7 11
33 36 34 47 56 59 59 58 58 57 53 50 45 42 37 33 34 33 28 35 31 31 30 29 28 25 20 18 15 12 10 12 12 15 21 20 19 16 12 11 15 14 13 10 10 11 10
51 53 54 56 57 56 55 54 53 51 47 45 42 39 36 38 31 31 29 34 38 34 29 28 26 21 20 15 13 10 13 14 14 17 21 22 21 18 20 14 17 17 16 13 11 10 12
49 52 53 53 53 52 51 50 49 48 44 44 42 43 47 42 40 35 34 34 36 34 27 25 23 21 17 16 13 13 15 16 14 17 20 22 21 21 20 18 18 16 14 12 13 11 14

GFSGBSN_500_spd_120.txt.gz
Wind_Speed
61 59 60 59 57 55 55 55 54 54 54 57 57 56 57 55 54 51 49 46 44 40 38 37 36 32 30 30 30 30 24 22 22 23 19 15 16 18 15 18 20 23 25 25 26 30 31
61 63 64 61 56 59 48 55 57 50 49 53 44 39 47 52 52 51 47 46 44 41 38 36 36 33 30 31 34 30 31 27 27 26 25 24 19 19 22 23 23 25 26 29 32 33 38
66 66 67 65 62 52 57 49 49 47 48 44 46 29 41 39 41 47 44 44 43 41 39 38 38 34 33 32 34 35 32 33 31 29 29 29 22 29 30 30 30 30 35 36 39 38 43
65 66 61 58 59 64 57 52 46 52 56 51 34 34 34 45 42 39 40 43 43 42 40 40 40 38 36 35 33 34 40 37 36 40 36 32 29 29 33 36 37 39 39 41 41 45 53
67 67 70 73 73 67 66 57 66 66 64 67 65 52 46 40 38 41 40 41 45 44 43 43 42 40 43 39 37 36 39 40 40 39 40 34 36 41 41 44 45 41 46 45 45 47 52
67 68 67 69 68 66 66 61 60 60 65 68 71 63 51 48 46 44 44 48 48 48 49 45 46 46 46 45 47 42 45 44 45 44 40 38 45 46 50 45 48 46 48 47 47 33 50
72 69 68 67 66 65 64 63 62 62 63 63 57 49 46 46 44 47 51 54 57 53 53 51 50 49 45 51 55 49 53 54 54 51 48 53 53 53 55 52 54 55 53 52 46 49 53
74 73 73 71 69 67 66 65 64 63 62 60 59 59 53 52 54 55 53 54 54 56 57 55 55 52 52 51 60 55 61 62 52 48 52 55 54 53 55 52 51 50 51 51 51 55 58
79 77 75 72 72 73 72 69 67 66 64 63 61 59 58 57 55 58 56 53 54 56 59 60 55 56 61 58 56 57 57 57 53 54 55 56 56 53 52 51 51 48 50 52 56 58 61
83 82 78 76 76 75 73 72 74 72 71 69 68 66 64 64 61 57 56 57 58 58 60 62 62 62 60 59 56 51 49 51 52 54 56 54 46 45 46 50 50 53 54 56 58 61 63
82 82 81 81 80 79 77 72 72 69 69 71 70 71 66 69 67 64 62 60 63 57 61 62 65 62 59 57 51 47 47 50 50 50 49 45 47 48 50 50 50 52 53 57 58 58 59
81 81 82 80 79 78 79 77 75 73 71 71 68 67 67 67 63 63 62 66 63 61 64 62 58 54 54 52 51 50 46 48 47 47 47 49 53 56 54 55 51 48 50 55 56 54 51
80 80 81 81 81 79 79 76 74 72 72 72 71 68 64 62 60 58 57 59 57 58 56 52 54 52 49 50 48 47 46 48 46 47 49 49 50 51 50 49 46 48 48 44 43 43 45
80 80 79 79 78 77 76 74 73 71 69 68 67 66 63 61 55 56 57 55 56 59 50 46 47 50 44 47 47 47 47 48 48 46 45 44 41 42 46 49 46 43 40 41 45 45 48
81 79 78 78 78 77 74 72 71 69 68 67 67 67 67 61 61 57 56 58 60 47 45 46 47 47 45 44 47 48 48 47 43 44 50 48 46 47 44 45 44 41 41 44 49 48 50
82 81 80 79 78 77 75 73 70 69 68 66 66 64 61 58 58 61 62 58 46 45 46 45 45 42 41 40 46 44 44 46 44 43 44 42 45 42 43 45 43 44 44 47 47 46 43
84 84 82 78 78 78 75 73 72 69 68 65 64 63 59 56 53 41 57 50 44 44 42 44 39 37 38 36 31 43 45 44 40 41 41 40 41 41 42 43 44 46 47 40 38 38 39
85 84 82 81 80 78 76 76 73 71 69 66 63 60 56 54 55 60 52 42 38 40 37 41 40 35 33 34 42 40 41 40 39 39 38 40 42 39 42 43 44 36 28 34 36 33 33
90 90 89 88 87 84 82 80 78 76 69 66 63 61 58 55 56 49 43 38 43 40 42 42 38 34 35 40 41 40 39 44 43 42 42 42 42 43 40 35 32 33 31 29 29 29 19
89 91 92 90 88 87 86 83 82 81 75 69 66 65 60 55 50 45 49 50 41 41 38 38 36 36 38 38 38 38 40 41 42 39 40 41 43 37 27 28 29 31 21 20 20 21 16
72 75 81 87 83 82 80 78 79 82 78 73 72 69 60 54 49 45 47 51 37 35 34 36 35 36 36 36 37 37 39 41 39 37 40 39 29 26 21 22 25 23 26 26 22 16 19
70 71 71 76 84 82 79 78 74 74 77 77 75 68 60 53 50 47 48 51 45 36 32 32 35 36 34 35 34 34 39 42 37 36 32 28 22 21 19 16 15 16 17 19 19 20 20
58 64 68 71 75 78 79 78 76 71 72 72 73 65 61 55 51 48 45 43 42 37 34 35 34 34 35 32 34 37 37 36 32 30 23 23 21 19 13 15 15 15 13 17 19 19 20
33 49 58 61 64 69 77 77 77 75 70 66 64 64 65 59 54 46 44 41 36 32 37 32 34 32 32 35 34 36 37 32 26 20 22 21 18 17 12 15 17 15 12 15 19 17 15
33 29 40 53 56 60 69 76 77 76 69 62 55 52 56 58 53 48 44 40 40 40 37 35 31 34 35 34 35 35 32 23 19 22 19 19 17 15 13 13 14 10 12 13 9 5 5
42 36 30 33 50 54 58 67 76 74 69 63 52 48 49 52 50 44 39 37 37 36 32 31 32 32 33 35 35 31 21 18 21 18 18 18 18 15 11 9 11 10 13 13 11 8 6
33 46 40 28 31 50 55 58 66 71 67 61 58 51 51 46 44 40 34 36 34 31 29 34 30 31 34 34 30 22 17 12 12 12 15 19 20 16 14 14 15 14 14 14 12 11 9
38 44 48 34 26 40 49 50 57 66 66 61 57 55 52 48 40 37 36 37 32 31 29 33 32 32 34 30 22 18 18 15 15 14 16 17 21 19 20 19 18 15 15 14 14 13 10
45 41 52 40 26 40 47 55 60 64 63 60 57 52 49 44 37 33 32 33 35 34 34 33 36 33 24 24 18 20 14 19 24 19 18 20 18 19 17 20 17 17 16 14 13 12 10